Wetterdaten: Dienstag, 05.07.2016
Datum Zeit Temp. A. Temp. A. max Feuchte A. Luftdruck Regen Wind Richtung Richtung Sonnenschein ET UV Solar Taupunkt Windben
05.07.2016 00:00 12,9 C 12,9 C 93 % 1017,7 hPa 0,0 mm 0,3 km/h (0 Bft) N 355 0 min 0,000 mm 0,0 UV-I 0 W/m 11,8 C 1,6 km/h (1 Bft)
05.07.2016 00:01 12,9 C 12,9 C 93 % 1017,7 hPa 0,0 mm 0,6 km/h (0 Bft) N 355 0 min 0,000 mm 0,0 UV-I 0 W/m 11,8 C 1,6 km/h (1 Bft)
05.07.2016 00:02 12,9 C 12,9 C 93 % 1017,7 hPa 0,0 mm 0,5 km/h (0 Bft) N 355 0 min 0,000 mm 0,0 UV-I 0 W/m 11,8 C 1,6 km/h (1 Bft)
05.07.2016 00:03 12,9 C 12,9 C 94 % 1017,6 hPa 0,0 mm 0,5 km/h (0 Bft) N 355 0 min 0,000 mm 0,0 UV-I 0 W/m 12,0 C 1,6 km/h (1 Bft)
05.07.2016 00:04 12,9 C 12,9 C 93 % 1017,6 hPa 0,0 mm 0,1 km/h (0 Bft) N 355 0 min 0,000 mm 0,0 UV-I 0 W/m 11,8 C 1,6 km/h (1 Bft)
05.07.2016 00:05 13,0 C 13,0 C 93 % 1017,6 hPa 0,0 mm 0,8 km/h (0 Bft) N 355 0 min 0,000 mm 0,0 UV-I 0 W/m 11,9 C 1,6 km/h (1 Bft)
05.07.2016 00:06 13,1 C 13,1 C 93 % 1017,6 hPa 0,0 mm 0,0 km/h (0 Bft) N 355 0 min 0,000 mm 0,0 UV-I 0 W/m 12,0 C 0,0 km/h (0 Bft)
05.07.2016 00:07 13,1 C 13,1 C 93 % 1017,6 hPa 0,0 mm 0,0 km/h (0 Bft) N 355 0 min 0,000 mm 0,0 UV-I 0 W/m 12,0 C 0,0 km/h (0 Bft)
05.07.2016 00:08 13,1 C 13,1 C 92 % 1017,6 hPa 0,0 mm 0,0 km/h (0 Bft) N 355 0 min 0,000 mm 0,0 UV-I 0 W/m 11,8 C 0,0 km/h (0 Bft)
05.07.2016 00:09 13,1 C 13,1 C 92 % 1017,6 hPa 0,0 mm 0,0 km/h (0 Bft) N 355 0 min 0,000 mm 0,0 UV-I 0 W/m 11,8 C 0,0 km/h (0 Bft)
05.07.2016 00:10 13,1 C 13,1 C 92 % 1017,6 hPa 0,0 mm 0,1 km/h (0 Bft) N 355 0 min 0,000 mm 0,0 UV-I 0 W/m 11,8 C 1,6 km/h (1 Bft)
05.07.2016 00:11 13,2 C 13,2 C 92 % 1017,6 hPa 0,0 mm 1,1 km/h (1 Bft) N 355 0 min 0,000 mm 0,0 UV-I 0 W/m 11,9 C 3,2 km/h (1 Bft)
05.07.2016 00:12 13,2 C 13,2 C 92 % 1017,6 hPa 0,0 mm 0,4 km/h (0 Bft) N 355 0 min 0,000 mm 0,0 UV-I 0 W/m 11,9 C 1,6 km/h (1 Bft)
05.07.2016 00:13 13,1 C 13,2 C 92 % 1017,6 hPa 0,0 mm 0,7 km/h (0 Bft) N 355 0 min 0,000 mm 0,0 UV-I 0 W/m 11,8 C 1,6 km/h (1 Bft)
05.07.2016 00:14 13,1 C 13,2 C 92 % 1017,6 hPa 0,0 mm 0,3 km/h (0 Bft) N 355 0 min 0,000 mm 0,0 UV-I 0 W/m 11,8 C 1,6 km/h (1 Bft)
05.07.2016 00:15 13,2 C 13,2 C 92 % 1017,6 hPa 0,0 mm 0,0 km/h (0 Bft) N 355 0 min 0,000 mm 0,0 UV-I 0 W/m 11,9 C 0,0 km/h (0 Bft)
05.07.2016 00:16 13,1 C 13,2 C 92 % 1017,6 hPa 0,0 mm 0,1 km/h (0 Bft) N 355 0 min 0,000 mm 0,0 UV-I 0 W/m 11,8 C 1,6 km/h (1 Bft)
05.07.2016 00:17 13,1 C 13,1 C 92 % 1017,6 hPa 0,0 mm 0,1 km/h (0 Bft) N 355 0 min 0,000 mm 0,0 UV-I 0 W/m 11,8 C 1,6 km/h (1 Bft)
05.07.2016 00:18 13,1 C 13,1 C 92 % 1017,6 hPa 0,0 mm 0,2 km/h (0 Bft) N 355 0 min 0,000 mm 0,0 UV-I 0 W/m 11,8 C 1,6 km/h (1 Bft)
05.07.2016 00:19 13,1 C 13,1 C 92 % 1017,6 hPa 0,0 mm 0,1 km/h (0 Bft) N 355 0 min 0,000 mm 0,0 UV-I 0 W/m 11,8 C 1,6 km/h (1 Bft)
05.07.2016 00:20 13,1 C 13,2 C 92 % 1017,6 hPa 0,0 mm 0,0 km/h (0 Bft) N 355 0 min 0,000 mm 0,0 UV-I 0 W/m 11,8 C 0,0 km/h (0 Bft)
05.07.2016 00:21 13,1 C 13,1 C 91 % 1017,5 hPa 0,0 mm 0,0 km/h (0 Bft) N 355 0 min 0,000 mm 0,0 UV-I 0 W/m 11,7 C 0,0 km/h (0 Bft)
05.07.2016 00:22 13,1 C 13,1 C 92 % 1017,5 hPa 0,0 mm 0,0 km/h (0 Bft) N 355 0 min 0,000 mm 0,0 UV-I 0 W/m 11,8 C 0,0 km/h (0 Bft)
05.07.2016 00:23 13,1 C 13,1 C 92 % 1017,5 hPa 0,0 mm 0,5 km/h (0 Bft) N 355 0 min 0,000 mm 0,0 UV-I 0 W/m 11,8 C 1,6 km/h (1 Bft)
05.07.2016 00:24 13,1 C 13,1 C 92 % 1017,5 hPa 0,0 mm 0,1 km/h (0 Bft) N 355 0 min 0,000 mm 0,0 UV-I 0 W/m 11,8 C 1,6 km/h (1 Bft)
05.07.2016 00:25 13,1 C 13,1 C 92 % 1017,5 hPa 0,0 mm 0,0 km/h (0 Bft) N 355 0 min 0,000 mm 0,0 UV-I 0 W/m 11,8 C 0,0 km/h (0 Bft)
05.07.2016 00:26 13,1 C 13,1 C 92 % 1017,5 hPa 0,0 mm 0,0 km/h (0 Bft) N 355 0 min 0,000 mm 0,0 UV-I 0 W/m 11,8 C 0,0 km/h (0 Bft)
05.07.2016 00:27 13,1 C 13,1 C 92 % 1017,5 hPa 0,0 mm 0,1 km/h (0 Bft) N 355 0 min 0,000 mm 0,0 UV-I 0 W/m 11,8 C 1,6 km/h (1 Bft)
05.07.2016 00:28 13,1 C 13,1 C 92 % 1017,5 hPa 0,0 mm 0,0 km/h (0 Bft) N 355 0 min 0,000 mm 0,0 UV-I 0 W/m 11,8 C 0,0 km/h (0 Bft)
05.07.2016 00:29 13,0 C 13,1 C 92 % 1017,5 hPa 0,0 mm 0,4 km/h (0 Bft) N 355 0 min 0,000 mm 0,0 UV-I 0 W/m 11,7 C 1,6 km/h (1 Bft)
05.07.2016 00:30 13,0 C 13,1 C 92 % 1017,5 hPa 0,0 mm 0,0 km/h (0 Bft) N 355 0 min 0,000 mm 0,0 UV-I 0 W/m 11,7 C 0,0 km/h (0 Bft)
05.07.2016 00:31 13,0 C 13,1 C 92 % 1017,5 hPa 0,0 mm 0,0 km/h (0 Bft) N 355 0 min 0,000 mm 0,0 UV-I 0 W/m 11,7 C 0,0 km/h (0 Bft)
05.07.2016 00:32 13,0 C 13,0 C 92 % 1017,5 hPa 0,0 mm 0,0 km/h (0 Bft) N 355 0 min 0,000 mm 0,0 UV-I 0 W/m 11,7 C 0,0 km/h (0 Bft)
05.07.2016 00:33 12,9 C 13,0 C 92 % 1017,5 hPa 0,0 mm 0,0 km/h (0 Bft) N 355 0 min 0,000 mm 0,0 UV-I 0 W/m 11,6 C 0,0 km/h (0 Bft)
05.07.2016 00:34 12,9 C 12,9 C 92 % 1017,5 hPa 0,0 mm 0,1 km/h (0 Bft) N 355 0 min 0,000 mm 0,0 UV-I 0 W/m 11,6 C 1,6 km/h (1 Bft)
05.07.2016 00:35 12,9 C 12,9 C 93 % 1017,5 hPa 0,0 mm 0,1 km/h (0 Bft) N 355 0 min 0,000 mm 0,0 UV-I 0 W/m 11,8 C 1,6 km/h (1 Bft)
05.07.2016 00:36 12,8 C 12,9 C 93 % 1017,5 hPa 0,0 mm 0,0 km/h (0 Bft) N 355 0 min 0,000 mm 0,0 UV-I 0 W/m 11,7 C 0,0 km/h (0 Bft)
05.07.2016 00:37 12,8 C 12,8 C 93 % 1017,5 hPa 0,0 mm 0,0 km/h (0 Bft) N 355 0 min 0,000 mm 0,0 UV-I 0 W/m 11,7 C 0,0 km/h (0 Bft)
05.07.2016 00:38 12,8 C 12,8 C 93 % 1017,5 hPa 0,0 mm 0,1 km/h (0 Bft) N 355 0 min 0,000 mm 0,0 UV-I 0 W/m 11,7 C 1,6 km/h (1 Bft)
05.07.2016 00:39 12,7 C 12,8 C 93 % 1017,5 hPa 0,0 mm 0,0 km/h (0 Bft) N 355 0 min 0,000 mm 0,0 UV-I 0 W/m 11,6 C 0,0 km/h (0 Bft)
05.07.2016 00:40 12,8 C 12,8 C 93 % 1017,5 hPa 0,0 mm 0,1 km/h (0 Bft) N 355 0 min 0,000 mm 0,0 UV-I 0 W/m 11,7 C 1,6 km/h (1 Bft)
05.07.2016 00:41 12,8 C 12,8 C 93 % 1017,5 hPa 0,0 mm 0,1 km/h (0 Bft) N 355 0 min 0,000 mm 0,0 UV-I 0 W/m 11,7 C 1,6 km/h (1 Bft)
05.07.2016 00:42 12,8 C 12,8 C 93 % 1017,5 hPa 0,0 mm 0,0 km/h (0 Bft) N 355 0 min 0,000 mm 0,0 UV-I 0 W/m 11,7 C 0,0 km/h (0 Bft)
05.07.2016 00:43 12,8 C 12,8 C 93 % 1017,5 hPa 0,0 mm 0,0 km/h (0 Bft) N 355 0 min 0,000 mm 0,0 UV-I 0 W/m 11,7 C 0,0 km/h (0 Bft)
05.07.2016 00:44 12,8 C 12,9 C 93 % 1017,5 hPa 0,0 mm 0,8 km/h (0 Bft) N 355 0 min 0,000 mm 0,0 UV-I 0 W/m 11,7 C 1,6 km/h (1 Bft)
05.07.2016 00:45 12,8 C 12,9 C 92 % 1017,5 hPa 0,0 mm 0,4 km/h (0 Bft) N 355 0 min 0,000 mm 0,0 UV-I 0 W/m 11,5 C 1,6 km/h (1 Bft)
05.07.2016 00:46 12,7 C 12,8 C 90 % 1017,5 hPa 0,0 mm 0,8 km/h (0 Bft) N 355 0 min 0,000 mm 0,0 UV-I 0 W/m 11,1 C 1,6 km/h (1 Bft)
05.07.2016 00:47 12,6 C 12,7 C 91 % 1017,5 hPa 0,0 mm 1,3 km/h (1 Bft) N 355 0 min 0,000 mm 0,0 UV-I 0 W/m 11,2 C 1,6 km/h (1 Bft)
05.07.2016 00:48 12,6 C 12,6 C 91 % 1017,5 hPa 0,0 mm 0,3 km/h (0 Bft) N 355 0 min 0,000 mm 0,0 UV-I 0 W/m 11,2 C 1,6 km/h (1 Bft)
05.07.2016 00:49 12,4 C 12,6 C 91 % 1017,4 hPa 0,0 mm 1,2 km/h (1 Bft) N 355 0 min 0,000 mm 0,0 UV-I 0 W/m 11,0 C 1,6 km/h (1 Bft)
05.07.2016 00:50 12,3 C 12,4 C 91 % 1017,4 hPa 0,0 mm 0,5 km/h (0 Bft) N 355 0 min 0,000 mm 0,0 UV-I 0 W/m 10,9 C 1,6 km/h (1 Bft)
05.07.2016 00:51 12,3 C 12,3 C 92 % 1017,5 hPa 0,0 mm 0,0 km/h (0 Bft) N 355 0 min 0,000 mm 0,0 UV-I 0 W/m 11,0 C 0,0 km/h (0 Bft)
05.07.2016 00:52 12,3 C 12,3 C 92 % 1017,5 hPa 0,0 mm 0,0 km/h (0 Bft) N 355 0 min 0,000 mm 0,0 UV-I 0 W/m 11,0 C 0,0 km/h (0 Bft)
05.07.2016 00:53 12,3 C 12,3 C 93 % 1017,4 hPa 0,0 mm 0,0 km/h (0 Bft) N 355 0 min 0,000 mm 0,0 UV-I 0 W/m 11,2 C 0,0 km/h (0 Bft)
05.07.2016 00:54 12,3 C 12,3 C 93 % 1017,4 hPa 0,0 mm 0,0 km/h (0 Bft) N 355 0 min 0,000 mm 0,0 UV-I 0 W/m 11,2 C 0,0 km/h (0 Bft)
05.07.2016 00:55 12,3 C 12,3 C 93 % 1017,4 hPa 0,0 mm 0,0 km/h (0 Bft) N 355 0 min 0,000 mm 0,0 UV-I 0 W/m 11,2 C 0,0 km/h (0 Bft)
05.07.2016 00:56 12,3 C 12,3 C 93 % 1017,4 hPa 0,0 mm 0,0 km/h (0 Bft) N 355 0 min 0,000 mm 0,0 UV-I 0 W/m 11,2 C 0,0 km/h (0 Bft)
05.07.2016 00:57 12,3 C 12,3 C 93 % 1017,4 hPa 0,0 mm 0,0 km/h (0 Bft) N 355 0 min 0,000 mm 0,0 UV-I 0 W/m 11,2 C 0,0 km/h (0 Bft)
05.07.2016 00:58 12,3 C 12,3 C 93 % 1017,4 hPa 0,0 mm 0,0 km/h (0 Bft) N 355 0 min 0,000 mm 0,0 UV-I 0 W/m 11,2 C 0,0 km/h (0 Bft)
05.07.2016 00:59 12,3 C 12,3 C 93 % 1017,4 hPa 0,0 mm 0,0 km/h (0 Bft) N 355 0 min 0,000 mm 0,0 UV-I 0 W/m 11,2 C 0,0 km/h (0 Bft)
05.07.2016 01:00 12,3 C 12,3 C 93 % 1017,4 hPa 0,0 mm 0,2 km/h (0 Bft) N 355 0 min 0,000 mm 0,0 UV-I 0 W/m 11,2 C 1,6 km/h (1 Bft)
05.07.2016 01:01 12,3 C 12,3 C 93 % 1017,4 hPa 0,0 mm 0,0 km/h (0 Bft) N 355 0 min 0,000 mm 0,0 UV-I 0 W/m 11,2 C 0,0 km/h (0 Bft)
05.07.2016 01:02 12,3 C 12,3 C 93 % 1017,4 hPa 0,0 mm 0,0 km/h (0 Bft) N 355 0 min 0,000 mm 0,0 UV-I 0 W/m 11,2 C 0,0 km/h (0 Bft)
05.07.2016 01:03 12,2 C 12,3 C 93 % 1017,4 hPa 0,0 mm 0,0 km/h (0 Bft) N 355 0 min 0,000 mm 0,0 UV-I 0 W/m 11,1 C 0,0 km/h (0 Bft)
05.07.2016 01:04 12,2 C 12,2 C 93 % 1017,3 hPa 0,0 mm 0,1 km/h (0 Bft) N 355 0 min 0,000 mm 0,0 UV-I 0 W/m 11,1 C 1,6 km/h (1 Bft)
05.07.2016 01:05 12,2 C 12,2 C 94 % 1017,4 hPa 0,0 mm 0,0 km/h (0 Bft) N 355 0 min 0,000 mm 0,0 UV-I 0 W/m 11,3 C 0,0 km/h (0 Bft)
05.07.2016 01:06 12,2 C 12,2 C 94 % 1017,4 hPa 0,0 mm 0,0 km/h (0 Bft) N 355 0 min 0,000 mm 0,0 UV-I 0 W/m 11,3 C 0,0 km/h (0 Bft)
05.07.2016 01:07 12,1 C 12,2 C 94 % 1017,4 hPa 0,0 mm 0,0 km/h (0 Bft) N 355 0 min 0,000 mm 0,0 UV-I 0 W/m 11,2 C 0,0 km/h (0 Bft)
05.07.2016 01:08 12,1 C 12,1 C 94 % 1017,4 hPa 0,0 mm 0,0 km/h (0 Bft) N 355 0 min 0,000 mm 0,0 UV-I 0 W/m 11,2 C 0,0 km/h (0 Bft)
05.07.2016 01:09 12,1 C 12,1 C 93 % 1017,4 hPa 0,0 mm 0,0 km/h (0 Bft) N 355 0 min 0,000 mm 0,0 UV-I 0 W/m 11,0 C 0,0 km/h (0 Bft)
05.07.2016 01:10 12,1 C 12,1 C 94 % 1017,3 hPa 0,0 mm 0,0 km/h (0 Bft) N 355 0 min 0,000 mm 0,0 UV-I 0 W/m 11,2 C 0,0 km/h (0 Bft)
05.07.2016 01:11 12,0 C 12,1 C 94 % 1017,4 hPa 0,0 mm 0,0 km/h (0 Bft) N 355 0 min 0,000 mm 0,0 UV-I 0 W/m 11,1 C 0,0 km/h (0 Bft)
05.07.2016 01:12 12,0 C 12,1 C 94 % 1017,3 hPa 0,0 mm 0,0 km/h (0 Bft) N 355 0 min 0,000 mm 0,0 UV-I 0 W/m 11,1 C 0,0 km/h (0 Bft)
05.07.2016 01:13 12,0 C 12,1 C 94 % 1017,3 hPa 0,0 mm 0,0 km/h (0 Bft) N 355 0 min 0,000 mm 0,0 UV-I 0 W/m 11,1 C 0,0 km/h (0 Bft)
05.07.2016 01:14 12,0 C 12,1 C 94 % 1017,3 hPa 0,0 mm 0,0 km/h (0 Bft) N 355 0 min 0,000 mm 0,0 UV-I 0 W/m 11,1 C 0,0 km/h (0 Bft)
05.07.2016 01:15 12,0 C 12,0 C 94 % 1017,3 hPa 0,0 mm 0,3 km/h (0 Bft) N 355 0 min 0,000 mm 0,0 UV-I 0 W/m 11,1 C 1,6 km/h (1 Bft)
05.07.2016 01:16 11,9 C 12,0 C 94 % 1017,3 hPa 0,0 mm 0,0 km/h (0 Bft) N 355 0 min 0,000 mm 0,0 UV-I 0 W/m 11,0 C 0,0 km/h (0 Bft)
05.07.2016 01:17 11,9 C 11,9 C 94 % 1017,3 hPa 0,0 mm 0,0 km/h (0 Bft) N 355 0 min 0,000 mm 0,0 UV-I 0 W/m 11,0 C 0,0 km/h (0 Bft)
05.07.2016 01:18 11,9 C 11,9 C 94 % 1017,3 hPa 0,0 mm 0,0 km/h (0 Bft) N 355 0 min 0,000 mm 0,0 UV-I 0 W/m 11,0 C 0,0 km/h (0 Bft)
05.07.2016 01:19 11,9 C 11,9 C 94 % 1017,2 hPa 0,0 mm 0,0 km/h (0 Bft) N 355 0 min 0,000 mm 0,0 UV-I 0 W/m 11,0 C 0,0 km/h (0 Bft)
05.07.2016 01:20 11,9 C 11,9 C 94 % 1017,2 hPa 0,0 mm 0,0 km/h (0 Bft) N 355 0 min 0,000 mm 0,0 UV-I 0 W/m 11,0 C 0,0 km/h (0 Bft)
05.07.2016 01:21 11,8 C 11,9 C 94 % 1017,3 hPa 0,0 mm 0,0 km/h (0 Bft) N 355 0 min 0,000 mm 0,0 UV-I 0 W/m 10,9 C 0,0 km/h (0 Bft)
05.07.2016 01:22 11,8 C 11,8 C 94 % 1017,2 hPa 0,0 mm 0,0 km/h (0 Bft) N 355 0 min 0,000 mm 0,0 UV-I 0 W/m 10,9 C 0,0 km/h (0 Bft)
05.07.2016 01:23 11,8 C 11,8 C 94 % 1017,3 hPa 0,0 mm 0,0 km/h (0 Bft) N 355 0 min 0,000 mm 0,0 UV-I 0 W/m 10,9 C 0,0 km/h (0 Bft)
05.07.2016 01:24 11,8 C 11,8 C 94 % 1017,3 hPa 0,0 mm 0,0 km/h (0 Bft) N 355 0 min 0,000 mm 0,0 UV-I 0 W/m 10,9 C 0,0 km/h (0 Bft)
05.07.2016 01:25 11,8 C 11,8 C 94 % 1017,3 hPa 0,0 mm 0,0 km/h (0 Bft) N 355 0 min 0,000 mm 0,0 UV-I 0 W/m 10,9 C 0,0 km/h (0 Bft)
05.07.2016 01:26 11,8 C 11,8 C 94 % 1017,2 hPa 0,0 mm 0,0 km/h (0 Bft) N 355 0 min 0,000 mm 0,0 UV-I 0 W/m 10,9 C 0,0 km/h (0 Bft)
05.07.2016 01:27 11,8 C 11,8 C 94 % 1017,2 hPa 0,0 mm 0,0 km/h (0 Bft) N 355 0 min 0,000 mm 0,0 UV-I 0 W/m 10,9 C 0,0 km/h (0 Bft)
05.07.2016 01:28 11,8 C 11,8 C 94 % 1017,2 hPa 0,0 mm 0,0 km/h (0 Bft) N 355 0 min 0,000 mm 0,0 UV-I 0 W/m 10,9 C 0,0 km/h (0 Bft)
05.07.2016 01:29 11,8 C 11,8 C 94 % 1017,2 hPa 0,0 mm 0,0 km/h (0 Bft) N 355 0 min 0,000 mm 0,0 UV-I 0 W/m 10,9 C 0,0 km/h (0 Bft)
05.07.2016 01:30 11,8 C 11,8 C 95 % 1017,1 hPa 0,0 mm 0,0 km/h (0 Bft) N 355 0 min 0,000 mm 0,0 UV-I 0 W/m 11,0 C 0,0 km/h (0 Bft)
05.07.2016 01:31 11,8 C 11,8 C 95 % 1017,2 hPa 0,0 mm 0,0 km/h (0 Bft) N 355 0 min 0,000 mm 0,0 UV-I 0 W/m 11,0 C 0,0 km/h (0 Bft)
05.07.2016 01:32 11,8 C 11,8 C 94 % 1017,2 hPa 0,0 mm 0,0 km/h (0 Bft) N 355 0 min 0,000 mm 0,0 UV-I 0 W/m 10,9 C 0,0 km/h (0 Bft)
05.07.2016 01:33 11,9 C 11,9 C 94 % 1017,1 hPa 0,0 mm 0,0 km/h (0 Bft) N 355 0 min 0,000 mm 0,0 UV-I 0 W/m 11,0 C 0,0 km/h (0 Bft)
05.07.2016 01:34 11,9 C 11,9 C 94 % 1017,2 hPa 0,0 mm 0,0 km/h (0 Bft) N 355 0 min 0,000 mm 0,0 UV-I 0 W/m 11,0 C 0,0 km/h (0 Bft)
05.07.2016 01:35 11,9 C 11,9 C 94 % 1017,1 hPa 0,0 mm 0,0 km/h (0 Bft) N 355 0 min 0,000 mm 0,0 UV-I 0 W/m 11,0 C 0,0 km/h (0 Bft)
05.07.2016 01:36 11,9 C 11,9 C 94 % 1017,1 hPa 0,0 mm 0,7 km/h (0 Bft) N 355 0 min 0,000 mm 0,0 UV-I 0 W/m 11,0 C 1,6 km/h (1 Bft)
05.07.2016 01:37 11,9 C 11,9 C 94 % 1017,2 hPa 0,0 mm 0,3 km/h (0 Bft) N 355 0 min 0,000 mm 0,0 UV-I 0 W/m 11,0 C 1,6 km/h (1 Bft)
05.07.2016 01:38 11,9 C 11,9 C 94 % 1017,2 hPa 0,0 mm 0,1 km/h (0 Bft) N 355 0 min 0,000 mm 0,0 UV-I 0 W/m 11,0 C 1,6 km/h (1 Bft)
05.07.2016 01:39 11,8 C 11,9 C 94 % 1017,1 hPa 0,0 mm 0,0 km/h (0 Bft) N 355 0 min 0,000 mm 0,0 UV-I 0 W/m 10,9 C 0,0 km/h (0 Bft)
05.07.2016 01:40 11,9 C 11,9 C 94 % 1017,1 hPa 0,0 mm 0,0 km/h (0 Bft) N 355 0 min 0,000 mm 0,0 UV-I 0 W/m 11,0 C 0,0 km/h (0 Bft)
05.07.2016 01:41 11,9 C 11,9 C 94 % 1017,2 hPa 0,0 mm 0,0 km/h (0 Bft) N 355 0 min 0,000 mm 0,0 UV-I 0 W/m 11,0 C 0,0 km/h (0 Bft)
05.07.2016 01:42 11,9 C 11,9 C 94 % 1017,2 hPa 0,0 mm 0,0 km/h (0 Bft) N 355 0 min 0,000 mm 0,0 UV-I 0 W/m 11,0 C 0,0 km/h (0 Bft)
05.07.2016 01:43 11,9 C 11,9 C 94 % 1017,2 hPa 0,0 mm 0,0 km/h (0 Bft) N 355 0 min 0,000 mm 0,0 UV-I 0 W/m 11,0 C 0,0 km/h (0 Bft)
05.07.2016 01:44 11,9 C 11,9 C 95 % 1017,1 hPa 0,0 mm 0,0 km/h (0 Bft) N 355 0 min 0,000 mm 0,0 UV-I 0 W/m 11,1 C 0,0 km/h (0 Bft)
05.07.2016 01:45 12,0 C 12,0 C 95 % 1017,1 hPa 0,0 mm 0,3 km/h (0 Bft) N 355 0 min 0,000 mm 0,0 UV-I 0 W/m 11,2 C 1,6 km/h (1 Bft)
05.07.2016 01:46 12,1 C 12,1 C 95 % 1017,1 hPa 0,0 mm 0,3 km/h (0 Bft) N 355 0 min 0,000 mm 0,0 UV-I 0 W/m 11,3 C 1,6 km/h (1 Bft)
05.07.2016 01:47 12,1 C 12,1 C 94 % 1017,2 hPa 0,0 mm 0,9 km/h (0 Bft) N 355 0 min 0,000 mm 0,0 UV-I 0 W/m 11,2 C 1,6 km/h (1 Bft)
05.07.2016 01:48 12,2 C 12,2 C 94 % 1017,2 hPa 0,0 mm 0,3 km/h (0 Bft) N 355 0 min 0,000 mm 0,0 UV-I 0 W/m 11,3 C 1,6 km/h (1 Bft)
05.07.2016 01:49 12,2 C 12,2 C 94 % 1017,1 hPa 0,0 mm 0,3 km/h (0 Bft) N 355 0 min 0,000 mm 0,0 UV-I 0 W/m 11,3 C 1,6 km/h (1 Bft)
05.07.2016 01:50 12,2 C 12,2 C 94 % 1017,1 hPa 0,0 mm 0,5 km/h (0 Bft) N 355 0 min 0,000 mm 0,0 UV-I 0 W/m 11,3 C 1,6 km/h (1 Bft)
05.07.2016 01:51 12,3 C 12,3 C 94 % 1017,1 hPa 0,0 mm 0,6 km/h (0 Bft) N 355 0 min 0,000 mm 0,0 UV-I 0 W/m 11,4 C 1,6 km/h (1 Bft)
05.07.2016 01:52 12,3 C 12,3 C 94 % 1017,1 hPa 0,0 mm 0,5 km/h (0 Bft) N 355 0 min 0,000 mm 0,0 UV-I 0 W/m 11,4 C 1,6 km/h (1 Bft)
05.07.2016 01:53 12,3 C 12,3 C 94 % 1017,1 hPa 0,0 mm 0,1 km/h (0 Bft) N 355 0 min 0,000 mm 0,0 UV-I 0 W/m 11,4 C 1,6 km/h (1 Bft)
05.07.2016 01:54 12,4 C 12,4 C 94 % 1017,1 hPa 0,0 mm 0,0 km/h (0 Bft) N 355 0 min 0,000 mm 0,0 UV-I 0 W/m 11,5 C 0,0 km/h (0 Bft)
05.07.2016 01:55 12,4 C 12,4 C 94 % 1017,2 hPa 0,0 mm 0,0 km/h (0 Bft) N 355 0 min 0,000 mm 0,0 UV-I 0 W/m 11,5 C 0,0 km/h (0 Bft)
05.07.2016 01:56 12,4 C 12,4 C 93 % 1017,2 hPa 0,0 mm 0,0 km/h (0 Bft) N 355 0 min 0,000 mm 0,0 UV-I 0 W/m 11,3 C 0,0 km/h (0 Bft)
05.07.2016 01:57 12,4 C 12,4 C 93 % 1017,2 hPa 0,0 mm 0,2 km/h (0 Bft) N 355 0 min 0,000 mm 0,0 UV-I 0 W/m 11,3 C 1,6 km/h (1 Bft)
05.07.2016 01:58 12,4 C 12,4 C 93 % 1017,2 hPa 0,0 mm 1,2 km/h (1 Bft) N 355 0 min 0,000 mm 0,0 UV-I 0 W/m 11,3 C 1,6 km/h (1 Bft)
05.07.2016 01:59 12,4 C 12,4 C 93 % 1017,2 hPa 0,0 mm 0,3 km/h (0 Bft) N 355 0 min 0,000 mm 0,0 UV-I 0 W/m 11,3 C 1,6 km/h (1 Bft)
05.07.2016 02:00 12,3 C 12,4 C 93 % 1017,2 hPa 0,0 mm 0,8 km/h (0 Bft) N 355 0 min 0,000 mm 0,0 UV-I 0 W/m 11,2 C 1,6 km/h (1 Bft)
05.07.2016 02:01 12,3 C 12,4 C 93 % 1017,2 hPa 0,0 mm 0,1 km/h (0 Bft) N 355 0 min 0,000 mm 0,0 UV-I 0 W/m 11,2 C 1,6 km/h (1 Bft)
05.07.2016 02:02 12,3 C 12,3 C 93 % 1017,2 hPa 0,0 mm 0,0 km/h (0 Bft) N 355 0 min 0,000 mm 0,0 UV-I 0 W/m 11,2 C 0,0 km/h (0 Bft)
05.07.2016 02:03 12,3 C 12,3 C 93 % 1017,2 hPa 0,0 mm 0,5 km/h (0 Bft) N 355 0 min 0,000 mm 0,0 UV-I 0 W/m 11,2 C 1,6 km/h (1 Bft)
05.07.2016 02:04 12,3 C 12,3 C 93 % 1017,2 hPa 0,0 mm 0,0 km/h (0 Bft) N 355 0 min 0,000 mm 0,0 UV-I 0 W/m 11,2 C 0,0 km/h (0 Bft)
05.07.2016 02:05 12,2 C 12,3 C 94 % 1017,2 hPa 0,0 mm 0,0 km/h (0 Bft) N 355 0 min 0,000 mm 0,0 UV-I 0 W/m 11,3 C 0,0 km/h (0 Bft)
05.07.2016 02:06 12,2 C 12,2 C 93 % 1017,2 hPa 0,0 mm 0,0 km/h (0 Bft) N 355 0 min 0,000 mm 0,0 UV-I 0 W/m 11,1 C 0,0 km/h (0 Bft)
05.07.2016 02:07 12,2 C 12,2 C 93 % 1017,2 hPa 0,0 mm 0,2 km/h (0 Bft) N 355 0 min 0,000 mm 0,0 UV-I 0 W/m 11,1 C 1,6 km/h (1 Bft)
05.07.2016 02:08 12,2 C 12,2 C 94 % 1017,2 hPa 0,0 mm 0,0 km/h (0 Bft) N 355 0 min 0,000 mm 0,0 UV-I 0 W/m 11,3 C 0,0 km/h (0 Bft)
05.07.2016 02:09 12,2 C 12,2 C 93 % 1017,2 hPa 0,0 mm 0,0 km/h (0 Bft) N 355 0 min 0,000 mm 0,0 UV-I 0 W/m 11,1 C 0,0 km/h (0 Bft)
05.07.2016 02:10 12,1 C 12,2 C 94 % 1017,2 hPa 0,0 mm 0,0 km/h (0 Bft) N 355 0 min 0,000 mm 0,0 UV-I 0 W/m 11,2 C 0,0 km/h (0 Bft)
05.07.2016 02:11 12,1 C 12,1 C 93 % 1017,2 hPa 0,0 mm 0,1 km/h (0 Bft) N 355 0 min 0,000 mm 0,0 UV-I 0 W/m 11,0 C 1,6 km/h (1 Bft)
05.07.2016 02:12 12,1 C 12,1 C 93 % 1017,1 hPa 0,0 mm 0,0 km/h (0 Bft) N 355 0 min 0,000 mm 0,0 UV-I 0 W/m 11,0 C 0,0 km/h (0 Bft)
05.07.2016 02:13 12,0 C 12,1 C 94 % 1017,1 hPa 0,0 mm 0,2 km/h (0 Bft) N 355 0 min 0,000 mm 0,0 UV-I 0 W/m 11,1 C 1,6 km/h (1 Bft)
05.07.2016 02:14 11,9 C 12,0 C 94 % 1017,1 hPa 0,0 mm 0,0 km/h (0 Bft) N 355 0 min 0,000 mm 0,0 UV-I 0 W/m 11,0 C 0,0 km/h (0 Bft)
05.07.2016 02:15 11,9 C 11,9 C 94 % 1017,1 hPa 0,0 mm 0,0 km/h (0 Bft) N 355 0 min 0,000 mm 0,0 UV-I 0 W/m 11,0 C 0,0 km/h (0 Bft)
05.07.2016 02:16 11,8 C 11,9 C 94 % 1017,1 hPa 0,0 mm 0,9 km/h (0 Bft) N 355 0 min 0,000 mm 0,0 UV-I 0 W/m 10,9 C 1,6 km/h (1 Bft)
05.07.2016 02:17 11,8 C 11,8 C 94 % 1017,1 hPa 0,0 mm 0,0 km/h (0 Bft) N 355 0 min 0,000 mm 0,0 UV-I 0 W/m 10,9 C 0,0 km/h (0 Bft)
05.07.2016 02:18 11,8 C 11,8 C 94 % 1017,1 hPa 0,0 mm 0,9 km/h (0 Bft) N 355 0 min 0,000 mm 0,0 UV-I 0 W/m 10,9 C 1,6 km/h (1 Bft)
05.07.2016 02:19 11,8 C 11,8 C 94 % 1017,0 hPa 0,0 mm 0,4 km/h (0 Bft) N 355 0 min 0,000 mm 0,0 UV-I 0 W/m 10,9 C 1,6 km/h (1 Bft)
05.07.2016 02:20 11,8 C 11,8 C 94 % 1017,0 hPa 0,0 mm 0,3 km/h (0 Bft) N 355 0 min 0,000 mm 0,0 UV-I 0 W/m 10,9 C 1,6 km/h (1 Bft)
05.07.2016 02:21 11,8 C 11,8 C 94 % 1017,1 hPa 0,0 mm 0,4 km/h (0 Bft) N 355 0 min 0,000 mm 0,0 UV-I 0 W/m 10,9 C 1,6 km/h (1 Bft)
05.07.2016 02:22 11,9 C 11,9 C 94 % 1017,0 hPa 0,0 mm 2,0 km/h (1 Bft) W-NW 302 0 min 0,000 mm 0,0 UV-I 0 W/m 11,0 C 3,2 km/h (1 Bft)
05.07.2016 02:23 11,9 C 11,9 C 94 % 1017,0 hPa 0,0 mm 2,1 km/h (1 Bft) W-SW 248 0 min 0,000 mm 0,0 UV-I 0 W/m 11,0 C 4,8 km/h (1 Bft)
05.07.2016 02:24 11,9 C 11,9 C 94 % 1017,0 hPa 0,0 mm 0,1 km/h (0 Bft) W-SW 248 0 min 0,000 mm 0,0 UV-I 0 W/m 11,0 C 1,6 km/h (1 Bft)
05.07.2016 02:25 12,0 C 12,0 C 94 % 1017,0 hPa 0,0 mm 0,5 km/h (0 Bft) W-SW 248 0 min 0,000 mm 0,0 UV-I 0 W/m 11,1 C 1,6 km/h (1 Bft)
05.07.2016 02:26 12,1 C 12,1 C 94 % 1017,0 hPa 0,0 mm 1,9 km/h (1 Bft) W 263 0 min 0,000 mm 0,0 UV-I 0 W/m 11,2 C 3,2 km/h (1 Bft)
05.07.2016 02:27 12,1 C 12,1 C 94 % 1017,0 hPa 0,0 mm 2,1 km/h (1 Bft) W 263 0 min 0,000 mm 0,0 UV-I 0 W/m 11,2 C 3,2 km/h (1 Bft)
05.07.2016 02:28 12,2 C 12,2 C 94 % 1017,0 hPa 0,0 mm 1,4 km/h (1 Bft) W 263 0 min 0,000 mm 0,0 UV-I 0 W/m 11,3 C 3,2 km/h (1 Bft)
05.07.2016 02:29 12,2 C 12,2 C 94 % 1017,0 hPa 0,0 mm 1,9 km/h (1 Bft) W 263 0 min 0,000 mm 0,0 UV-I 0 W/m 11,3 C 3,2 km/h (1 Bft)
05.07.2016 02:30 12,2 C 12,2 C 93 % 1017,0 hPa 0,0 mm 0,5 km/h (0 Bft) W 263 0 min 0,000 mm 0,0 UV-I 0 W/m 11,1 C 1,6 km/h (1 Bft)
05.07.2016 02:31 12,3 C 12,3 C 93 % 1017,0 hPa 0,0 mm 0,6 km/h (0 Bft) W 263 0 min 0,000 mm 0,0 UV-I 0 W/m 11,2 C 1,6 km/h (1 Bft)
05.07.2016 02:32 12,3 C 12,3 C 93 % 1017,0 hPa 0,0 mm 0,1 km/h (0 Bft) W 263 0 min 0,000 mm 0,0 UV-I 0 W/m 11,2 C 1,6 km/h (1 Bft)
05.07.2016 02:33 12,3 C 12,3 C 94 % 1017,0 hPa 0,0 mm 1,0 km/h (0 Bft) W 263 0 min 0,000 mm 0,0 UV-I 0 W/m 11,4 C 1,6 km/h (1 Bft)
05.07.2016 02:34 12,3 C 12,3 C 93 % 1017,0 hPa 0,0 mm 0,8 km/h (0 Bft) W 263 0 min 0,000 mm 0,0 UV-I 0 W/m 11,2 C 1,6 km/h (1 Bft)
05.07.2016 02:35 12,3 C 12,3 C 93 % 1017,0 hPa 0,0 mm 0,0 km/h (0 Bft) W 263 0 min 0,000 mm 0,0 UV-I 0 W/m 11,2 C 0,0 km/h (0 Bft)
05.07.2016 02:36 12,3 C 12,3 C 94 % 1017,0 hPa 0,0 mm 0,0 km/h (0 Bft) W 263 0 min 0,000 mm 0,0 UV-I 0 W/m 11,4 C 0,0 km/h (0 Bft)
05.07.2016 02:37 12,3 C 12,3 C 93 % 1017,0 hPa 0,0 mm 0,3 km/h (0 Bft) W 263 0 min 0,000 mm 0,0 UV-I 0 W/m 11,2 C 1,6 km/h (1 Bft)
05.07.2016 02:38 12,3 C 12,3 C 94 % 1016,9 hPa 0,0 mm 0,1 km/h (0 Bft) W 263 0 min 0,000 mm 0,0 UV-I 0 W/m 11,4 C 1,6 km/h (1 Bft)
05.07.2016 02:39 12,3 C 12,3 C 94 % 1016,8 hPa 0,0 mm 0,0 km/h (0 Bft) W 263 0 min 0,000 mm 0,0 UV-I 0 W/m 11,4 C 0,0 km/h (0 Bft)
05.07.2016 02:40 12,3 C 12,3 C 93 % 1016,8 hPa 0,0 mm 0,0 km/h (0 Bft) W 263 0 min 0,000 mm 0,0 UV-I 0 W/m 11,2 C 0,0 km/h (0 Bft)
05.07.2016 02:41 12,2 C 12,3 C 94 % 1016,8 hPa 0,0 mm 0,0 km/h (0 Bft) W 263 0 min 0,000 mm 0,0 UV-I 0 W/m 11,3 C 0,0 km/h (0 Bft)
05.07.2016 02:42 12,2 C 12,2 C 94 % 1016,8 hPa 0,0 mm 0,0 km/h (0 Bft) W 263 0 min 0,000 mm 0,0 UV-I 0 W/m 11,3 C 0,0 km/h (0 Bft)
05.07.2016 02:43 12,2 C 12,2 C 94 % 1016,8 hPa 0,0 mm 0,0 km/h (0 Bft) W 263 0 min 0,000 mm 0,0 UV-I 0 W/m 11,3 C 0,0 km/h (0 Bft)
05.07.2016 02:44 12,2 C 12,2 C 94 % 1016,8 hPa 0,0 mm 0,3 km/h (0 Bft) W 263 0 min 0,000 mm 0,0 UV-I 0 W/m 11,3 C 1,6 km/h (1 Bft)
05.07.2016 02:45 12,2 C 12,2 C 94 % 1016,8 hPa 0,0 mm 0,0 km/h (0 Bft) W 263 0 min 0,000 mm 0,0 UV-I 0 W/m 11,3 C 0,0 km/h (0 Bft)
05.07.2016 02:46 12,1 C 12,2 C 94 % 1016,8 hPa 0,0 mm 0,0 km/h (0 Bft) W 263 0 min 0,000 mm 0,0 UV-I 0 W/m 11,2 C 0,0 km/h (0 Bft)
05.07.2016 02:47 12,1 C 12,1 C 94 % 1016,8 hPa 0,0 mm 0,0 km/h (0 Bft) W 263 0 min 0,000 mm 0,0 UV-I 0 W/m 11,2 C 0,0 km/h (0 Bft)
05.07.2016 02:48 12,1 C 12,1 C 94 % 1016,7 hPa 0,0 mm 0,0 km/h (0 Bft) W 263 0 min 0,000 mm 0,0 UV-I 0 W/m 11,2 C 0,0 km/h (0 Bft)
05.07.2016 02:49 12,0 C 12,1 C 94 % 1016,7 hPa 0,0 mm 0,0 km/h (0 Bft) W 263 0 min 0,000 mm 0,0 UV-I 0 W/m 11,1 C 0,0 km/h (0 Bft)
05.07.2016 02:50 11,9 C 12,0 C 94 % 1016,7 hPa 0,0 mm 0,0 km/h (0 Bft) W 263 0 min 0,000 mm 0,0 UV-I 0 W/m 11,0 C 0,0 km/h (0 Bft)
05.07.2016 02:51 11,9 C 11,9 C 94 % 1016,7 hPa 0,0 mm 0,0 km/h (0 Bft) W 263 0 min 0,000 mm 0,0 UV-I 0 W/m 11,0 C 0,0 km/h (0 Bft)
05.07.2016 02:52 11,9 C 11,9 C 95 % 1016,6 hPa 0,0 mm 0,0 km/h (0 Bft) W 263 0 min 0,000 mm 0,0 UV-I 0 W/m 11,1 C 0,0 km/h (0 Bft)
05.07.2016 02:53 11,9 C 11,9 C 95 % 1016,6 hPa 0,0 mm 0,3 km/h (0 Bft) W 263 0 min 0,000 mm 0,0 UV-I 0 W/m 11,1 C 1,6 km/h (1 Bft)
05.07.2016 02:54 11,9 C 11,9 C 95 % 1016,6 hPa 0,0 mm 0,5 km/h (0 Bft) W 263 0 min 0,000 mm 0,0 UV-I 0 W/m 11,1 C 1,6 km/h (1 Bft)
05.07.2016 02:55 11,9 C 11,9 C 95 % 1016,6 hPa 0,0 mm 0,0 km/h (0 Bft) W 263 0 min 0,000 mm 0,0 UV-I 0 W/m 11,1 C 0,0 km/h (0 Bft)
05.07.2016 02:56 11,9 C 11,9 C 95 % 1016,6 hPa 0,0 mm 0,5 km/h (0 Bft) W 263 0 min 0,000 mm 0,0 UV-I 0 W/m 11,1 C 1,6 km/h (1 Bft)
05.07.2016 02:57 11,8 C 11,9 C 94 % 1016,6 hPa 0,0 mm 0,2 km/h (0 Bft) W 263 0 min 0,000 mm 0,0 UV-I 0 W/m 10,9 C 1,6 km/h (1 Bft)
05.07.2016 02:58 11,8 C 11,8 C 95 % 1016,6 hPa 0,0 mm 0,0 km/h (0 Bft) W 263 0 min 0,000 mm 0,0 UV-I 0 W/m 11,0 C 0,0 km/h (0 Bft)
05.07.2016 02:59 11,8 C 11,8 C 95 % 1016,6 hPa 0,0 mm 0,1 km/h (0 Bft) W 263 0 min 0,000 mm 0,0 UV-I 0 W/m 11,0 C 1,6 km/h (1 Bft)
05.07.2016 03:00 11,8 C 11,8 C 95 % 1016,6 hPa 0,0 mm 0,0 km/h (0 Bft) W 263 0 min 0,000 mm 0,0 UV-I 0 W/m 11,0 C 0,0 km/h (0 Bft)
05.07.2016 03:01 11,8 C 11,8 C 95 % 1016,6 hPa 0,0 mm 0,0 km/h (0 Bft) W 263 0 min 0,000 mm 0,0 UV-I 0 W/m 11,0 C 0,0 km/h (0 Bft)
05.07.2016 03:02 11,8 C 11,8 C 95 % 1016,5 hPa 0,0 mm 0,0 km/h (0 Bft) W 263 0 min 0,000 mm 0,0 UV-I 0 W/m 11,0 C 0,0 km/h (0 Bft)
05.07.2016 03:03 11,8 C 11,8 C 95 % 1016,4 hPa 0,0 mm 0,0 km/h (0 Bft) W 263 0 min 0,000 mm 0,0 UV-I 0 W/m 11,0 C 0,0 km/h (0 Bft)
05.07.2016 03:04 11,8 C 11,8 C 95 % 1016,5 hPa 0,0 mm 0,0 km/h (0 Bft) W 263 0 min 0,000 mm 0,0 UV-I 0 W/m 11,0 C 0,0 km/h (0 Bft)
05.07.2016 03:05 11,8 C 11,8 C 95 % 1016,4 hPa 0,0 mm 0,1 km/h (0 Bft) W 263 0 min 0,000 mm 0,0 UV-I 0 W/m 11,0 C 1,6 km/h (1 Bft)
05.07.2016 03:06 11,8 C 11,8 C 95 % 1016,4 hPa 0,0 mm 0,0 km/h (0 Bft) W 263 0 min 0,000 mm 0,0 UV-I 0 W/m 11,0 C 0,0 km/h (0 Bft)
05.07.2016 03:07 11,8 C 11,8 C 95 % 1016,5 hPa 0,0 mm 0,0 km/h (0 Bft) W 263 0 min 0,000 mm 0,0 UV-I 0 W/m 11,0 C 0,0 km/h (0 Bft)
05.07.2016 03:08 11,8 C 11,8 C 94 % 1016,4 hPa 0,0 mm 0,2 km/h (0 Bft) W 263 0 min 0,000 mm 0,0 UV-I 0 W/m 10,9 C 1,6 km/h (1 Bft)
05.07.2016 03:09 11,7 C 11,8 C 94 % 1016,4 hPa 0,0 mm 1,0 km/h (0 Bft) W 263 0 min 0,000 mm 0,0 UV-I 0 W/m 10,8 C 1,6 km/h (1 Bft)
05.07.2016 03:10 11,6 C 11,7 C 94 % 1016,4 hPa 0,0 mm 0,5 km/h (0 Bft) W 263 0 min 0,000 mm 0,0 UV-I 0 W/m 10,7 C 1,6 km/h (1 Bft)
05.07.2016 03:11 11,6 C 11,6 C 94 % 1016,4 hPa 0,0 mm 0,1 km/h (0 Bft) W 263 0 min 0,000 mm 0,0 UV-I 0 W/m 10,7 C 1,6 km/h (1 Bft)
05.07.2016 03:12 11,4 C 11,6 C 94 % 1016,4 hPa 0,0 mm 0,2 km/h (0 Bft) W 263 0 min 0,000 mm 0,0 UV-I 0 W/m 10,5 C 1,6 km/h (1 Bft)
05.07.2016 03:13 11,4 C 11,4 C 94 % 1016,4 hPa 0,0 mm 0,0 km/h (0 Bft) W 263 0 min 0,000 mm 0,0 UV-I 0 W/m 10,5 C 0,0 km/h (0 Bft)
05.07.2016 03:14 11,3 C 11,4 C 94 % 1016,4 hPa 0,0 mm 0,0 km/h (0 Bft) W 263 0 min 0,000 mm 0,0 UV-I 0 W/m 10,4 C 0,0 km/h (0 Bft)
05.07.2016 03:15 11,3 C 11,3 C 94 % 1016,5 hPa 0,0 mm 0,1 km/h (0 Bft) W 263 0 min 0,000 mm 0,0 UV-I 0 W/m 10,4 C 1,6 km/h (1 Bft)
05.07.2016 03:16 11,2 C 11,3 C 94 % 1016,4 hPa 0,0 mm 0,5 km/h (0 Bft) W 263 0 min 0,000 mm 0,0 UV-I 0 W/m 10,3 C 1,6 km/h (1 Bft)
05.07.2016 03:17 11,2 C 11,2 C 94 % 1016,4 hPa 0,0 mm 0,3 km/h (0 Bft) W 263 0 min 0,000 mm 0,0 UV-I 0 W/m 10,3 C 1,6 km/h (1 Bft)
05.07.2016 03:18 11,2 C 11,2 C 95 % 1016,4 hPa 0,0 mm 0,0 km/h (0 Bft) W 263 0 min 0,000 mm 0,0 UV-I 0 W/m 10,4 C 0,0 km/h (0 Bft)
05.07.2016 03:19 11,1 C 11,2 C 95 % 1016,4 hPa 0,0 mm 0,0 km/h (0 Bft) W 263 0 min 0,000 mm 0,0 UV-I 0 W/m 10,3 C 0,0 km/h (0 Bft)
05.07.2016 03:20 11,1 C 11,2 C 95 % 1016,3 hPa 0,0 mm 0,0 km/h (0 Bft) W 263 0 min 0,000 mm 0,0 UV-I 0 W/m 10,3 C 0,0 km/h (0 Bft)
05.07.2016 03:21 11,2 C 11,2 C 95 % 1016,3 hPa 0,0 mm 0,2 km/h (0 Bft) W 263 0 min 0,000 mm 0,0 UV-I 0 W/m 10,4 C 1,6 km/h (1 Bft)
05.07.2016 03:22 11,2 C 11,2 C 95 % 1016,3 hPa 0,0 mm 0,6 km/h (0 Bft) W 263 0 min 0,000 mm 0,0 UV-I 0 W/m 10,4 C 1,6 km/h (1 Bft)
05.07.2016 03:23 11,2 C 11,2 C 96 % 1016,3 hPa 0,0 mm 0,3 km/h (0 Bft) W 263 0 min 0,000 mm 0,0 UV-I 0 W/m 10,6 C 1,6 km/h (1 Bft)
05.07.2016 03:24 11,2 C 11,2 C 96 % 1016,2 hPa 0,0 mm 0,0 km/h (0 Bft) W 263 0 min 0,000 mm 0,0 UV-I 0 W/m 10,6 C 0,0 km/h (0 Bft)
05.07.2016 03:25 11,2 C 11,2 C 96 % 1016,3 hPa 0,0 mm 0,0 km/h (0 Bft) W 263 0 min 0,000 mm 0,0 UV-I 0 W/m 10,6 C 0,0 km/h (0 Bft)
05.07.2016 03:26 11,3 C 11,3 C 96 % 1016,4 hPa 0,0 mm 0,0 km/h (0 Bft) W 263 0 min 0,000 mm 0,0 UV-I 0 W/m 10,7 C 0,0 km/h (0 Bft)
05.07.2016 03:27 11,3 C 11,3 C 96 % 1016,4 hPa 0,0 mm 0,8 km/h (0 Bft) W 263 0 min 0,000 mm 0,0 UV-I 0 W/m 10,7 C 1,6 km/h (1 Bft)
05.07.2016 03:28 11,5 C 11,5 C 96 % 1016,3 hPa 0,0 mm 0,5 km/h (0 Bft) W 263 0 min 0,000 mm 0,0 UV-I 0 W/m 10,9 C 1,6 km/h (1 Bft)
05.07.2016 03:29 11,7 C 11,7 C 96 % 1016,3 hPa 0,0 mm 0,6 km/h (0 Bft) W 261 0 min 0,000 mm 0,0 UV-I 0 W/m 11,1 C 1,6 km/h (1 Bft)
05.07.2016 03:30 11,8 C 11,8 C 96 % 1016,3 hPa 0,0 mm 0,3 km/h (0 Bft) W 261 0 min 0,000 mm 0,0 UV-I 0 W/m 11,2 C 1,6 km/h (1 Bft)
05.07.2016 03:31 11,9 C 11,9 C 96 % 1016,3 hPa 0,0 mm 0,1 km/h (0 Bft) W 261 0 min 0,000 mm 0,0 UV-I 0 W/m 11,3 C 1,6 km/h (1 Bft)
05.07.2016 03:32 12,1 C 12,1 C 96 % 1016,2 hPa 0,0 mm 0,0 km/h (0 Bft) W 261 0 min 0,000 mm 0,0 UV-I 0 W/m 11,5 C 0,0 km/h (0 Bft)
05.07.2016 03:33 12,1 C 12,1 C 96 % 1016,2 hPa 0,0 mm 0,1 km/h (0 Bft) W 261 0 min 0,000 mm 0,0 UV-I 0 W/m 11,5 C 1,6 km/h (1 Bft)
05.07.2016 03:34 12,1 C 12,1 C 96 % 1016,2 hPa 0,0 mm 1,0 km/h (0 Bft) NW 315 0 min 0,000 mm 0,0 UV-I 0 W/m 11,5 C 3,2 km/h (1 Bft)
05.07.2016 03:35 12,2 C 12,2 C 96 % 1016,2 hPa 0,0 mm 1,4 km/h (1 Bft) NW 313 0 min 0,000 mm 0,0 UV-I 0 W/m 11,6 C 3,2 km/h (1 Bft)
05.07.2016 03:36 12,2 C 12,2 C 95 % 1016,2 hPa 0,0 mm 0,5 km/h (0 Bft) NW 324 0 min 0,000 mm 0,0 UV-I 0 W/m 11,4 C 1,6 km/h (1 Bft)
05.07.2016 03:37 12,3 C 12,3 C 95 % 1016,2 hPa 0,0 mm 0,2 km/h (0 Bft) NW 324 0 min 0,000 mm 0,0 UV-I 0 W/m 11,5 C 1,6 km/h (1 Bft)
05.07.2016 03:38 12,3 C 12,4 C 95 % 1016,2 hPa 0,0 mm 0,3 km/h (0 Bft) NW 324 0 min 0,000 mm 0,0 UV-I 0 W/m 11,5 C 1,6 km/h (1 Bft)
05.07.2016 03:39 12,4 C 12,4 C 94 % 1016,2 hPa 0,0 mm 0,1 km/h (0 Bft) NW 324 0 min 0,000 mm 0,0 UV-I 0 W/m 11,5 C 1,6 km/h (1 Bft)
05.07.2016 03:40 12,4 C 12,4 C 95 % 1016,2 hPa 0,0 mm 0,3 km/h (0 Bft) NW 324 0 min 0,000 mm 0,0 UV-I 0 W/m 11,6 C 1,6 km/h (1 Bft)
05.07.2016 03:41 12,4 C 12,4 C 94 % 1016,2 hPa 0,0 mm 0,0 km/h (0 Bft) NW 324 0 min 0,000 mm 0,0 UV-I 0 W/m 11,5 C 0,0 km/h (0 Bft)
05.07.2016 03:42 12,4 C 12,4 C 94 % 1016,2 hPa 0,0 mm 0,0 km/h (0 Bft) NW 324 0 min 0,000 mm 0,0 UV-I 0 W/m 11,5 C 0,0 km/h (0 Bft)
05.07.2016 03:43 12,4 C 12,4 C 95 % 1016,2 hPa 0,0 mm 1,5 km/h (1 Bft) S-SW 211 0 min 0,000 mm 0,0 UV-I 0 W/m 11,6 C 3,2 km/h (1 Bft)
05.07.2016 03:44 12,4 C 12,4 C 95 % 1016,2 hPa 0,0 mm 0,2 km/h (0 Bft) S-SW 211 0 min 0,000 mm 0,0 UV-I 0 W/m 11,6 C 1,6 km/h (1 Bft)
05.07.2016 03:45 12,4 C 12,4 C 94 % 1016,2 hPa 0,0 mm 0,1 km/h (0 Bft) S-SW 211 0 min 0,000 mm 0,0 UV-I 0 W/m 11,5 C 1,6 km/h (1 Bft)
05.07.2016 03:46 12,4 C 12,4 C 94 % 1016,2 hPa 0,0 mm 0,0 km/h (0 Bft) S-SW 211 0 min 0,000 mm 0,0 UV-I 0 W/m 11,5 C 0,0 km/h (0 Bft)
05.07.2016 03:47 12,4 C 12,4 C 94 % 1016,2 hPa 0,0 mm 0,0 km/h (0 Bft) S-SW 211 0 min 0,000 mm 0,0 UV-I 0 W/m 11,5 C 0,0 km/h (0 Bft)
05.07.2016 03:48 12,4 C 12,4 C 94 % 1016,2 hPa 0,0 mm 0,3 km/h (0 Bft) S-SW 211 0 min 0,000 mm 0,0 UV-I 0 W/m 11,5 C 1,6 km/h (1 Bft)
05.07.2016 03:49 12,4 C 12,4 C 93 % 1016,2 hPa 0,0 mm 0,3 km/h (0 Bft) W-NW 288 0 min 0,000 mm 0,0 UV-I 0 W/m 11,3 C 1,6 km/h (1 Bft)
05.07.2016 03:50 12,4 C 12,4 C 94 % 1016,2 hPa 0,0 mm 0,9 km/h (0 Bft) W-NW 288 0 min 0,000 mm 0,0 UV-I 0 W/m 11,5 C 1,6 km/h (1 Bft)
05.07.2016 03:51 12,4 C 12,4 C 94 % 1016,2 hPa 0,0 mm 0,0 km/h (0 Bft) W-NW 288 0 min 0,000 mm 0,0 UV-I 0 W/m 11,5 C 0,0 km/h (0 Bft)
05.07.2016 03:52 12,4 C 12,4 C 94 % 1016,2 hPa 0,0 mm 0,0 km/h (0 Bft) W-NW 288 0 min 0,000 mm 0,0 UV-I 0 W/m 11,5 C 0,0 km/h (0 Bft)
05.07.2016 03:53 12,4 C 12,4 C 93 % 1016,2 hPa 0,0 mm 0,0 km/h (0 Bft) W-NW 288 0 min 0,000 mm 0,0 UV-I 0 W/m 11,3 C 0,0 km/h (0 Bft)
05.07.2016 03:54 12,4 C 12,4 C 94 % 1016,2 hPa 0,0 mm 0,2 km/h (0 Bft) W-NW 288 0 min 0,000 mm 0,0 UV-I 0 W/m 11,5 C 1,6 km/h (1 Bft)
05.07.2016 03:55 12,4 C 12,4 C 93 % 1016,2 hPa 0,0 mm 0,9 km/h (0 Bft) W-NW 288 0 min 0,000 mm 0,0 UV-I 0 W/m 11,3 C 1,6 km/h (1 Bft)
05.07.2016 03:56 12,3 C 12,4 C 92 % 1016,1 hPa 0,0 mm 0,6 km/h (0 Bft) W-NW 288 0 min 0,000 mm 0,0 UV-I 0 W/m 11,0 C 1,6 km/h (1 Bft)
05.07.2016 03:57 12,3 C 12,3 C 92 % 1016,1 hPa 0,0 mm 0,3 km/h (0 Bft) W-NW 288 0 min 0,000 mm 0,0 UV-I 0 W/m 11,0 C 1,6 km/h (1 Bft)
05.07.2016 03:58 12,2 C 12,3 C 93 % 1016,1 hPa 0,0 mm 0,9 km/h (0 Bft) W-NW 288 0 min 0,000 mm 0,0 UV-I 0 W/m 11,1 C 1,6 km/h (1 Bft)
05.07.2016 03:59 12,2 C 12,2 C 92 % 1016,1 hPa 0,0 mm 0,5 km/h (0 Bft) W-NW 288 0 min 0,000 mm 0,0 UV-I 0 W/m 10,9 C 1,6 km/h (1 Bft)
05.07.2016 04:00 12,1 C 12,2 C 92 % 1016,1 hPa 0,0 mm 0,5 km/h (0 Bft) W-NW 288 0 min 0,000 mm 0,0 UV-I 0 W/m 10,8 C 1,6 km/h (1 Bft)
05.07.2016 04:01 12,1 C 12,1 C 93 % 1016,1 hPa 0,0 mm 0,6 km/h (0 Bft) W-NW 288 0 min 0,000 mm 0,0 UV-I 0 W/m 11,0 C 1,6 km/h (1 Bft)
05.07.2016 04:02 12,0 C 12,1 C 93 % 1016,1 hPa 0,0 mm 0,6 km/h (0 Bft) W-NW 288 0 min 0,000 mm 0,0 UV-I 0 W/m 10,9 C 1,6 km/h (1 Bft)
05.07.2016 04:03 11,9 C 12,1 C 93 % 1016,1 hPa 0,0 mm 0,0 km/h (0 Bft) W-NW 288 0 min 0,000 mm 0,0 UV-I 0 W/m 10,8 C 0,0 km/h (0 Bft)
05.07.2016 04:04 11,9 C 11,9 C 93 % 1016,1 hPa 0,0 mm 0,0 km/h (0 Bft) W-NW 288 0 min 0,000 mm 0,0 UV-I 0 W/m 10,8 C 0,0 km/h (0 Bft)
05.07.2016 04:05 11,8 C 11,9 C 93 % 1016,0 hPa 0,0 mm 0,0 km/h (0 Bft) W-NW 288 0 min 0,000 mm 0,0 UV-I 0 W/m 10,7 C 0,0 km/h (0 Bft)
05.07.2016 04:06 11,8 C 11,8 C 93 % 1016,0 hPa 0,0 mm 0,0 km/h (0 Bft) W-NW 288 0 min 0,000 mm 0,0 UV-I 0 W/m 10,7 C 0,0 km/h (0 Bft)
05.07.2016 04:07 11,7 C 11,8 C 93 % 1016,0 hPa 0,0 mm 0,0 km/h (0 Bft) W-NW 288 0 min 0,000 mm 0,0 UV-I 0 W/m 10,6 C 0,0 km/h (0 Bft)
05.07.2016 04:08 11,7 C 11,7 C 93 % 1016,0 hPa 0,0 mm 0,1 km/h (0 Bft) W-NW 288 0 min 0,000 mm 0,0 UV-I 0 W/m 10,6 C 1,6 km/h (1 Bft)
05.07.2016 04:09 11,6 C 11,7 C 94 % 1016,0 hPa 0,0 mm 0,3 km/h (0 Bft) W-NW 288 0 min 0,000 mm 0,0 UV-I 0 W/m 10,7 C 1,6 km/h (1 Bft)
05.07.2016 04:10 11,6 C 11,6 C 94 % 1016,0 hPa 0,0 mm 0,1 km/h (0 Bft) W-NW 288 0 min 0,000 mm 0,0 UV-I 0 W/m 10,7 C 1,6 km/h (1 Bft)
05.07.2016 04:11 11,6 C 11,6 C 94 % 1016,0 hPa 0,0 mm 0,0 km/h (0 Bft) W-NW 288 0 min 0,000 mm 0,0 UV-I 0 W/m 10,7 C 0,0 km/h (0 Bft)
05.07.2016 04:12 11,5 C 11,6 C 94 % 1015,9 hPa 0,0 mm 0,0 km/h (0 Bft) W-NW 288 0 min 0,000 mm 0,0 UV-I 0 W/m 10,6 C 0,0 km/h (0 Bft)
05.07.2016 04:13 11,4 C 11,5 C 94 % 1015,9 hPa 0,0 mm 0,0 km/h (0 Bft) W-NW 288 0 min 0,000 mm 0,0 UV-I 0 W/m 10,5 C 0,0 km/h (0 Bft)
05.07.2016 04:14 11,4 C 11,5 C 94 % 1015,9 hPa 0,0 mm 0,1 km/h (0 Bft) W-NW 288 0 min 0,000 mm 0,0 UV-I 0 W/m 10,5 C 1,6 km/h (1 Bft)
05.07.2016 04:15 11,4 C 11,4 C 94 % 1015,9 hPa 0,0 mm 0,0 km/h (0 Bft) W-NW 288 0 min 0,000 mm 0,0 UV-I 0 W/m 10,5 C 0,0 km/h (0 Bft)
05.07.2016 04:16 11,4 C 11,4 C 95 % 1015,9 hPa 0,0 mm 0,0 km/h (0 Bft) W-NW 288 0 min 0,000 mm 0,0 UV-I 0 W/m 10,6 C 0,0 km/h (0 Bft)
05.07.2016 04:17 11,3 C 11,4 C 95 % 1015,9 hPa 0,0 mm 0,0 km/h (0 Bft) W-NW 288 0 min 0,000 mm 0,0 UV-I 0 W/m 10,5 C 0,0 km/h (0 Bft)
05.07.2016 04:18 11,4 C 11,4 C 95 % 1015,9 hPa 0,0 mm 0,0 km/h (0 Bft) W-NW 288 0 min 0,000 mm 0,0 UV-I 0 W/m 10,6 C 0,0 km/h (0 Bft)
05.07.2016 04:19 11,3 C 11,4 C 95 % 1015,9 hPa 0,0 mm 0,0 km/h (0 Bft) W-NW 288 0 min 0,000 mm 0,0 UV-I 0 W/m 10,5 C 0,0 km/h (0 Bft)
05.07.2016 04:20 11,3 C 11,3 C 94 % 1015,8 hPa 0,0 mm 0,0 km/h (0 Bft) W-NW 288 0 min 0,000 mm 0,0 UV-I 0 W/m 10,4 C 0,0 km/h (0 Bft)
05.07.2016 04:21 11,3 C 11,3 C 95 % 1015,8 hPa 0,0 mm 0,0 km/h (0 Bft) W-NW 288 0 min 0,000 mm 0,0 UV-I 0 W/m 10,5 C 0,0 km/h (0 Bft)
05.07.2016 04:22 11,3 C 11,3 C 95 % 1015,8 hPa 0,0 mm 0,0 km/h (0 Bft) W-NW 288 0 min 0,000 mm 0,0 UV-I 0 W/m 10,5 C 0,0 km/h (0 Bft)
05.07.2016 04:23 11,2 C 11,3 C 95 % 1015,8 hPa 0,0 mm 0,0 km/h (0 Bft) W-NW 288 0 min 0,000 mm 0,0 UV-I 0 W/m 10,4 C 0,0 km/h (0 Bft)
05.07.2016 04:24 11,2 C 11,2 C 95 % 1015,8 hPa 0,0 mm 0,0 km/h (0 Bft) W-NW 288 0 min 0,000 mm 0,0 UV-I 0 W/m 10,4 C 0,0 km/h (0 Bft)
05.07.2016 04:25 11,2 C 11,2 C 95 % 1015,8 hPa 0,0 mm 0,0 km/h (0 Bft) W-NW 288 0 min 0,000 mm 0,0 UV-I 0 W/m 10,4 C 0,0 km/h (0 Bft)
05.07.2016 04:26 11,2 C 11,2 C 95 % 1015,8 hPa 0,0 mm 0,0 km/h (0 Bft) W-NW 288 0 min 0,000 mm 0,0 UV-I 0 W/m 10,4 C 0,0 km/h (0 Bft)
05.07.2016 04:27 11,2 C 11,2 C 95 % 1015,8 hPa 0,0 mm 0,0 km/h (0 Bft) W-NW 288 0 min 0,000 mm 0,0 UV-I 0 W/m 10,4 C 0,0 km/h (0 Bft)
05.07.2016 04:28 11,2 C 11,2 C 95 % 1015,8 hPa 0,0 mm 0,0 km/h (0 Bft) W-NW 288 0 min 0,000 mm 0,0 UV-I 0 W/m 10,4 C 0,0 km/h (0 Bft)
05.07.2016 04:29 11,2 C 11,2 C 95 % 1015,8 hPa 0,0 mm 0,0 km/h (0 Bft) W-NW 288 0 min 0,000 mm 0,0 UV-I 0 W/m 10,4 C 0,0 km/h (0 Bft)
05.07.2016 04:30 11,2 C 11,2 C 95 % 1015,8 hPa 0,0 mm 0,0 km/h (0 Bft) W-NW 288 0 min 0,000 mm 0,0 UV-I 0 W/m 10,4 C 0,0 km/h (0 Bft)
05.07.2016 04:31 11,2 C 11,2 C 95 % 1015,9 hPa 0,0 mm 0,0 km/h (0 Bft) W-NW 288 0 min 0,000 mm 0,0 UV-I 0 W/m 10,4 C 0,0 km/h (0 Bft)
05.07.2016 04:32 11,2 C 11,2 C 95 % 1015,9 hPa 0,0 mm 0,2 km/h (0 Bft) W-NW 288 0 min 0,000 mm 0,0 UV-I 0 W/m 10,4 C 1,6 km/h (1 Bft)
05.07.2016 04:33 11,2 C 11,2 C 95 % 1015,9 hPa 0,0 mm 0,0 km/h (0 Bft) W-NW 288 0 min 0,000 mm 0,0 UV-I 0 W/m 10,4 C 0,0 km/h (0 Bft)
05.07.2016 04:34 11,2 C 11,2 C 96 % 1015,9 hPa 0,0 mm 0,0 km/h (0 Bft) W-NW 288 0 min 0,000 mm 0,0 UV-I 0 W/m 10,6 C 0,0 km/h (0 Bft)
05.07.2016 04:35 11,2 C 11,2 C 96 % 1015,9 hPa 0,0 mm 0,0 km/h (0 Bft) W-NW 288 0 min 0,000 mm 0,0 UV-I 0 W/m 10,6 C 0,0 km/h (0 Bft)
05.07.2016 04:36 11,2 C 11,2 C 96 % 1015,9 hPa 0,0 mm 0,2 km/h (0 Bft) W-NW 288 0 min 0,000 mm 0,0 UV-I 0 W/m 10,6 C 1,6 km/h (1 Bft)
05.07.2016 04:37 11,2 C 11,2 C 96 % 1015,9 hPa 0,0 mm 0,3 km/h (0 Bft) W-NW 288 0 min 0,000 mm 0,0 UV-I 0 W/m 10,6 C 1,6 km/h (1 Bft)
05.07.2016 04:38 11,2 C 11,2 C 96 % 1015,9 hPa 0,0 mm 0,3 km/h (0 Bft) W-NW 288 0 min 0,000 mm 0,0 UV-I 0 W/m 10,6 C 1,6 km/h (1 Bft)
05.07.2016 04:39 11,2 C 11,2 C 96 % 1016,0 hPa 0,0 mm 0,0 km/h (0 Bft) W-NW 288 0 min 0,000 mm 0,0 UV-I 0 W/m 10,6 C 0,0 km/h (0 Bft)
05.07.2016 04:40 11,2 C 11,2 C 95 % 1016,0 hPa 0,0 mm 0,0 km/h (0 Bft) W-NW 288 0 min 0,000 mm 0,0 UV-I 0 W/m 10,4 C 0,0 km/h (0 Bft)
05.07.2016 04:41 11,2 C 11,2 C 96 % 1015,9 hPa 0,0 mm 0,0 km/h (0 Bft) W-NW 288 0 min 0,000 mm 0,0 UV-I 0 W/m 10,6 C 0,0 km/h (0 Bft)
05.07.2016 04:42 11,3 C 11,3 C 96 % 1016,0 hPa 0,0 mm 0,1 km/h (0 Bft) W-NW 288 0 min 0,000 mm 0,0 UV-I 0 W/m 10,7 C 1,6 km/h (1 Bft)
05.07.2016 04:43 11,3 C 11,3 C 96 % 1016,0 hPa 0,0 mm 0,0 km/h (0 Bft) W-NW 288 0 min 0,000 mm 0,0 UV-I 0 W/m 10,7 C 0,0 km/h (0 Bft)
05.07.2016 04:44 11,3 C 11,3 C 96 % 1015,9 hPa 0,0 mm 0,0 km/h (0 Bft) W-NW 288 0 min 0,000 mm 0,0 UV-I 0 W/m 10,7 C 0,0 km/h (0 Bft)
05.07.2016 04:45 11,3 C 11,3 C 96 % 1015,9 hPa 0,0 mm 0,3 km/h (0 Bft) W-NW 288 0 min 0,000 mm 0,0 UV-I 0 W/m 10,7 C 1,6 km/h (1 Bft)
05.07.2016 04:46 11,3 C 11,3 C 96 % 1015,9 hPa 0,0 mm 0,2 km/h (0 Bft) W-NW 288 0 min 0,000 mm 0,0 UV-I 0 W/m 10,7 C 1,6 km/h (1 Bft)
05.07.2016 04:47 11,3 C 11,3 C 95 % 1015,9 hPa 0,0 mm 0,0 km/h (0 Bft) W-NW 288 0 min 0,000 mm 0,0 UV-I 0 W/m 10,5 C 0,0 km/h (0 Bft)
05.07.2016 04:48 11,3 C 11,3 C 95 % 1015,9 hPa 0,0 mm 0,0 km/h (0 Bft) W-NW 288 0 min 0,000 mm 0,0 UV-I 0 W/m 10,5 C 0,0 km/h (0 Bft)
05.07.2016 04:49 11,3 C 11,3 C 96 % 1016,0 hPa 0,0 mm 0,0 km/h (0 Bft) W-NW 288 0 min 0,000 mm 0,0 UV-I 0 W/m 10,7 C 0,0 km/h (0 Bft)
05.07.2016 04:50 11,3 C 11,3 C 96 % 1016,0 hPa 0,0 mm 0,1 km/h (0 Bft) W-NW 288 0 min 0,000 mm 0,0 UV-I 0 W/m 10,7 C 1,6 km/h (1 Bft)
05.07.2016 04:51 11,3 C 11,3 C 95 % 1015,9 hPa 0,0 mm 0,0 km/h (0 Bft) W-NW 288 0 min 0,000 mm 0,0 UV-I 0 W/m 10,5 C 0,0 km/h (0 Bft)
05.07.2016 04:52 11,3 C 11,3 C 95 % 1015,9 hPa 0,0 mm 0,0 km/h (0 Bft) W-NW 288 0 min 0,000 mm 0,0 UV-I 0 W/m 10,5 C 0,0 km/h (0 Bft)
05.07.2016 04:53 11,3 C 11,3 C 95 % 1015,9 hPa 0,0 mm 0,0 km/h (0 Bft) W-NW 288 0 min 0,000 mm 0,0 UV-I 0 W/m 10,5 C 0,0 km/h (0 Bft)
05.07.2016 04:54 11,3 C 11,3 C 95 % 1015,9 hPa 0,0 mm 0,1 km/h (0 Bft) W-NW 288 0 min 0,000 mm 0,0 UV-I 0 W/m 10,5 C 1,6 km/h (1 Bft)
05.07.2016 04:55 11,2 C 11,3 C 95 % 1015,9 hPa 0,0 mm 0,0 km/h (0 Bft) W-NW 288 0 min 0,000 mm 0,0 UV-I 0 W/m 10,4 C 0,0 km/h (0 Bft)
05.07.2016 04:56 11,3 C 11,3 C 95 % 1016,0 hPa 0,0 mm 0,1 km/h (0 Bft) W-NW 288 0 min 0,000 mm 0,0 UV-I 0 W/m 10,5 C 1,6 km/h (1 Bft)
05.07.2016 04:57 11,2 C 11,3 C 95 % 1015,9 hPa 0,0 mm 0,0 km/h (0 Bft) W-NW 288 0 min 0,000 mm 0,0 UV-I 0 W/m 10,4 C 0,0 km/h (0 Bft)
05.07.2016 04:58 11,2 C 11,2 C 95 % 1015,9 hPa 0,0 mm 0,0 km/h (0 Bft) W-NW 288 0 min 0,000 mm 0,0 UV-I 0 W/m 10,4 C 0,0 km/h (0 Bft)
05.07.2016 04:59 11,2 C 11,2 C 95 % 1015,9 hPa 0,0 mm 0,0 km/h (0 Bft) W-NW 288 0 min 0,000 mm 0,0 UV-I 0 W/m 10,4 C 0,0 km/h (0 Bft)
05.07.2016 05:00 11,2 C 11,2 C 95 % 1015,9 hPa 0,0 mm 0,0 km/h (0 Bft) W-NW 288 0 min 0,000 mm 0,0 UV-I 0 W/m 10,4 C 0,0 km/h (0 Bft)
05.07.2016 05:01 11,2 C 11,2 C 95 % 1015,9 hPa 0,0 mm 0,0 km/h (0 Bft) W-NW 288 0 min 0,000 mm 0,0 UV-I 0 W/m 10,4 C 0,0 km/h (0 Bft)
05.07.2016 05:02 11,2 C 11,2 C 95 % 1015,9 hPa 0,0 mm 0,7 km/h (0 Bft) W-NW 288 0 min 0,000 mm 0,0 UV-I 0 W/m 10,4 C 3,2 km/h (1 Bft)
05.07.2016 05:03 11,2 C 11,2 C 95 % 1015,9 hPa 0,0 mm 0,2 km/h (0 Bft) W-NW 288 0 min 0,000 mm 0,0 UV-I 0 W/m 10,4 C 1,6 km/h (1 Bft)
05.07.2016 05:04 11,2 C 11,2 C 95 % 1016,0 hPa 0,0 mm 0,4 km/h (0 Bft) W-NW 288 0 min 0,000 mm 0,0 UV-I 0 W/m 10,4 C 1,6 km/h (1 Bft)
05.07.2016 05:05 11,2 C 11,2 C 95 % 1016,0 hPa 0,0 mm 0,3 km/h (0 Bft) W-NW 288 0 min 0,000 mm 0,0 UV-I 0 W/m 10,4 C 1,6 km/h (1 Bft)
05.07.2016 05:06 11,2 C 11,2 C 95 % 1016,0 hPa 0,0 mm 0,0 km/h (0 Bft) W-NW 288 0 min 0,000 mm 0,0 UV-I 0 W/m 10,4 C 0,0 km/h (0 Bft)
05.07.2016 05:07 11,2 C 11,2 C 95 % 1016,0 hPa 0,0 mm 0,0 km/h (0 Bft) W-NW 288 0 min 0,000 mm 0,0 UV-I 0 W/m 10,4 C 0,0 km/h (0 Bft)
05.07.2016 05:08 11,2 C 11,2 C 95 % 1016,0 hPa 0,0 mm 0,0 km/h (0 Bft) W-NW 288 0 min 0,000 mm 0,0 UV-I 0 W/m 10,4 C 0,0 km/h (0 Bft)
05.07.2016 05:09 11,1 C 11,2 C 95 % 1016,0 hPa 0,0 mm 0,0 km/h (0 Bft) W-NW 288 0 min 0,000 mm 0,0 UV-I 0 W/m 10,3 C 0,0 km/h (0 Bft)
05.07.2016 05:10 11,2 C 11,2 C 96 % 1016,0 hPa 0,0 mm 0,0 km/h (0 Bft) W-NW 288 0 min 0,000 mm 0,0 UV-I 0 W/m 10,6 C 0,0 km/h (0 Bft)
05.07.2016 05:11 11,2 C 11,2 C 95 % 1016,0 hPa 0,0 mm 0,0 km/h (0 Bft) W-NW 288 0 min 0,000 mm 0,0 UV-I 0 W/m 10,4 C 0,0 km/h (0 Bft)
05.07.2016 05:12 11,2 C 11,2 C 96 % 1016,0 hPa 0,0 mm 0,0 km/h (0 Bft) W-NW 288 0 min 0,000 mm 0,0 UV-I 0 W/m 10,6 C 0,0 km/h (0 Bft)
05.07.2016 05:13 11,2 C 11,2 C 96 % 1015,9 hPa 0,0 mm 0,0 km/h (0 Bft) W-NW 288 0 min 0,000 mm 0,0 UV-I 0 W/m 10,6 C 0,0 km/h (0 Bft)
05.07.2016 05:14 11,2 C 11,2 C 96 % 1016,0 hPa 0,0 mm 0,0 km/h (0 Bft) W-NW 288 0 min 0,000 mm 0,0 UV-I 0 W/m 10,6 C 0,0 km/h (0 Bft)
05.07.2016 05:15 11,2 C 11,2 C 96 % 1016,1 hPa 0,0 mm 0,0 km/h (0 Bft) W-NW 288 0 min 0,000 mm 0,0 UV-I 0 W/m 10,6 C 0,0 km/h (0 Bft)
05.07.2016 05:16 11,1 C 11,2 C 96 % 1016,0 hPa 0,0 mm 0,0 km/h (0 Bft) W-NW 288 0 min 0,000 mm 0,0 UV-I 0 W/m 10,5 C 0,0 km/h (0 Bft)
05.07.2016 05:17 11,1 C 11,2 C 95 % 1016,0 hPa 0,0 mm 0,0 km/h (0 Bft) W-NW 288 0 min 0,000 mm 0,0 UV-I 0 W/m 10,3 C 0,0 km/h (0 Bft)
05.07.2016 05:18 11,2 C 11,2 C 96 % 1016,0 hPa 0,0 mm 0,0 km/h (0 Bft) W-NW 288 0 min 0,000 mm 0,0 UV-I 0 W/m 10,6 C 0,0 km/h (0 Bft)
05.07.2016 05:19 11,2 C 11,2 C 96 % 1016,0 hPa 0,0 mm 0,0 km/h (0 Bft) W-NW 288 0 min 0,000 mm 0,0 UV-I 0 W/m 10,6 C 0,0 km/h (0 Bft)
05.07.2016 05:20 11,2 C 11,2 C 96 % 1016,0 hPa 0,0 mm 0,0 km/h (0 Bft) W-NW 288 0 min 0,000 mm 0,0 UV-I 0 W/m 10,6 C 0,0 km/h (0 Bft)
05.07.2016 05:21 11,2 C 11,2 C 96 % 1016,0 hPa 0,0 mm 0,0 km/h (0 Bft) W-NW 288 0 min 0,000 mm 0,0 UV-I 0 W/m 10,6 C 0,0 km/h (0 Bft)
05.07.2016 05:22 11,2 C 11,2 C 95 % 1016,0 hPa 0,0 mm 0,0 km/h (0 Bft) W-NW 288 0 min 0,000 mm 0,0 UV-I 0 W/m 10,4 C 0,0 km/h (0 Bft)
05.07.2016 05:23 11,2 C 11,2 C 95 % 1016,0 hPa 0,0 mm 0,0 km/h (0 Bft) W-NW 288 0 min 0,000 mm 0,0 UV-I 0 W/m 10,4 C 0,0 km/h (0 Bft)
05.07.2016 05:24 11,2 C 11,2 C 95 % 1016,0 hPa 0,0 mm 0,0 km/h (0 Bft) W-NW 288 0 min 0,000 mm 0,0 UV-I 0 W/m 10,4 C 0,0 km/h (0 Bft)
05.07.2016 05:25 11,2 C 11,2 C 95 % 1016,0 hPa 0,0 mm 0,0 km/h (0 Bft) W-NW 288 0 min 0,000 mm 0,0 UV-I 5 W/m 10,4 C 0,0 km/h (0 Bft)
05.07.2016 05:26 11,2 C 11,2 C 96 % 1016,1 hPa 0,0 mm 0,0 km/h (0 Bft) W-NW 288 0 min 0,000 mm 0,0 UV-I 5 W/m 10,6 C 0,0 km/h (0 Bft)
05.07.2016 05:27 11,2 C 11,3 C 96 % 1016,1 hPa 0,0 mm 0,0 km/h (0 Bft) W-NW 288 0 min 0,000 mm 0,0 UV-I 5 W/m 10,6 C 0,0 km/h (0 Bft)
05.07.2016 05:28 11,3 C 11,3 C 96 % 1016,1 hPa 0,0 mm 0,0 km/h (0 Bft) W-NW 288 0 min 0,000 mm 0,0 UV-I 5 W/m 10,7 C 0,0 km/h (0 Bft)
05.07.2016 05:29 11,3 C 11,3 C 96 % 1016,1 hPa 0,0 mm 0,0 km/h (0 Bft) W-NW 288 0 min 0,000 mm 0,0 UV-I 5 W/m 10,7 C 0,0 km/h (0 Bft)
05.07.2016 05:30 11,4 C 11,4 C 96 % 1016,1 hPa 0,0 mm 0,0 km/h (0 Bft) W-NW 288 0 min 0,000 mm 0,0 UV-I 7 W/m 10,8 C 0,0 km/h (0 Bft)
05.07.2016 05:31 11,4 C 11,4 C 96 % 1016,1 hPa 0,0 mm 0,0 km/h (0 Bft) W-NW 288 0 min 0,000 mm 0,0 UV-I 9 W/m 10,8 C 0,0 km/h (0 Bft)
05.07.2016 05:32 11,5 C 11,5 C 96 % 1016,1 hPa 0,0 mm 0,0 km/h (0 Bft) W-NW 288 0 min 0,000 mm 0,0 UV-I 9 W/m 10,9 C 0,0 km/h (0 Bft)
05.07.2016 05:33 11,5 C 11,5 C 95 % 1016,1 hPa 0,0 mm 0,0 km/h (0 Bft) W-NW 288 0 min 0,000 mm 0,0 UV-I 11 W/m 10,7 C 0,0 km/h (0 Bft)
05.07.2016 05:34 11,5 C 11,5 C 95 % 1016,2 hPa 0,0 mm 0,0 km/h (0 Bft) W-NW 288 0 min 0,000 mm 0,0 UV-I 11 W/m 10,7 C 0,0 km/h (0 Bft)
05.07.2016 05:35 11,5 C 11,5 C 95 % 1016,2 hPa 0,0 mm 0,0 km/h (0 Bft) W-NW 288 0 min 0,000 mm 0,0 UV-I 11 W/m 10,7 C 0,0 km/h (0 Bft)
05.07.2016 05:36 11,5 C 11,5 C 95 % 1016,2 hPa 0,0 mm 0,0 km/h (0 Bft) W-NW 288 0 min 0,000 mm 0,0 UV-I 11 W/m 10,7 C 0,0 km/h (0 Bft)
05.07.2016 05:37 11,6 C 11,6 C 94 % 1016,2 hPa 0,0 mm 0,0 km/h (0 Bft) W-NW 288 1 min 0,000 mm 0,0 UV-I 12 W/m 10,7 C 0,0 km/h (0 Bft)
05.07.2016 05:38 11,6 C 11,6 C 94 % 1016,1 hPa 0,0 mm 0,0 km/h (0 Bft) W-NW 288 1 min 0,000 mm 0,0 UV-I 12 W/m 10,7 C 0,0 km/h (0 Bft)
05.07.2016 05:39 11,6 C 11,6 C 94 % 1016,1 hPa 0,0 mm 0,0 km/h (0 Bft) W-NW 288 1 min 0,000 mm 0,0 UV-I 12 W/m 10,7 C 0,0 km/h (0 Bft)
05.07.2016 05:40 11,6 C 11,6 C 94 % 1016,1 hPa 0,0 mm 0,0 km/h (0 Bft) W-NW 288 1 min 0,000 mm 0,0 UV-I 12 W/m 10,7 C 0,0 km/h (0 Bft)
05.07.2016 05:41 11,6 C 11,6 C 94 % 1016,1 hPa 0,0 mm 0,0 km/h (0 Bft) W-NW 288 0 min 0,000 mm 0,0 UV-I 12 W/m 10,7 C 0,0 km/h (0 Bft)
05.07.2016 05:42 11,6 C 11,6 C 94 % 1016,1 hPa 0,0 mm 0,0 km/h (0 Bft) W-NW 288 0 min 0,000 mm 0,0 UV-I 11 W/m 10,7 C 0,0 km/h (0 Bft)
05.07.2016 05:43 11,6 C 11,6 C 94 % 1016,1 hPa 0,0 mm 0,0 km/h (0 Bft) W-NW 288 0 min 0,000 mm 0,0 UV-I 12 W/m 10,7 C 0,0 km/h (0 Bft)
05.07.2016 05:44 11,6 C 11,6 C 94 % 1016,1 hPa 0,0 mm 0,0 km/h (0 Bft) W-NW 288 0 min 0,000 mm 0,0 UV-I 12 W/m 10,7 C 0,0 km/h (0 Bft)
05.07.2016 05:45 11,6 C 11,6 C 94 % 1016,1 hPa 0,0 mm 0,0 km/h (0 Bft) W-NW 288 0 min 0,000 mm 0,0 UV-I 12 W/m 10,7 C 0,0 km/h (0 Bft)
05.07.2016 05:46 11,6 C 11,6 C 95 % 1016,1 hPa 0,0 mm 0,0 km/h (0 Bft) W-NW 288 0 min 0,000 mm 0,0 UV-I 12 W/m 10,8 C 0,0 km/h (0 Bft)
05.07.2016 05:47 11,6 C 11,6 C 95 % 1016,1 hPa 0,0 mm 0,0 km/h (0 Bft) W-NW 288 0 min 0,000 mm 0,0 UV-I 14 W/m 10,8 C 0,0 km/h (0 Bft)
05.07.2016 05:48 11,7 C 11,7 C 95 % 1016,1 hPa 0,0 mm 0,0 km/h (0 Bft) W-NW 288 0 min 0,000 mm 0,0 UV-I 14 W/m 10,9 C 0,0 km/h (0 Bft)
05.07.2016 05:49 11,6 C 11,7 C 94 % 1016,1 hPa 0,0 mm 0,0 km/h (0 Bft) W-NW 288 0 min 0,000 mm 0,0 UV-I 14 W/m 10,7 C 0,0 km/h (0 Bft)
05.07.2016 05:50 11,7 C 11,7 C 94 % 1016,1 hPa 0,0 mm 0,0 km/h (0 Bft) W-NW 288 0 min 0,000 mm 0,0 UV-I 14 W/m 10,8 C 0,0 km/h (0 Bft)
05.07.2016 05:51 11,7 C 11,7 C 95 % 1016,1 hPa 0,0 mm 0,0 km/h (0 Bft) W-NW 288 0 min 0,000 mm 0,0 UV-I 16 W/m 10,9 C 0,0 km/h (0 Bft)
05.07.2016 05:52 11,7 C 11,7 C 95 % 1016,1 hPa 0,0 mm 0,0 km/h (0 Bft) W-NW 288 0 min 0,000 mm 0,0 UV-I 16 W/m 10,9 C 0,0 km/h (0 Bft)
05.07.2016 05:53 11,7 C 11,7 C 95 % 1016,1 hPa 0,0 mm 0,0 km/h (0 Bft) W-NW 288 0 min 0,000 mm 0,0 UV-I 18 W/m 10,9 C 0,0 km/h (0 Bft)
05.07.2016 05:54 11,7 C 11,8 C 95 % 1016,2 hPa 0,0 mm 0,0 km/h (0 Bft) W-NW 288 0 min 0,000 mm 0,0 UV-I 18 W/m 10,9 C 0,0 km/h (0 Bft)
05.07.2016 05:55 11,8 C 11,8 C 95 % 1016,2 hPa 0,0 mm 0,0 km/h (0 Bft) W-NW 288 0 min 0,000 mm 0,0 UV-I 18 W/m 11,0 C 0,0 km/h (0 Bft)
05.07.2016 05:56 11,8 C 11,8 C 94 % 1016,1 hPa 0,0 mm 0,0 km/h (0 Bft) W-NW 288 0 min 0,000 mm 0,0 UV-I 18 W/m 10,9 C 0,0 km/h (0 Bft)
05.07.2016 05:57 11,7 C 11,8 C 94 % 1016,1 hPa 0,0 mm 0,0 km/h (0 Bft) W-NW 288 0 min 0,000 mm 0,0 UV-I 19 W/m 10,8 C 0,0 km/h (0 Bft)
05.07.2016 05:58 11,7 C 11,7 C 94 % 1016,2 hPa 0,0 mm 0,0 km/h (0 Bft) W-NW 288 0 min 0,000 mm 0,0 UV-I 19 W/m 10,8 C 0,0 km/h (0 Bft)
05.07.2016 05:59 11,7 C 11,7 C 95 % 1016,1 hPa 0,0 mm 0,0 km/h (0 Bft) W-NW 288 0 min 0,000 mm 0,0 UV-I 18 W/m 10,9 C 0,0 km/h (0 Bft)
05.07.2016 06:00 11,7 C 11,7 C 95 % 1016,1 hPa 0,0 mm 0,0 km/h (0 Bft) W-NW 288 0 min 0,000 mm 0,0 UV-I 19 W/m 10,9 C 0,0 km/h (0 Bft)
05.07.2016 06:01 11,7 C 11,7 C 95 % 1016,0 hPa 0,0 mm 0,0 km/h (0 Bft) W-NW 293 0 min 0,000 mm 0,0 UV-I 21 W/m 10,9 C 0,0 km/h (0 Bft)
05.07.2016 06:02 11,8 C 11,8 C 95 % 1016,0 hPa 0,0 mm 0,0 km/h (0 Bft) W-NW 293 0 min 0,000 mm 0,0 UV-I 25 W/m 11,0 C 0,0 km/h (0 Bft)
05.07.2016 06:03 11,8 C 11,8 C 95 % 1016,0 hPa 0,0 mm 0,0 km/h (0 Bft) W-NW 293 0 min 0,000 mm 0,0 UV-I 25 W/m 11,0 C 0,0 km/h (0 Bft)
05.07.2016 06:04 11,8 C 11,8 C 94 % 1016,0 hPa 0,0 mm 0,0 km/h (0 Bft) W-NW 293 0 min 0,000 mm 0,0 UV-I 26 W/m 10,9 C 0,0 km/h (0 Bft)
05.07.2016 06:05 11,8 C 11,9 C 94 % 1016,0 hPa 0,0 mm 0,0 km/h (0 Bft) W-NW 293 0 min 0,000 mm 0,0 UV-I 37 W/m 10,9 C 0,0 km/h (0 Bft)
05.07.2016 06:06 11,9 C 11,9 C 94 % 1016,0 hPa 0,0 mm 0,0 km/h (0 Bft) W-NW 293 0 min 0,000 mm 0,0 UV-I 42 W/m 11,0 C 0,0 km/h (0 Bft)
05.07.2016 06:07 11,9 C 11,9 C 94 % 1016,1 hPa 0,0 mm 0,0 km/h (0 Bft) W-NW 293 0 min 0,000 mm 0,0 UV-I 44 W/m 11,0 C 0,0 km/h (0 Bft)
05.07.2016 06:08 11,9 C 11,9 C 94 % 1016,1 hPa 0,0 mm 0,0 km/h (0 Bft) W-NW 293 0 min 0,000 mm 0,0 UV-I 46 W/m 11,0 C 0,0 km/h (0 Bft)
05.07.2016 06:09 11,9 C 11,9 C 94 % 1016,1 hPa 0,0 mm 0,0 km/h (0 Bft) W-NW 293 0 min 0,000 mm 0,0 UV-I 47 W/m 11,0 C 0,0 km/h (0 Bft)
05.07.2016 06:10 11,9 C 11,9 C 94 % 1016,1 hPa 0,0 mm 0,0 km/h (0 Bft) W-NW 293 0 min 0,000 mm 0,0 UV-I 49 W/m 11,0 C 0,0 km/h (0 Bft)
05.07.2016 06:11 12,0 C 12,0 C 95 % 1016,0 hPa 0,0 mm 0,0 km/h (0 Bft) W-NW 293 0 min 0,000 mm 0,0 UV-I 53 W/m 11,2 C 0,0 km/h (0 Bft)
05.07.2016 06:12 12,1 C 12,1 C 95 % 1016,0 hPa 0,0 mm 0,0 km/h (0 Bft) W-NW 293 1 min 0,000 mm 0,0 UV-I 56 W/m 11,3 C 0,0 km/h (0 Bft)
05.07.2016 06:13 12,1 C 12,1 C 95 % 1016,0 hPa 0,0 mm 0,0 km/h (0 Bft) W-NW 293 0 min 0,000 mm 0,0 UV-I 56 W/m 11,3 C 0,0 km/h (0 Bft)
05.07.2016 06:14 12,2 C 12,2 C 95 % 1016,0 hPa 0,0 mm 0,0 km/h (0 Bft) W-NW 293 0 min 0,000 mm 0,0 UV-I 46 W/m 11,4 C 0,0 km/h (0 Bft)
05.07.2016 06:15 12,2 C 12,2 C 95 % 1016,0 hPa 0,0 mm 0,0 km/h (0 Bft) W-NW 293 0 min 0,000 mm 0,0 UV-I 44 W/m 11,4 C 0,0 km/h (0 Bft)
05.07.2016 06:16 12,3 C 12,3 C 94 % 1015,9 hPa 0,0 mm 0,0 km/h (0 Bft) W-NW 293 0 min 0,000 mm 0,0 UV-I 60 W/m 11,4 C 0,0 km/h (0 Bft)
05.07.2016 06:17 12,3 C 12,3 C 94 % 1016,0 hPa 0,0 mm 0,0 km/h (0 Bft) W-NW 293 1 min 0,000 mm 0,0 UV-I 65 W/m 11,4 C 0,0 km/h (0 Bft)
05.07.2016 06:18 12,4 C 12,4 C 94 % 1016,0 hPa 0,0 mm 0,0 km/h (0 Bft) W-NW 302 0 min 0,000 mm 0,0 UV-I 63 W/m 11,5 C 0,0 km/h (0 Bft)
05.07.2016 06:19 12,6 C 12,6 C 94 % 1015,9 hPa 0,0 mm 0,0 km/h (0 Bft) W-NW 302 1 min 0,000 mm 0,0 UV-I 70 W/m 11,7 C 0,0 km/h (0 Bft)
05.07.2016 06:20 12,6 C 12,6 C 92 % 1016,0 hPa 0,0 mm 0,7 km/h (0 Bft) NW 310 1 min 0,000 mm 0,0 UV-I 72 W/m 11,3 C 3,2 km/h (1 Bft)
05.07.2016 06:21 12,6 C 12,6 C 92 % 1015,9 hPa 0,0 mm 0,1 km/h (0 Bft) NW 310 1 min 0,000 mm 0,0 UV-I 76 W/m 11,3 C 1,6 km/h (1 Bft)
05.07.2016 06:22 12,6 C 12,7 C 92 % 1015,9 hPa 0,0 mm 0,0 km/h (0 Bft) NW 310 1 min 0,000 mm 0,0 UV-I 76 W/m 11,3 C 0,0 km/h (0 Bft)
05.07.2016 06:23 12,7 C 12,7 C 92 % 1015,9 hPa 0,0 mm 0,7 km/h (0 Bft) NW 310 1 min 0,000 mm 0,0 UV-I 79 W/m 11,4 C 3,2 km/h (1 Bft)
05.07.2016 06:24 12,7 C 12,7 C 92 % 1015,9 hPa 0,0 mm 1,1 km/h (1 Bft) NW 310 1 min 0,000 mm 0,0 UV-I 84 W/m 11,4 C 1,6 km/h (1 Bft)
05.07.2016 06:25 12,8 C 12,8 C 92 % 1015,9 hPa 0,0 mm 0,1 km/h (0 Bft) NW 310 1 min 0,000 mm 0,0 UV-I 88 W/m 11,5 C 1,6 km/h (1 Bft)
05.07.2016 06:26 12,8 C 12,8 C 92 % 1016,0 hPa 0,0 mm 0,0 km/h (0 Bft) NW 310 1 min 0,000 mm 0,0 UV-I 90 W/m 11,5 C 0,0 km/h (0 Bft)
05.07.2016 06:27 12,9 C 12,9 C 92 % 1016,0 hPa 0,0 mm 0,0 km/h (0 Bft) NW 310 1 min 0,000 mm 0,0 UV-I 93 W/m 11,6 C 0,0 km/h (0 Bft)
05.07.2016 06:28 12,9 C 12,9 C 92 % 1015,9 hPa 0,0 mm 0,0 km/h (0 Bft) NW 310 0 min 0,000 mm 0,0 UV-I 42 W/m 11,6 C 0,0 km/h (0 Bft)
05.07.2016 06:29 12,9 C 12,9 C 91 % 1015,9 hPa 0,0 mm 0,0 km/h (0 Bft) NW 310 0 min 0,000 mm 0,0 UV-I 37 W/m 11,5 C 0,0 km/h (0 Bft)
05.07.2016 06:30 12,9 C 12,9 C 91 % 1015,9 hPa 0,0 mm 0,0 km/h (0 Bft) NW 310 0 min 0,000 mm 0,0 UV-I 37 W/m 11,5 C 0,0 km/h (0 Bft)
05.07.2016 06:31 12,9 C 12,9 C 91 % 1015,9 hPa 0,0 mm 0,0 km/h (0 Bft) NW 310 0 min 0,000 mm 0,0 UV-I 30 W/m 11,5 C 0,0 km/h (0 Bft)
05.07.2016 06:32 12,9 C 12,9 C 91 % 1015,9 hPa 0,0 mm 0,0 km/h (0 Bft) NW 310 0 min 0,000 mm 0,0 UV-I 30 W/m 11,5 C 0,0 km/h (0 Bft)
05.07.2016 06:33 12,8 C 12,9 C 91 % 1015,9 hPa 0,0 mm 0,0 km/h (0 Bft) NW 310 0 min 0,000 mm 0,0 UV-I 30 W/m 11,4 C 0,0 km/h (0 Bft)
05.07.2016 06:34 12,8 C 12,9 C 91 % 1015,9 hPa 0,0 mm 0,0 km/h (0 Bft) NW 310 0 min 0,000 mm 0,0 UV-I 32 W/m 11,4 C 0,0 km/h (0 Bft)
05.07.2016 06:35 12,8 C 12,8 C 91 % 1015,9 hPa 0,0 mm 0,0 km/h (0 Bft) NW 310 0 min 0,000 mm 0,0 UV-I 32 W/m 11,4 C 0,0 km/h (0 Bft)
05.07.2016 06:36 12,8 C 12,8 C 92 % 1015,9 hPa 0,0 mm 0,0 km/h (0 Bft) NW 310 0 min 0,000 mm 0,0 UV-I 30 W/m 11,5 C 0,0 km/h (0 Bft)
05.07.2016 06:37 12,8 C 12,8 C 92 % 1016,0 hPa 0,0 mm 0,0 km/h (0 Bft) NW 310 0 min 0,000 mm 0,0 UV-I 32 W/m 11,5 C 0,0 km/h (0 Bft)
05.07.2016 06:38 12,8 C 12,8 C 92 % 1015,9 hPa 0,0 mm 0,0 km/h (0 Bft) NW 310 0 min 0,000 mm 0,0 UV-I 33 W/m 11,5 C 0,0 km/h (0 Bft)
05.07.2016 06:39 12,8 C 12,8 C 92 % 1015,9 hPa 0,0 mm 0,0 km/h (0 Bft) NW 310 0 min 0,000 mm 0,0 UV-I 33 W/m 11,5 C 0,0 km/h (0 Bft)
05.07.2016 06:40 12,8 C 12,8 C 92 % 1015,9 hPa 0,0 mm 0,0 km/h (0 Bft) NW 310 0 min 0,000 mm 0,0 UV-I 33 W/m 11,5 C 0,0 km/h (0 Bft)
05.07.2016 06:41 12,8 C 12,8 C 92 % 1015,9 hPa 0,0 mm 0,0 km/h (0 Bft) NW 310 0 min 0,000 mm 0,0 UV-I 37 W/m 11,5 C 0,0 km/h (0 Bft)
05.07.2016 06:42 12,7 C 12,8 C 92 % 1015,9 hPa 0,0 mm 0,0 km/h (0 Bft) NW 310 1 min 0,000 mm 0,0 UV-I 104 W/m 11,4 C 0,0 km/h (0 Bft)
05.07.2016 06:43 12,7 C 12,7 C 92 % 1015,9 hPa 0,0 mm 0,0 km/h (0 Bft) NW 310 0 min 0,000 mm 0,0 UV-I 74 W/m 11,4 C 0,0 km/h (0 Bft)
05.07.2016 06:44 12,7 C 12,7 C 92 % 1015,9 hPa 0,0 mm 0,0 km/h (0 Bft) NW 310 1 min 0,000 mm 0,0 UV-I 104 W/m 11,4 C 0,0 km/h (0 Bft)
05.07.2016 06:45 12,7 C 12,7 C 93 % 1015,9 hPa 0,0 mm 0,0 km/h (0 Bft) NW 310 1 min 0,000 mm 0,5 UV-I 137 W/m 11,6 C 0,0 km/h (0 Bft)
05.07.2016 06:46 12,8 C 12,8 C 92 % 1015,9 hPa 0,0 mm 0,0 km/h (0 Bft) NW 310 1 min 0,000 mm 0,0 UV-I 114 W/m 11,5 C 0,0 km/h (0 Bft)
05.07.2016 06:47 12,8 C 12,8 C 92 % 1015,9 hPa 0,0 mm 0,0 km/h (0 Bft) NW 310 0 min 0,000 mm 0,5 UV-I 86 W/m 11,5 C 0,0 km/h (0 Bft)
05.07.2016 06:48 12,9 C 12,9 C 93 % 1015,9 hPa 0,0 mm 0,0 km/h (0 Bft) NW 310 0 min 0,000 mm 0,5 UV-I 56 W/m 11,8 C 0,0 km/h (0 Bft)
05.07.2016 06:49 12,9 C 12,9 C 93 % 1015,9 hPa 0,0 mm 0,0 km/h (0 Bft) NW 310 0 min 0,000 mm 0,5 UV-I 107 W/m 11,8 C 0,0 km/h (0 Bft)
05.07.2016 06:50 12,9 C 12,9 C 92 % 1015,8 hPa 0,0 mm 0,0 km/h (0 Bft) NW 310 1 min 0,000 mm 0,5 UV-I 118 W/m 11,6 C 0,0 km/h (0 Bft)
05.07.2016 06:51 12,9 C 12,9 C 92 % 1015,9 hPa 0,0 mm 0,0 km/h (0 Bft) NW 310 1 min 0,000 mm 0,5 UV-I 137 W/m 11,6 C 0,0 km/h (0 Bft)
05.07.2016 06:52 13,1 C 13,1 C 92 % 1015,9 hPa 0,0 mm 0,0 km/h (0 Bft) NW 310 1 min 0,000 mm 0,5 UV-I 127 W/m 11,8 C 0,0 km/h (0 Bft)
05.07.2016 06:53 13,2 C 13,2 C 92 % 1015,9 hPa 0,0 mm 0,0 km/h (0 Bft) NW 310 1 min 0,000 mm 0,5 UV-I 156 W/m 11,9 C 0,0 km/h (0 Bft)
05.07.2016 06:54 13,2 C 13,3 C 92 % 1015,9 hPa 0,0 mm 0,0 km/h (0 Bft) NW 310 1 min 0,000 mm 0,6 UV-I 169 W/m 11,9 C 0,0 km/h (0 Bft)
05.07.2016 06:55 13,3 C 13,3 C 91 % 1015,9 hPa 0,0 mm 0,0 km/h (0 Bft) NW 310 1 min 0,000 mm 0,6 UV-I 172 W/m 11,9 C 0,0 km/h (0 Bft)
05.07.2016 06:56 13,3 C 13,3 C 91 % 1015,9 hPa 0,0 mm 0,0 km/h (0 Bft) NW 310 1 min 0,000 mm 0,6 UV-I 171 W/m 11,9 C 0,0 km/h (0 Bft)
05.07.2016 06:57 13,4 C 13,4 C 91 % 1015,9 hPa 0,0 mm 0,0 km/h (0 Bft) NW 310 1 min 0,000 mm 0,6 UV-I 178 W/m 12,0 C 0,0 km/h (0 Bft)
05.07.2016 06:58 13,4 C 13,4 C 91 % 1015,9 hPa 0,0 mm 0,0 km/h (0 Bft) NW 310 1 min 0,000 mm 0,6 UV-I 185 W/m 12,0 C 0,0 km/h (0 Bft)
05.07.2016 06:59 13,5 C 13,5 C 91 % 1015,8 hPa 0,0 mm 0,0 km/h (0 Bft) NW 310 1 min 0,000 mm 0,6 UV-I 190 W/m 12,1 C 0,0 km/h (0 Bft)
05.07.2016 07:00 13,6 C 13,6 C 92 % 1015,8 hPa 0,0 mm 0,0 km/h (0 Bft) NW 310 1 min 0,051 mm 0,6 UV-I 193 W/m 12,3 C 0,0 km/h (0 Bft)
05.07.2016 07:01 13,8 C 13,8 C 91 % 1015,8 hPa 0,0 mm 0,0 km/h (0 Bft) NW 310 1 min 0,000 mm 0,6 UV-I 185 W/m 12,4 C 0,0 km/h (0 Bft)
05.07.2016 07:02 13,8 C 13,8 C 92 % 1015,8 hPa 0,0 mm 0,8 km/h (0 Bft) NW 311 1 min 0,000 mm 0,6 UV-I 193 W/m 12,5 C 4,8 km/h (1 Bft)
05.07.2016 07:03 13,9 C 13,9 C 91 % 1015,8 hPa 0,0 mm 1,7 km/h (1 Bft) N-NW 329 1 min 0,000 mm 0,6 UV-I 209 W/m 12,5 C 3,2 km/h (1 Bft)
05.07.2016 07:04 14,0 C 14,0 C 92 % 1015,8 hPa 0,0 mm 0,2 km/h (0 Bft) N-NW 329 0 min 0,000 mm 0,6 UV-I 120 W/m 12,7 C 1,6 km/h (1 Bft)
05.07.2016 07:05 14,1 C 14,1 C 91 % 1015,9 hPa 0,0 mm 0,0 km/h (0 Bft) N-NW 329 0 min 0,000 mm 0,6 UV-I 93 W/m 12,7 C 0,0 km/h (0 Bft)
05.07.2016 07:06 14,1 C 14,1 C 91 % 1015,9 hPa 0,0 mm 0,1 km/h (0 Bft) N-NW 329 0 min 0,000 mm 0,6 UV-I 107 W/m 12,7 C 1,6 km/h (1 Bft)
05.07.2016 07:07 14,1 C 14,1 C 91 % 1015,9 hPa 0,0 mm 0,5 km/h (0 Bft) N-NW 329 0 min 0,000 mm 0,6 UV-I 97 W/m 12,7 C 1,6 km/h (1 Bft)
05.07.2016 07:08 14,2 C 14,2 C 91 % 1015,9 hPa 0,0 mm 0,1 km/h (0 Bft) N-NW 329 0 min 0,000 mm 0,7 UV-I 97 W/m 12,8 C 1,6 km/h (1 Bft)
05.07.2016 07:09 14,3 C 14,3 C 90 % 1015,9 hPa 0,0 mm 0,8 km/h (0 Bft) N-NW 329 1 min 0,000 mm 0,7 UV-I 250 W/m 12,7 C 1,6 km/h (1 Bft)
05.07.2016 07:10 14,3 C 14,3 C 91 % 1015,8 hPa 0,0 mm 0,1 km/h (0 Bft) N-NW 329 1 min 0,000 mm 0,7 UV-I 146 W/m 12,8 C 1,6 km/h (1 Bft)
05.07.2016 07:11 14,4 C 14,4 C 90 % 1015,9 hPa 0,0 mm 0,3 km/h (0 Bft) N-NW 329 1 min 0,000 mm 0,7 UV-I 169 W/m 12,8 C 1,6 km/h (1 Bft)
05.07.2016 07:12 14,5 C 14,5 C 89 % 1016,0 hPa 0,0 mm 0,7 km/h (0 Bft) N-NW 329 0 min 0,000 mm 0,7 UV-I 93 W/m 12,7 C 1,6 km/h (1 Bft)
05.07.2016 07:13 14,5 C 14,5 C 90 % 1016,0 hPa 0,0 mm 0,0 km/h (0 Bft) N-NW 329 0 min 0,000 mm 0,7 UV-I 91 W/m 12,9 C 0,0 km/h (0 Bft)
05.07.2016 07:14 14,6 C 14,6 C 89 % 1015,9 hPa 0,0 mm 0,1 km/h (0 Bft) N-NW 329 0 min 0,000 mm 0,7 UV-I 95 W/m 12,8 C 1,6 km/h (1 Bft)
05.07.2016 07:15 14,7 C 14,7 C 92 % 1016,0 hPa 0,0 mm 0,4 km/h (0 Bft) N-NW 329 0 min 0,000 mm 0,7 UV-I 109 W/m 13,4 C 1,6 km/h (1 Bft)
05.07.2016 07:16 14,7 C 14,7 C 91 % 1016,0 hPa 0,0 mm 0,0 km/h (0 Bft) N-NW 329 1 min 0,000 mm 0,8 UV-I 179 W/m 13,2 C 0,0 km/h (0 Bft)
05.07.2016 07:17 14,8 C 14,8 C 92 % 1016,0 hPa 0,0 mm 0,1 km/h (0 Bft) N-NW 329 0 min 0,000 mm 0,7 UV-I 125 W/m 13,5 C 1,6 km/h (1 Bft)
05.07.2016 07:18 14,8 C 14,8 C 91 % 1016,0 hPa 0,0 mm 0,1 km/h (0 Bft) N-NW 329 0 min 0,000 mm 0,7 UV-I 132 W/m 13,3 C 1,6 km/h (1 Bft)
05.07.2016 07:19 14,9 C 14,9 C 92 % 1015,9 hPa 0,0 mm 0,0 km/h (0 Bft) N-NW 329 1 min 0,000 mm 0,8 UV-I 178 W/m 13,6 C 0,0 km/h (0 Bft)
05.07.2016 07:20 15,0 C 15,0 C 90 % 1016,0 hPa 0,0 mm 0,0 km/h (0 Bft) N-NW 329 1 min 0,000 mm 0,8 UV-I 160 W/m 13,4 C 0,0 km/h (0 Bft)
05.07.2016 07:21 15,1 C 15,1 C 89 % 1015,9 hPa 0,0 mm 0,1 km/h (0 Bft) N-NW 329 0 min 0,000 mm 0,8 UV-I 116 W/m 13,3 C 1,6 km/h (1 Bft)
05.07.2016 07:22 15,1 C 15,1 C 90 % 1016,0 hPa 0,0 mm 0,1 km/h (0 Bft) N-NW 329 0 min 0,000 mm 0,8 UV-I 118 W/m 13,5 C 1,6 km/h (1 Bft)
05.07.2016 07:23 15,1 C 15,1 C 90 % 1015,9 hPa 0,0 mm 0,3 km/h (0 Bft) N-NW 329 1 min 0,000 mm 0,8 UV-I 162 W/m 13,5 C 1,6 km/h (1 Bft)
05.07.2016 07:24 15,1 C 15,1 C 89 % 1016,0 hPa 0,0 mm 0,2 km/h (0 Bft) N-NW 329 0 min 0,000 mm 0,8 UV-I 109 W/m 13,3 C 1,6 km/h (1 Bft)
05.07.2016 07:25 15,1 C 15,1 C 91 % 1016,0 hPa 0,0 mm 0,0 km/h (0 Bft) N-NW 329 0 min 0,000 mm 0,8 UV-I 107 W/m 13,6 C 0,0 km/h (0 Bft)
05.07.2016 07:26 15,1 C 15,1 C 90 % 1016,0 hPa 0,0 mm 0,0 km/h (0 Bft) N-NW 329 0 min 0,000 mm 0,8 UV-I 105 W/m 13,5 C 0,0 km/h (0 Bft)
05.07.2016 07:27 15,1 C 15,1 C 88 % 1016,0 hPa 0,0 mm 0,2 km/h (0 Bft) N-NW 329 0 min 0,000 mm 0,8 UV-I 107 W/m 13,1 C 1,6 km/h (1 Bft)
05.07.2016 07:28 15,2 C 15,2 C 90 % 1016,0 hPa 0,0 mm 0,3 km/h (0 Bft) N-NW 329 0 min 0,000 mm 0,8 UV-I 93 W/m 13,6 C 1,6 km/h (1 Bft)
05.07.2016 07:29 15,1 C 15,2 C 90 % 1016,0 hPa 0,0 mm 0,0 km/h (0 Bft) N-NW 329 0 min 0,000 mm 0,9 UV-I 93 W/m 13,5 C 0,0 km/h (0 Bft)
05.07.2016 07:30 15,2 C 15,2 C 88 % 1015,9 hPa 0,0 mm 0,2 km/h (0 Bft) N-NW 329 0 min 0,000 mm 0,8 UV-I 93 W/m 13,2 C 1,6 km/h (1 Bft)
05.07.2016 07:31 15,2 C 15,2 C 87 % 1016,0 hPa 0,0 mm 0,4 km/h (0 Bft) N-NW 329 0 min 0,000 mm 0,8 UV-I 116 W/m 13,0 C 1,6 km/h (1 Bft)
05.07.2016 07:32 15,2 C 15,2 C 87 % 1016,1 hPa 0,0 mm 0,6 km/h (0 Bft) N-NW 329 0 min 0,000 mm 0,8 UV-I 77 W/m 13,0 C 1,6 km/h (1 Bft)
05.07.2016 07:33 15,2 C 15,2 C 89 % 1016,0 hPa 0,0 mm 1,1 km/h (1 Bft) N-NW 329 0 min 0,000 mm 1,0 UV-I 90 W/m 13,4 C 1,6 km/h (1 Bft)
05.07.2016 07:34 15,2 C 15,2 C 86 % 1016,0 hPa 0,0 mm 0,2 km/h (0 Bft) N-NW 329 0 min 0,000 mm 1,0 UV-I 151 W/m 12,9 C 1,6 km/h (1 Bft)
05.07.2016 07:35 15,2 C 15,2 C 87 % 1016,1 hPa 0,0 mm 0,0 km/h (0 Bft) N-NW 329 0 min 0,000 mm 0,9 UV-I 127 W/m 13,0 C 0,0 km/h (0 Bft)
05.07.2016 07:36 15,2 C 15,3 C 86 % 1016,1 hPa 0,0 mm 0,0 km/h (0 Bft) N-NW 329 0 min 0,000 mm 1,0 UV-I 156 W/m 12,9 C 0,0 km/h (0 Bft)
05.07.2016 07:37 15,3 C 15,3 C 86 % 1016,1 hPa 0,0 mm 0,3 km/h (0 Bft) N-NW 329 1 min 0,000 mm 1,0 UV-I 193 W/m 13,0 C 1,6 km/h (1 Bft)
05.07.2016 07:38 15,3 C 15,3 C 87 % 1016,1 hPa 0,0 mm 3,3 km/h (1 Bft) SW 223 0 min 0,000 mm 0,9 UV-I 135 W/m 13,1 C 4,8 km/h (1 Bft)
05.07.2016 07:39 15,4 C 15,4 C 87 % 1016,1 hPa 0,0 mm 1,2 km/h (1 Bft) W-SW 238 0 min 0,000 mm 1,0 UV-I 141 W/m 13,2 C 3,2 km/h (1 Bft)
05.07.2016 07:40 15,4 C 15,4 C 86 % 1016,1 hPa 0,0 mm 0,6 km/h (0 Bft) W-SW 238 0 min 0,000 mm 1,0 UV-I 137 W/m 13,1 C 1,6 km/h (1 Bft)
05.07.2016 07:41 15,4 C 15,4 C 86 % 1016,1 hPa 0,0 mm 0,2 km/h (0 Bft) W-SW 238 1 min 0,000 mm 1,1 UV-I 229 W/m 13,1 C 1,6 km/h (1 Bft)
05.07.2016 07:42 15,4 C 15,4 C 86 % 1016,1 hPa 0,0 mm 1,0 km/h (0 Bft) SW 232 1 min 0,000 mm 1,2 UV-I 320 W/m 13,1 C 3,2 km/h (1 Bft)
05.07.2016 07:43 15,6 C 15,6 C 88 % 1016,2 hPa 0,0 mm 0,8 km/h (0 Bft) S-SW 202 1 min 0,000 mm 1,0 UV-I 320 W/m 13,6 C 3,2 km/h (1 Bft)
05.07.2016 07:44 15,6 C 15,6 C 87 % 1016,1 hPa 0,0 mm 0,1 km/h (0 Bft) S-SW 202 0 min 0,000 mm 1,0 UV-I 128 W/m 13,4 C 1,6 km/h (1 Bft)
05.07.2016 07:45 15,6 C 15,6 C 86 % 1016,2 hPa 0,0 mm 0,3 km/h (0 Bft) S-SW 202 0 min 0,000 mm 1,0 UV-I 125 W/m 13,3 C 1,6 km/h (1 Bft)
05.07.2016 07:46 15,6 C 15,6 C 87 % 1016,1 hPa 0,0 mm 0,4 km/h (0 Bft) S-SW 202 1 min 0,000 mm 1,0 UV-I 207 W/m 13,4 C 1,6 km/h (1 Bft)
05.07.2016 07:47 15,6 C 15,6 C 87 % 1016,1 hPa 0,0 mm 0,2 km/h (0 Bft) S-SW 202 1 min 0,000 mm 1,2 UV-I 218 W/m 13,4 C 1,6 km/h (1 Bft)
05.07.2016 07:48 15,6 C 15,6 C 89 % 1016,0 hPa 0,0 mm 0,1 km/h (0 Bft) S-SW 202 0 min 0,000 mm 1,2 UV-I 141 W/m 13,8 C 1,6 km/h (1 Bft)
05.07.2016 07:49 15,7 C 15,7 C 88 % 1016,0 hPa 0,0 mm 0,0 km/h (0 Bft) S-SW 202 0 min 0,000 mm 1,2 UV-I 141 W/m 13,7 C 0,0 km/h (0 Bft)
05.07.2016 07:50 15,8 C 15,8 C 87 % 1016,0 hPa 0,0 mm 0,2 km/h (0 Bft) S-SW 202 1 min 0,000 mm 1,3 UV-I 316 W/m 13,6 C 1,6 km/h (1 Bft)
05.07.2016 07:51 15,8 C 15,8 C 87 % 1016,0 hPa 0,0 mm 0,9 km/h (0 Bft) SW 234 1 min 0,000 mm 1,4 UV-I 308 W/m 13,6 C 3,2 km/h (1 Bft)
05.07.2016 07:52 15,9 C 15,9 C 88 % 1016,0 hPa 0,0 mm 1,5 km/h (1 Bft) SW 234 1 min 0,000 mm 1,4 UV-I 325 W/m 13,9 C 3,2 km/h (1 Bft)
05.07.2016 07:53 16,0 C 16,0 C 88 % 1016,1 hPa 0,0 mm 0,4 km/h (0 Bft) SW 234 1 min 0,000 mm 1,4 UV-I 334 W/m 14,0 C 1,6 km/h (1 Bft)
05.07.2016 07:54 16,1 C 16,1 C 87 % 1016,0 hPa 0,0 mm 0,1 km/h (0 Bft) SW 234 1 min 0,000 mm 1,4 UV-I 334 W/m 13,9 C 1,6 km/h (1 Bft)
05.07.2016 07:55 16,2 C 16,2 C 87 % 1016,0 hPa 0,0 mm 0,5 km/h (0 Bft) SW 234 1 min 0,000 mm 1,5 UV-I 345 W/m 14,0 C 1,6 km/h (1 Bft)
05.07.2016 07:56 16,2 C 16,2 C 85 % 1016,0 hPa 0,0 mm 0,2 km/h (0 Bft) SW 234 1 min 0,000 mm 1,3 UV-I 345 W/m 13,7 C 1,6 km/h (1 Bft)
05.07.2016 07:57 16,2 C 16,2 C 85 % 1016,0 hPa 0,0 mm 0,4 km/h (0 Bft) SW 234 1 min 0,000 mm 1,5 UV-I 325 W/m 13,7 C 1,6 km/h (1 Bft)
05.07.2016 07:58 16,3 C 16,3 C 85 % 1016,0 hPa 0,0 mm 0,3 km/h (0 Bft) SW 234 1 min 0,000 mm 1,5 UV-I 299 W/m 13,8 C 1,6 km/h (1 Bft)
05.07.2016 07:59 16,4 C 16,4 C 87 % 1016,0 hPa 0,0 mm 0,3 km/h (0 Bft) SW 234 1 min 0,000 mm 1,6 UV-I 339 W/m 14,2 C 1,6 km/h (1 Bft)
05.07.2016 08:00 16,4 C 16,4 C 86 % 1016,0 hPa 0,0 mm 0,0 km/h (0 Bft) SW 234 1 min 0,101 mm 1,6 UV-I 338 W/m 14,1 C 0,0 km/h (0 Bft)
05.07.2016 08:01 16,6 C 16,6 C 87 % 1016,0 hPa 0,0 mm 0,0 km/h (0 Bft) SW 234 1 min 0,000 mm 1,6 UV-I 343 W/m 14,4 C 0,0 km/h (0 Bft)
05.07.2016 08:02 16,7 C 16,7 C 87 % 1016,0 hPa 0,0 mm 0,9 km/h (0 Bft) SW 234 1 min 0,000 mm 1,7 UV-I 336 W/m 14,5 C 1,6 km/h (1 Bft)
05.07.2016 08:03 16,8 C 16,8 C 84 % 1016,0 hPa 0,0 mm 1,9 km/h (1 Bft) SW 229 1 min 0,000 mm 1,7 UV-I 336 W/m 14,1 C 3,2 km/h (1 Bft)
05.07.2016 08:04 16,9 C 16,9 C 85 % 1016,0 hPa 0,0 mm 0,3 km/h (0 Bft) SW 229 1 min 0,000 mm 1,7 UV-I 265 W/m 14,4 C 1,6 km/h (1 Bft)
05.07.2016 08:05 17,0 C 17,0 C 87 % 1016,0 hPa 0,0 mm 0,0 km/h (0 Bft) SW 229 1 min 0,000 mm 1,7 UV-I 360 W/m 14,8 C 0,0 km/h (0 Bft)
05.07.2016 08:06 16,9 C 17,0 C 85 % 1016,0 hPa 0,0 mm 0,6 km/h (0 Bft) SW 229 1 min 0,000 mm 1,6 UV-I 297 W/m 14,4 C 1,6 km/h (1 Bft)
05.07.2016 08:07 16,9 C 16,9 C 85 % 1016,0 hPa 0,0 mm 1,1 km/h (1 Bft) SW 229 1 min 0,000 mm 1,8 UV-I 341 W/m 14,4 C 1,6 km/h (1 Bft)
05.07.2016 08:08 17,0 C 17,0 C 86 % 1016,0 hPa 0,0 mm 0,8 km/h (0 Bft) S-SO 165 1 min 0,000 mm 1,6 UV-I 339 W/m 14,6 C 3,2 km/h (1 Bft)
05.07.2016 08:09 17,2 C 17,2 C 85 % 1016,0 hPa 0,0 mm 0,5 km/h (0 Bft) S-SO 165 1 min 0,000 mm 1,9 UV-I 380 W/m 14,7 C 1,6 km/h (1 Bft)
05.07.2016 08:10 17,4 C 17,4 C 85 % 1015,9 hPa 0,0 mm 0,5 km/h (0 Bft) SO 146 1 min 0,000 mm 1,9 UV-I 376 W/m 14,8 C 1,6 km/h (1 Bft)
05.07.2016 08:11 17,5 C 17,5 C 83 % 1015,9 hPa 0,0 mm 0,0 km/h (0 Bft) SO 146 1 min 0,000 mm 1,7 UV-I 359 W/m 14,6 C 0,0 km/h (0 Bft)
05.07.2016 08:12 17,5 C 17,5 C 82 % 1015,9 hPa 0,0 mm 0,2 km/h (0 Bft) SO 146 1 min 0,000 mm 1,9 UV-I 371 W/m 14,4 C 1,6 km/h (1 Bft)
05.07.2016 08:13 17,6 C 17,6 C 83 % 1015,9 hPa 0,0 mm 0,4 km/h (0 Bft) SO 146 1 min 0,000 mm 2,0 UV-I 385 W/m 14,7 C 1,6 km/h (1 Bft)
05.07.2016 08:14 17,6 C 17,7 C 85 % 1015,9 hPa 0,0 mm 0,2 km/h (0 Bft) SO 146 1 min 0,000 mm 2,0 UV-I 390 W/m 15,0 C 1,6 km/h (1 Bft)
05.07.2016 08:15 17,5 C 17,6 C 83 % 1015,8 hPa 0,0 mm 0,0 km/h (0 Bft) SO 146 1 min 0,000 mm 2,0 UV-I 396 W/m 14,6 C 0,0 km/h (0 Bft)
05.07.2016 08:16 17,4 C 17,5 C 83 % 1015,9 hPa 0,0 mm 0,5 km/h (0 Bft) SO 146 1 min 0,000 mm 2,1 UV-I 403 W/m 14,5 C 1,6 km/h (1 Bft)
05.07.2016 08:17 17,4 C 17,4 C 84 % 1015,8 hPa 0,0 mm 0,9 km/h (0 Bft) SO 146 1 min 0,000 mm 2,1 UV-I 406 W/m 14,7 C 1,6 km/h (1 Bft)
05.07.2016 08:18 17,4 C 17,4 C 85 % 1015,9 hPa 0,0 mm 1,0 km/h (0 Bft) SO 146 1 min 0,000 mm 2,1 UV-I 417 W/m 14,8 C 1,6 km/h (1 Bft)
05.07.2016 08:19 17,5 C 17,5 C 84 % 1015,8 hPa 0,0 mm 0,0 km/h (0 Bft) SO 146 1 min 0,000 mm 2,2 UV-I 425 W/m 14,8 C 0,0 km/h (0 Bft)
05.07.2016 08:20 17,7 C 17,7 C 85 % 1015,8 hPa 0,0 mm 0,0 km/h (0 Bft) SO 146 1 min 0,000 mm 2,2 UV-I 431 W/m 15,1 C 0,0 km/h (0 Bft)
05.07.2016 08:21 17,8 C 17,8 C 83 % 1015,9 hPa 0,0 mm 0,0 km/h (0 Bft) SO 146 1 min 0,000 mm 2,2 UV-I 439 W/m 14,9 C 0,0 km/h (0 Bft)
05.07.2016 08:22 17,8 C 17,8 C 81 % 1015,8 hPa 0,0 mm 0,0 km/h (0 Bft) SO 146 1 min 0,000 mm 2,3 UV-I 448 W/m 14,5 C 0,0 km/h (0 Bft)
05.07.2016 08:23 18,1 C 18,1 C 83 % 1015,8 hPa 0,0 mm 0,0 km/h (0 Bft) SO 146 1 min 0,000 mm 2,3 UV-I 450 W/m 15,2 C 0,0 km/h (0 Bft)
05.07.2016 08:24 18,1 C 18,1 C 85 % 1015,7 hPa 0,0 mm 0,3 km/h (0 Bft) SO 146 1 min 0,000 mm 2,3 UV-I 450 W/m 15,5 C 1,6 km/h (1 Bft)
05.07.2016 08:25 18,2 C 18,2 C 83 % 1015,7 hPa 0,0 mm 0,4 km/h (0 Bft) SO 146 1 min 0,000 mm 2,3 UV-I 450 W/m 15,3 C 1,6 km/h (1 Bft)
05.07.2016 08:26 18,3 C 18,3 C 82 % 1015,7 hPa 0,0 mm 0,7 km/h (0 Bft) SO 146 1 min 0,000 mm 2,4 UV-I 445 W/m 15,2 C 1,6 km/h (1 Bft)
05.07.2016 08:27 18,3 C 18,4 C 82 % 1015,7 hPa 0,0 mm 0,7 km/h (0 Bft) SO 146 1 min 0,000 mm 2,5 UV-I 471 W/m 15,2 C 1,6 km/h (1 Bft)
05.07.2016 08:28 18,4 C 18,4 C 84 % 1015,7 hPa 0,0 mm 1,0 km/h (0 Bft) SO 146 1 min 0,000 mm 2,5 UV-I 494 W/m 15,6 C 1,6 km/h (1 Bft)
05.07.2016 08:29 18,5 C 18,5 C 84 % 1015,8 hPa 0,0 mm 0,3 km/h (0 Bft) SO 146 1 min 0,000 mm 2,6 UV-I 506 W/m 15,7 C 1,6 km/h (1 Bft)
05.07.2016 08:30 18,7 C 18,7 C 80 % 1015,8 hPa 0,0 mm 0,0 km/h (0 Bft) SO 146 1 min 0,000 mm 2,2 UV-I 506 W/m 15,2 C 0,0 km/h (0 Bft)
05.07.2016 08:31 18,9 C 18,9 C 79 % 1015,8 hPa 0,0 mm 0,0 km/h (0 Bft) SO 146 1 min 0,000 mm 2,3 UV-I 327 W/m 15,2 C 0,0 km/h (0 Bft)
05.07.2016 08:32 18,9 C 18,9 C 77 % 1015,8 hPa 0,0 mm 0,0 km/h (0 Bft) SO 146 1 min 0,000 mm 2,1 UV-I 295 W/m 14,8 C 0,0 km/h (0 Bft)
05.07.2016 08:33 18,9 C 19,0 C 76 % 1015,8 hPa 0,0 mm 0,0 km/h (0 Bft) SO 146 1 min 0,000 mm 2,3 UV-I 295 W/m 14,6 C 0,0 km/h (0 Bft)
05.07.2016 08:34 19,1 C 19,1 C 78 % 1015,8 hPa 0,0 mm 0,0 km/h (0 Bft) SO 146 1 min 0,000 mm 2,2 UV-I 429 W/m 15,2 C 0,0 km/h (0 Bft)
05.07.2016 08:35 19,1 C 19,1 C 76 % 1015,8 hPa 0,0 mm 0,0 km/h (0 Bft) SO 146 1 min 0,000 mm 2,2 UV-I 366 W/m 14,8 C 0,0 km/h (0 Bft)
05.07.2016 08:36 19,2 C 19,2 C 76 % 1015,8 hPa 0,0 mm 0,0 km/h (0 Bft) SO 146 1 min 0,000 mm 2,5 UV-I 422 W/m 14,9 C 0,0 km/h (0 Bft)
05.07.2016 08:37 19,2 C 19,2 C 76 % 1015,8 hPa 0,0 mm 1,1 km/h (1 Bft) W-SW 250 1 min 0,000 mm 2,2 UV-I 362 W/m 14,9 C 3,2 km/h (1 Bft)
05.07.2016 08:38 19,2 C 19,2 C 74 % 1015,8 hPa 0,0 mm 3,4 km/h (1 Bft) W 278 1 min 0,000 mm 1,9 UV-I 345 W/m 14,4 C 4,8 km/h (1 Bft)
05.07.2016 08:39 19,2 C 19,2 C 77 % 1015,8 hPa 0,0 mm 2,2 km/h (1 Bft) W 279 1 min 0,000 mm 2,0 UV-I 360 W/m 15,1 C 3,2 km/h (1 Bft)
05.07.2016 08:40 19,1 C 19,2 C 73 % 1015,8 hPa 0,0 mm 1,4 km/h (1 Bft) W 278 1 min 0,000 mm 2,2 UV-I 341 W/m 14,1 C 1,6 km/h (1 Bft)
05.07.2016 08:41 19,1 C 19,2 C 73 % 1015,8 hPa 0,0 mm 1,7 km/h (1 Bft) SW 217 1 min 0,000 mm 1,9 UV-I 341 W/m 14,1 C 3,2 km/h (1 Bft)
05.07.2016 08:42 19,0 C 19,1 C 75 % 1015,8 hPa 0,0 mm 1,6 km/h (1 Bft) SW 228 1 min 0,000 mm 1,8 UV-I 341 W/m 14,5 C 3,2 km/h (1 Bft)
05.07.2016 08:43 18,9 C 19,0 C 74 % 1015,9 hPa 0,0 mm 1,8 km/h (1 Bft) SW 228 1 min 0,000 mm 2,3 UV-I 420 W/m 14,2 C 3,2 km/h (1 Bft)
05.07.2016 08:44 19,0 C 19,0 C 74 % 1015,9 hPa 0,0 mm 2,5 km/h (1 Bft) SW 228 1 min 0,000 mm 2,3 UV-I 336 W/m 14,3 C 3,2 km/h (1 Bft)
05.07.2016 08:45 19,1 C 19,1 C 75 % 1015,8 hPa 0,0 mm 2,6 km/h (1 Bft) W-SW 252 1 min 0,000 mm 1,9 UV-I 336 W/m 14,6 C 3,2 km/h (1 Bft)
05.07.2016 08:46 19,1 C 19,1 C 75 % 1015,8 hPa 0,0 mm 1,9 km/h (1 Bft) W-SW 252 0 min 0,000 mm 1,7 UV-I 190 W/m 14,6 C 3,2 km/h (1 Bft)
05.07.2016 08:47 19,1 C 19,1 C 76 % 1015,8 hPa 0,0 mm 0,7 km/h (0 Bft) W-SW 252 0 min 0,000 mm 1,7 UV-I 179 W/m 14,8 C 1,6 km/h (1 Bft)
05.07.2016 08:48 19,1 C 19,1 C 74 % 1015,8 hPa 0,0 mm 0,3 km/h (0 Bft) W-SW 252 0 min 0,000 mm 1,7 UV-I 172 W/m 14,4 C 1,6 km/h (1 Bft)
05.07.2016 08:49 18,9 C 19,1 C 76 % 1015,9 hPa 0,0 mm 0,9 km/h (0 Bft) W-SW 250 0 min 0,000 mm 1,8 UV-I 197 W/m 14,6 C 1,6 km/h (1 Bft)
05.07.2016 08:50 18,8 C 18,9 C 75 % 1015,9 hPa 0,0 mm 0,3 km/h (0 Bft) W-SW 250 0 min 0,000 mm 1,9 UV-I 204 W/m 14,3 C 1,6 km/h (1 Bft)
05.07.2016 08:51 18,7 C 18,8 C 77 % 1015,9 hPa 0,0 mm 0,8 km/h (0 Bft) W-SW 240 0 min 0,000 mm 2,0 UV-I 227 W/m 14,6 C 1,6 km/h (1 Bft)
05.07.2016 08:52 18,6 C 18,7 C 78 % 1015,9 hPa 0,0 mm 0,9 km/h (0 Bft) SW 222 0 min 0,000 mm 2,2 UV-I 283 W/m 14,7 C 1,6 km/h (1 Bft)
05.07.2016 08:53 18,7 C 18,7 C 79 % 1015,8 hPa 0,0 mm 0,9 km/h (0 Bft) SW 222 1 min 0,000 mm 2,6 UV-I 339 W/m 15,0 C 1,6 km/h (1 Bft)
05.07.2016 08:54 18,6 C 18,7 C 79 % 1015,8 hPa 0,0 mm 0,1 km/h (0 Bft) SW 222 1 min 0,000 mm 2,6 UV-I 339 W/m 14,9 C 1,6 km/h (1 Bft)
05.07.2016 08:55 18,6 C 18,6 C 79 % 1015,8 hPa 0,0 mm 0,3 km/h (0 Bft) SW 222 1 min 0,000 mm 2,5 UV-I 422 W/m 14,9 C 1,6 km/h (1 Bft)
05.07.2016 08:56 18,7 C 18,7 C 78 % 1015,8 hPa 0,0 mm 0,7 km/h (0 Bft) SW 223 1 min 0,000 mm 2,8 UV-I 455 W/m 14,8 C 3,2 km/h (1 Bft)
05.07.2016 08:57 18,8 C 18,8 C 81 % 1015,8 hPa 0,0 mm 0,9 km/h (0 Bft) SW 223 1 min 0,000 mm 2,9 UV-I 429 W/m 15,5 C 1,6 km/h (1 Bft)
05.07.2016 08:58 19,1 C 19,1 C 75 % 1015,8 hPa 0,0 mm 1,1 km/h (1 Bft) SW 223 1 min 0,000 mm 3,0 UV-I 492 W/m 14,6 C 3,2 km/h (1 Bft)
05.07.2016 08:59 19,2 C 19,2 C 73 % 1015,8 hPa 0,0 mm 1,4 km/h (1 Bft) SW 223 1 min 0,000 mm 3,0 UV-I 466 W/m 14,2 C 3,2 km/h (1 Bft)
05.07.2016 09:00 19,4 C 19,4 C 76 % 1015,8 hPa 0,0 mm 2,9 km/h (1 Bft) W-SW 257 1 min 0,000 mm 3,0 UV-I 517 W/m 15,1 C 4,8 km/h (1 Bft)
05.07.2016 09:01 19,6 C 19,6 C 74 % 1015,8 hPa 0,0 mm 2,6 km/h (1 Bft) W 259 1 min 0,203 mm 2,4 UV-I 517 W/m 14,8 C 3,2 km/h (1 Bft)
05.07.2016 09:02 19,7 C 19,7 C 75 % 1015,8 hPa 0,0 mm 1,7 km/h (1 Bft) W 259 1 min 0,001 mm 3,1 UV-I 517 W/m 15,1 C 3,2 km/h (1 Bft)
05.07.2016 09:03 19,7 C 19,7 C 73 % 1015,8 hPa 0,0 mm 3,0 km/h (1 Bft) W 259 1 min 0,000 mm 3,1 UV-I 517 W/m 14,7 C 4,8 km/h (1 Bft)
05.07.2016 09:04 19,8 C 19,8 C 75 % 1015,8 hPa 0,0 mm 1,2 km/h (1 Bft) W 259 1 min 0,000 mm 3,3 UV-I 517 W/m 15,2 C 3,2 km/h (1 Bft)
05.07.2016 09:05 19,8 C 19,8 C 72 % 1015,8 hPa 0,0 mm 2,7 km/h (1 Bft) W-SW 258 1 min 0,000 mm 3,3 UV-I 517 W/m 14,6 C 3,2 km/h (1 Bft)
05.07.2016 09:06 19,9 C 19,9 C 75 % 1015,7 hPa 0,0 mm 2,9 km/h (1 Bft) W 267 1 min 0,000 mm 3,3 UV-I 489 W/m 15,3 C 4,8 km/h (1 Bft)
05.07.2016 09:07 19,9 C 19,9 C 72 % 1015,7 hPa 0,0 mm 1,7 km/h (1 Bft) W 266 1 min 0,000 mm 3,3 UV-I 489 W/m 14,7 C 3,2 km/h (1 Bft)
05.07.2016 09:08 19,9 C 19,9 C 72 % 1015,7 hPa 0,0 mm 2,0 km/h (1 Bft) SW 234 1 min 0,000 mm 3,1 UV-I 489 W/m 14,7 C 3,2 km/h (1 Bft)
05.07.2016 09:09 20,1 C 20,1 C 76 % 1015,7 hPa 0,0 mm 3,2 km/h (1 Bft) W-SW 244 1 min 0,000 mm 3,5 UV-I 489 W/m 15,7 C 4,8 km/h (1 Bft)
05.07.2016 09:10 20,2 C 20,2 C 75 % 1015,7 hPa 0,0 mm 1,7 km/h (1 Bft) W-SW 244 1 min 0,000 mm 3,5 UV-I 563 W/m 15,6 C 3,2 km/h (1 Bft)
05.07.2016 09:11 20,3 C 20,3 C 70 % 1015,7 hPa 0,0 mm 1,9 km/h (1 Bft) W 263 1 min 0,000 mm 3,5 UV-I 580 W/m 14,6 C 3,2 km/h (1 Bft)
05.07.2016 09:12 20,3 C 20,3 C 71 % 1015,7 hPa 0,0 mm 2,1 km/h (1 Bft) NW 304 1 min 0,000 mm 3,5 UV-I 545 W/m 14,9 C 3,2 km/h (1 Bft)
05.07.2016 09:13 20,4 C 20,4 C 67 % 1015,8 hPa 0,0 mm 2,0 km/h (1 Bft) SW 236 1 min 0,000 mm 3,5 UV-I 603 W/m 14,1 C 3,2 km/h (1 Bft)
05.07.2016 09:14 20,6 C 20,6 C 69 % 1015,7 hPa 0,0 mm 3,1 km/h (1 Bft) SW 226 1 min 0,000 mm 3,6 UV-I 591 W/m 14,7 C 4,8 km/h (1 Bft)
05.07.2016 09:15 20,8 C 20,8 C 69 % 1015,8 hPa 0,0 mm 2,3 km/h (1 Bft) W-NW 301 1 min 0,000 mm 3,3 UV-I 503 W/m 14,9 C 4,8 km/h (1 Bft)
05.07.2016 09:16 20,7 C 20,8 C 64 % 1015,7 hPa 0,0 mm 3,4 km/h (1 Bft) W-SW 248 1 min 0,000 mm 3,3 UV-I 485 W/m 13,6 C 4,8 km/h (1 Bft)
05.07.2016 09:17 20,7 C 20,7 C 69 % 1015,7 hPa 0,0 mm 3,1 km/h (1 Bft) W-NW 294 1 min 0,000 mm 3,4 UV-I 561 W/m 14,8 C 6,4 km/h (2 Bft)
05.07.2016 09:18 20,8 C 20,8 C 68 % 1015,7 hPa 0,0 mm 3,3 km/h (1 Bft) SW 223 1 min 0,000 mm 3,3 UV-I 522 W/m 14,7 C 4,8 km/h (1 Bft)
05.07.2016 09:19 20,7 C 20,8 C 62 % 1015,7 hPa 0,0 mm 1,6 km/h (1 Bft) S-SW 206 1 min 0,000 mm 4,0 UV-I 522 W/m 13,2 C 3,2 km/h (1 Bft)
05.07.2016 09:20 20,6 C 20,7 C 65 % 1015,6 hPa 0,0 mm 0,9 km/h (0 Bft) SW 227 1 min 0,000 mm 3,8 UV-I 652 W/m 13,8 C 3,2 km/h (1 Bft)
05.07.2016 09:21 20,7 C 20,7 C 68 % 1015,7 hPa 0,0 mm 4,7 km/h (1 Bft) SW 235 1 min 0,000 mm 3,9 UV-I 663 W/m 14,6 C 6,4 km/h (2 Bft)
05.07.2016 09:22 20,8 C 20,8 C 71 % 1015,6 hPa 0,0 mm 2,3 km/h (1 Bft) SW 236 1 min 0,000 mm 3,8 UV-I 629 W/m 15,3 C 3,2 km/h (1 Bft)
05.07.2016 09:23 20,8 C 20,8 C 67 % 1015,6 hPa 0,0 mm 3,2 km/h (1 Bft) W 262 1 min 0,000 mm 3,3 UV-I 629 W/m 14,4 C 4,8 km/h (1 Bft)
05.07.2016 09:24 20,8 C 20,8 C 67 % 1015,6 hPa 0,0 mm 2,3 km/h (1 Bft) NW 321 1 min 0,000 mm 3,1 UV-I 434 W/m 14,4 C 4,8 km/h (1 Bft)
05.07.2016 09:25 20,8 C 20,8 C 67 % 1015,6 hPa 0,0 mm 5,9 km/h (2 Bft) NW 316 1 min 0,000 mm 3,0 UV-I 457 W/m 14,4 C 9,7 km/h (2 Bft)
05.07.2016 09:26 20,8 C 20,8 C 66 % 1015,6 hPa 0,0 mm 4,0 km/h (1 Bft) W 276 1 min 0,000 mm 3,1 UV-I 434 W/m 14,2 C 6,4 km/h (2 Bft)
05.07.2016 09:27 20,8 C 20,8 C 65 % 1015,6 hPa 0,0 mm 5,9 km/h (2 Bft) W-NW 289 1 min 0,000 mm 2,9 UV-I 454 W/m 14,0 C 6,4 km/h (2 Bft)
05.07.2016 09:28 20,8 C 20,8 C 65 % 1015,6 hPa 0,0 mm 8,1 km/h (2 Bft) W-NW 299 1 min 0,000 mm 2,6 UV-I 454 W/m 14,0 C 11,3 km/h (2 Bft)
05.07.2016 09:29 20,7 C 20,8 C 65 % 1015,6 hPa 0,0 mm 5,1 km/h (1 Bft) W 275 1 min 0,000 mm 2,7 UV-I 357 W/m 13,9 C 11,3 km/h (2 Bft)
05.07.2016 09:30 20,6 C 20,7 C 65 % 1015,6 hPa 0,0 mm 3,2 km/h (1 Bft) W-NW 292 1 min 0,000 mm 2,8 UV-I 355 W/m 13,8 C 4,8 km/h (1 Bft)
05.07.2016 09:31 20,4 C 20,6 C 66 % 1015,6 hPa 0,0 mm 1,5 km/h (1 Bft) NW 321 0 min 0,000 mm 2,5 UV-I 320 W/m 13,8 C 3,2 km/h (1 Bft)
05.07.2016 09:32 20,4 C 20,4 C 66 % 1015,6 hPa 0,0 mm 2,6 km/h (1 Bft) W-NW 296 0 min 0,000 mm 2,4 UV-I 297 W/m 13,8 C 3,2 km/h (1 Bft)
05.07.2016 09:33 20,4 C 20,4 C 66 % 1015,6 hPa 0,0 mm 4,1 km/h (1 Bft) W-NW 290 0 min 0,000 mm 2,4 UV-I 301 W/m 13,8 C 6,4 km/h (2 Bft)
05.07.2016 09:34 20,3 C 20,4 C 66 % 1015,6 hPa 0,0 mm 3,9 km/h (1 Bft) NW 306 0 min 0,000 mm 2,5 UV-I 309 W/m 13,7 C 6,4 km/h (2 Bft)
05.07.2016 09:35 20,3 C 20,3 C 66 % 1015,7 hPa 0,0 mm 5,8 km/h (2 Bft) W-NW 292 0 min 0,000 mm 2,5 UV-I 271 W/m 13,7 C 8,0 km/h (2 Bft)
05.07.2016 09:36 20,3 C 20,3 C 68 % 1015,7 hPa 0,0 mm 4,4 km/h (1 Bft) NW 313 0 min 0,000 mm 2,3 UV-I 255 W/m 14,2 C 9,7 km/h (2 Bft)
05.07.2016 09:37 20,3 C 20,3 C 68 % 1015,7 hPa 0,0 mm 4,9 km/h (1 Bft) N-NW 331 0 min 0,000 mm 2,4 UV-I 274 W/m 14,2 C 8,0 km/h (2 Bft)
05.07.2016 09:38 20,3 C 20,3 C 68 % 1015,7 hPa 0,0 mm 3,3 km/h (1 Bft) W-SW 252 0 min 0,000 mm 2,5 UV-I 302 W/m 14,2 C 4,8 km/h (1 Bft)
05.07.2016 09:39 20,2 C 20,3 C 66 % 1015,8 hPa 0,0 mm 6,2 km/h (2 Bft) W-NW 295 0 min 0,000 mm 2,6 UV-I 315 W/m 13,6 C 9,7 km/h (2 Bft)
05.07.2016 09:40 20,2 C 20,3 C 66 % 1015,8 hPa 0,0 mm 3,3 km/h (1 Bft) W-NW 294 0 min 0,000 mm 2,5 UV-I 288 W/m 13,6 C 4,8 km/h (1 Bft)
05.07.2016 09:41 20,2 C 20,2 C 68 % 1015,7 hPa 0,0 mm 3,0 km/h (1 Bft) W-NW 285 1 min 0,000 mm 2,6 UV-I 352 W/m 14,1 C 4,8 km/h (1 Bft)
05.07.2016 09:42 20,1 C 20,2 C 68 % 1015,7 hPa 0,0 mm 2,4 km/h (1 Bft) W-NW 292 1 min 0,000 mm 2,9 UV-I 438 W/m 14,0 C 4,8 km/h (1 Bft)
05.07.2016 09:43 20,2 C 20,2 C 70 % 1015,7 hPa 0,0 mm 3,8 km/h (1 Bft) NW 304 1 min 0,000 mm 3,1 UV-I 443 W/m 14,5 C 4,8 km/h (1 Bft)
05.07.2016 09:44 20,2 C 20,2 C 69 % 1015,8 hPa 0,0 mm 4,4 km/h (1 Bft) W 281 1 min 0,000 mm 2,9 UV-I 366 W/m 14,3 C 6,4 km/h (2 Bft)
05.07.2016 09:45 20,3 C 20,3 C 69 % 1015,8 hPa 0,0 mm 4,7 km/h (1 Bft) NW 313 1 min 0,000 mm 2,9 UV-I 359 W/m 14,4 C 8,0 km/h (2 Bft)
05.07.2016 09:46 20,3 C 20,3 C 69 % 1015,7 hPa 0,0 mm 3,5 km/h (1 Bft) NW 315 1 min 0,000 mm 3,1 UV-I 388 W/m 14,4 C 4,8 km/h (1 Bft)
05.07.2016 09:47 20,3 C 20,3 C 68 % 1015,7 hPa 0,0 mm 4,5 km/h (1 Bft) NW 315 1 min 0,000 mm 3,2 UV-I 457 W/m 14,2 C 8,0 km/h (2 Bft)
05.07.2016 09:48 20,4 C 20,4 C 71 % 1015,7 hPa 0,0 mm 6,3 km/h (2 Bft) W-NW 301 1 min 0,000 mm 3,4 UV-I 446 W/m 15,0 C 9,7 km/h (2 Bft)
05.07.2016 09:49 20,3 C 20,4 C 69 % 1015,8 hPa 0,0 mm 4,5 km/h (1 Bft) W 271 1 min 0,000 mm 3,4 UV-I 464 W/m 14,4 C 6,4 km/h (2 Bft)
05.07.2016 09:50 20,3 C 20,4 C 65 % 1015,8 hPa 0,0 mm 4,9 km/h (1 Bft) W 279 1 min 0,000 mm 2,9 UV-I 464 W/m 13,5 C 6,4 km/h (2 Bft)
05.07.2016 09:51 20,3 C 20,3 C 68 % 1015,7 hPa 0,0 mm 5,7 km/h (1 Bft) W-NW 294 0 min 0,000 mm 2,8 UV-I 341 W/m 14,2 C 9,7 km/h (2 Bft)
05.07.2016 09:52 20,3 C 20,3 C 67 % 1015,7 hPa 0,0 mm 3,5 km/h (1 Bft) W 263 0 min 0,000 mm 2,9 UV-I 301 W/m 14,0 C 4,8 km/h (1 Bft)
05.07.2016 09:53 20,3 C 20,3 C 65 % 1015,8 hPa 0,0 mm 3,4 km/h (1 Bft) W 273 0 min 0,000 mm 2,7 UV-I 318 W/m 13,5 C 4,8 km/h (1 Bft)
05.07.2016 09:54 20,2 C 20,3 C 67 % 1015,7 hPa 0,0 mm 2,7 km/h (1 Bft) NW 315 0 min 0,000 mm 2,8 UV-I 318 W/m 13,9 C 3,2 km/h (1 Bft)
05.07.2016 09:55 20,2 C 20,2 C 67 % 1015,7 hPa 0,0 mm 3,8 km/h (1 Bft) NW 307 0 min 0,000 mm 3,1 UV-I 346 W/m 13,9 C 6,4 km/h (2 Bft)
05.07.2016 09:56 20,3 C 20,3 C 69 % 1015,7 hPa 0,0 mm 6,2 km/h (2 Bft) W-NW 291 1 min 0,000 mm 3,1 UV-I 381 W/m 14,4 C 9,7 km/h (2 Bft)
05.07.2016 09:57 20,3 C 20,3 C 70 % 1015,8 hPa 0,0 mm 4,0 km/h (1 Bft) NW 308 0 min 0,000 mm 3,0 UV-I 353 W/m 14,6 C 4,8 km/h (1 Bft)
05.07.2016 09:58 20,3 C 20,3 C 68 % 1015,7 hPa 0,0 mm 3,4 km/h (1 Bft) W-NW 292 0 min 0,000 mm 2,9 UV-I 334 W/m 14,2 C 4,8 km/h (1 Bft)
05.07.2016 09:59 20,3 C 20,3 C 70 % 1015,8 hPa 0,0 mm 3,9 km/h (1 Bft) W-NW 302 0 min 0,000 mm 3,2 UV-I 352 W/m 14,6 C 4,8 km/h (1 Bft)
05.07.2016 10:00 20,3 C 20,3 C 69 % 1015,8 hPa 0,0 mm 2,9 km/h (1 Bft) W-NW 290 0 min 0,254 mm 3,3 UV-I 352 W/m 14,4 C 4,8 km/h (1 Bft)
05.07.2016 10:01 20,3 C 20,3 C 69 % 1015,8 hPa 0,0 mm 3,3 km/h (1 Bft) W-NW 286 0 min 0,000 mm 2,9 UV-I 313 W/m 14,4 C 4,8 km/h (1 Bft)
05.07.2016 10:02 20,3 C 20,3 C 67 % 1015,8 hPa 0,0 mm 3,4 km/h (1 Bft) W 269 0 min 0,000 mm 2,9 UV-I 346 W/m 14,0 C 4,8 km/h (1 Bft)
05.07.2016 10:03 20,3 C 20,3 C 71 % 1015,9 hPa 0,0 mm 4,2 km/h (1 Bft) W-NW 290 0 min 0,000 mm 3,1 UV-I 371 W/m 14,9 C 6,4 km/h (2 Bft)
05.07.2016 10:04 20,4 C 20,4 C 69 % 1015,8 hPa 0,0 mm 3,1 km/h (1 Bft) W-NW 302 0 min 0,000 mm 3,0 UV-I 353 W/m 14,5 C 4,8 km/h (1 Bft)
05.07.2016 10:05 20,4 C 20,4 C 70 % 1015,8 hPa 0,0 mm 6,9 km/h (2 Bft) W 277 0 min 0,000 mm 2,9 UV-I 336 W/m 14,7 C 11,3 km/h (2 Bft)
05.07.2016 10:06 20,4 C 20,4 C 69 % 1015,8 hPa 0,0 mm 5,7 km/h (1 Bft) W 275 0 min 0,000 mm 3,1 UV-I 343 W/m 14,5 C 11,3 km/h (2 Bft)
05.07.2016 10:07 20,4 C 20,4 C 69 % 1015,8 hPa 0,0 mm 5,8 km/h (2 Bft) NW 311 0 min 0,000 mm 2,9 UV-I 334 W/m 14,5 C 9,7 km/h (2 Bft)
05.07.2016 10:08 20,3 C 20,4 C 68 % 1015,8 hPa 0,0 mm 4,4 km/h (1 Bft) W-NW 300 0 min 0,000 mm 3,0 UV-I 269 W/m 14,2 C 6,4 km/h (2 Bft)
05.07.2016 10:09 20,3 C 20,3 C 70 % 1015,9 hPa 0,0 mm 4,6 km/h (1 Bft) W 263 0 min 0,000 mm 3,3 UV-I 360 W/m 14,6 C 6,4 km/h (2 Bft)
05.07.2016 10:10 20,3 C 20,3 C 69 % 1015,8 hPa 0,0 mm 5,2 km/h (1 Bft) W 281 0 min 0,000 mm 3,6 UV-I 360 W/m 14,4 C 9,7 km/h (2 Bft)
05.07.2016 10:11 20,3 C 20,3 C 69 % 1015,8 hPa 0,0 mm 4,6 km/h (1 Bft) W-NW 292 1 min 0,000 mm 3,2 UV-I 406 W/m 14,4 C 6,4 km/h (2 Bft)
05.07.2016 10:12 20,4 C 20,4 C 71 % 1015,8 hPa 0,0 mm 3,4 km/h (1 Bft) SW 218 1 min 0,000 mm 4,3 UV-I 406 W/m 15,0 C 4,8 km/h (1 Bft)
05.07.2016 10:13 20,5 C 20,5 C 71 % 1015,8 hPa 0,0 mm 3,0 km/h (1 Bft) W 262 1 min 0,000 mm 3,5 UV-I 406 W/m 15,1 C 4,8 km/h (1 Bft)
05.07.2016 10:14 20,6 C 20,6 C 70 % 1015,8 hPa 0,0 mm 5,9 km/h (2 Bft) W 273 1 min 0,000 mm 4,4 UV-I 406 W/m 14,9 C 9,7 km/h (2 Bft)
05.07.2016 10:15 20,7 C 20,7 C 70 % 1015,8 hPa 0,0 mm 3,6 km/h (1 Bft) NW 304 1 min 0,000 mm 5,2 UV-I 406 W/m 15,0 C 4,8 km/h (1 Bft)
05.07.2016 10:16 20,9 C 20,9 C 74 % 1015,8 hPa 0,0 mm 6,3 km/h (2 Bft) W 278 1 min 0,000 mm 5,3 UV-I 777 W/m 16,1 C 11,3 km/h (2 Bft)
05.07.2016 10:17 21,1 C 21,1 C 68 % 1015,9 hPa 0,0 mm 6,1 km/h (2 Bft) W 267 1 min 0,000 mm 5,4 UV-I 805 W/m 15,0 C 11,3 km/h (2 Bft)
05.07.2016 10:18 21,1 C 21,1 C 68 % 1015,8 hPa 0,0 mm 5,6 km/h (1 Bft) W-SW 251 1 min 0,000 mm 5,5 UV-I 812 W/m 15,0 C 11,3 km/h (2 Bft)
05.07.2016 10:19 21,3 C 21,3 C 71 % 1015,8 hPa 0,0 mm 4,9 km/h (1 Bft) W 271 1 min 0,000 mm 5,6 UV-I 826 W/m 15,8 C 8,0 km/h (2 Bft)
05.07.2016 10:20 21,3 C 21,3 C 70 % 1015,8 hPa 0,0 mm 5,0 km/h (1 Bft) W-NW 300 1 min 0,000 mm 5,5 UV-I 821 W/m 15,6 C 11,3 km/h (2 Bft)
05.07.2016 10:21 21,3 C 21,4 C 65 % 1015,8 hPa 0,0 mm 4,8 km/h (1 Bft) W-NW 303 1 min 0,000 mm 5,4 UV-I 824 W/m 14,4 C 6,4 km/h (2 Bft)
05.07.2016 10:22 21,4 C 21,4 C 70 % 1015,8 hPa 0,0 mm 3,6 km/h (1 Bft) W-SW 244 1 min 0,000 mm 4,7 UV-I 824 W/m 15,7 C 4,8 km/h (1 Bft)
05.07.2016 10:23 21,4 C 21,4 C 68 % 1015,8 hPa 0,0 mm 7,2 km/h (2 Bft) NW 306 1 min 0,000 mm 5,1 UV-I 798 W/m 15,2 C 11,3 km/h (2 Bft)
05.07.2016 10:24 21,3 C 21,4 C 66 % 1015,8 hPa 0,0 mm 7,2 km/h (2 Bft) SW 221 1 min 0,000 mm 5,4 UV-I 819 W/m 14,7 C 12,9 km/h (3 Bft)
05.07.2016 10:25 21,3 C 21,3 C 67 % 1015,8 hPa 0,0 mm 6,0 km/h (2 Bft) SW 233 1 min 0,000 mm 4,9 UV-I 819 W/m 14,9 C 8,0 km/h (2 Bft)
05.07.2016 10:26 21,3 C 21,3 C 68 % 1015,8 hPa 0,0 mm 5,4 km/h (1 Bft) W-NW 288 1 min 0,000 mm 4,8 UV-I 679 W/m 15,1 C 6,4 km/h (2 Bft)
05.07.2016 10:27 21,3 C 21,3 C 69 % 1015,8 hPa 0,0 mm 3,2 km/h (1 Bft) W-NW 284 1 min 0,000 mm 4,4 UV-I 679 W/m 15,4 C 4,8 km/h (1 Bft)
05.07.2016 10:28 21,4 C 21,4 C 70 % 1015,7 hPa 0,0 mm 5,0 km/h (1 Bft) W-SW 253 1 min 0,000 mm 4,4 UV-I 610 W/m 15,7 C 6,4 km/h (2 Bft)
05.07.2016 10:29 21,3 C 21,4 C 67 % 1015,7 hPa 0,0 mm 6,6 km/h (2 Bft) NW 317 1 min 0,000 mm 4,9 UV-I 610 W/m 14,9 C 11,3 km/h (2 Bft)
05.07.2016 10:30 21,3 C 21,3 C 67 % 1015,8 hPa 0,0 mm 5,4 km/h (1 Bft) W-NW 302 1 min 0,000 mm 5,5 UV-I 610 W/m 14,9 C 8,0 km/h (2 Bft)
05.07.2016 10:31 21,3 C 21,3 C 68 % 1015,8 hPa 0,0 mm 5,6 km/h (1 Bft) NW 312 1 min 0,000 mm 5,7 UV-I 809 W/m 15,1 C 11,3 km/h (2 Bft)
05.07.2016 10:32 21,4 C 21,4 C 69 % 1015,8 hPa 0,0 mm 4,0 km/h (1 Bft) SW 215 1 min 0,000 mm 5,8 UV-I 838 W/m 15,5 C 6,4 km/h (2 Bft)
05.07.2016 10:33 21,6 C 21,6 C 68 % 1015,8 hPa 0,0 mm 5,2 km/h (1 Bft) W 273 1 min 0,000 mm 5,6 UV-I 766 W/m 15,4 C 11,3 km/h (2 Bft)
05.07.2016 10:34 21,6 C 21,6 C 67 % 1015,8 hPa 0,0 mm 6,9 km/h (2 Bft) N-NW 328 1 min 0,000 mm 4,4 UV-I 694 W/m 15,2 C 12,9 km/h (3 Bft)
05.07.2016 10:35 21,6 C 21,6 C 67 % 1015,8 hPa 0,0 mm 8,4 km/h (2 Bft) W 267 1 min 0,000 mm 3,9 UV-I 694 W/m 15,2 C 14,5 km/h (3 Bft)
05.07.2016 10:36 21,4 C 21,6 C 66 % 1015,8 hPa 0,0 mm 8,2 km/h (2 Bft) W-SW 253 1 min 0,000 mm 4,7 UV-I 694 W/m 14,8 C 12,9 km/h (3 Bft)
05.07.2016 10:37 21,3 C 21,4 C 65 % 1015,8 hPa 0,0 mm 6,3 km/h (2 Bft) W 279 1 min 0,000 mm 5,1 UV-I 694 W/m 14,4 C 11,3 km/h (2 Bft)
05.07.2016 10:38 21,2 C 21,3 C 66 % 1015,8 hPa 0,0 mm 7,5 km/h (2 Bft) W 281 1 min 0,000 mm 3,5 UV-I 694 W/m 14,6 C 11,3 km/h (2 Bft)
05.07.2016 10:39 21,1 C 21,2 C 67 % 1015,8 hPa 0,0 mm 6,8 km/h (2 Bft) W-NW 290 0 min 0,000 mm 4,2 UV-I 404 W/m 14,7 C 11,3 km/h (2 Bft)
05.07.2016 10:40 20,9 C 21,1 C 68 % 1015,8 hPa 0,0 mm 6,7 km/h (2 Bft) W-NW 286 1 min 0,000 mm 3,3 UV-I 450 W/m 14,8 C 11,3 km/h (2 Bft)
05.07.2016 10:41 20,9 C 20,9 C 67 % 1015,8 hPa 0,0 mm 6,2 km/h (2 Bft) W-NW 286 0 min 0,000 mm 3,9 UV-I 350 W/m 14,5 C 11,3 km/h (2 Bft)
05.07.2016 10:42 20,8 C 20,9 C 69 % 1015,8 hPa 0,0 mm 3,0 km/h (1 Bft) NW 304 0 min 0,000 mm 3,6 UV-I 332 W/m 14,9 C 6,4 km/h (2 Bft)
05.07.2016 10:43 20,8 C 20,8 C 69 % 1015,8 hPa 0,0 mm 2,1 km/h (1 Bft) W-NW 302 0 min 0,000 mm 5,4 UV-I 332 W/m 14,9 C 3,2 km/h (1 Bft)
05.07.2016 10:44 20,8 C 20,8 C 69 % 1015,7 hPa 0,0 mm 6,2 km/h (2 Bft) W 275 0 min 0,000 mm 3,5 UV-I 332 W/m 14,9 C 9,7 km/h (2 Bft)
05.07.2016 10:45 20,8 C 20,8 C 71 % 1015,7 hPa 0,0 mm 4,9 km/h (1 Bft) W 265 0 min 0,000 mm 4,4 UV-I 332 W/m 15,3 C 12,9 km/h (3 Bft)
05.07.2016 10:46 20,9 C 20,9 C 70 % 1015,8 hPa 0,0 mm 8,0 km/h (2 Bft) NW 304 0 min 0,000 mm 5,7 UV-I 332 W/m 15,2 C 14,5 km/h (3 Bft)
05.07.2016 10:47 21,0 C 21,0 C 69 % 1015,8 hPa 0,0 mm 5,1 km/h (1 Bft) W-NW 296 1 min 0,000 mm 5,2 UV-I 619 W/m 15,1 C 8,0 km/h (2 Bft)
05.07.2016 10:48 21,1 C 21,1 C 70 % 1015,8 hPa 0,0 mm 7,6 km/h (2 Bft) W-NW 286 1 min 0,000 mm 4,8 UV-I 584 W/m 15,4 C 12,9 km/h (3 Bft)
05.07.2016 10:49 21,1 C 21,1 C 70 % 1015,8 hPa 0,0 mm 8,3 km/h (2 Bft) W 276 1 min 0,000 mm 3,7 UV-I 584 W/m 15,4 C 11,3 km/h (2 Bft)
05.07.2016 10:50 21,2 C 21,2 C 68 % 1015,8 hPa 0,0 mm 6,1 km/h (2 Bft) W-NW 300 0 min 0,000 mm 4,2 UV-I 378 W/m 15,1 C 11,3 km/h (2 Bft)
05.07.2016 10:51 21,1 C 21,2 C 70 % 1015,7 hPa 0,0 mm 6,2 km/h (2 Bft) W-SW 242 1 min 0,000 mm 4,1 UV-I 436 W/m 15,4 C 9,7 km/h (2 Bft)
05.07.2016 10:52 21,1 C 21,1 C 69 % 1015,7 hPa 0,0 mm 10,1 km/h (2 Bft) W 280 1 min 0,000 mm 4,9 UV-I 524 W/m 15,2 C 14,5 km/h (3 Bft)
05.07.2016 10:53 21,1 C 21,1 C 68 % 1015,8 hPa 0,0 mm 10,8 km/h (2 Bft) W 279 1 min 0,000 mm 5,2 UV-I 524 W/m 15,0 C 14,5 km/h (3 Bft)
05.07.2016 10:54 21,3 C 21,3 C 73 % 1015,8 hPa 0,0 mm 4,0 km/h (1 Bft) NW 304 1 min 0,000 mm 6,1 UV-I 823 W/m 16,3 C 6,4 km/h (2 Bft)
05.07.2016 10:55 21,4 C 21,4 C 70 % 1015,8 hPa 0,0 mm 3,6 km/h (1 Bft) W-NW 297 1 min 0,000 mm 5,4 UV-I 823 W/m 15,7 C 6,4 km/h (2 Bft)
05.07.2016 10:56 21,5 C 21,5 C 67 % 1015,8 hPa 0,0 mm 5,9 km/h (2 Bft) SW 233 1 min 0,000 mm 5,8 UV-I 661 W/m 15,1 C 12,9 km/h (3 Bft)
05.07.2016 10:57 21,7 C 21,7 C 73 % 1015,8 hPa 0,0 mm 7,2 km/h (2 Bft) W 280 1 min 0,000 mm 5,4 UV-I 661 W/m 16,6 C 11,3 km/h (2 Bft)
05.07.2016 10:58 21,7 C 21,7 C 68 % 1015,8 hPa 0,0 mm 5,7 km/h (1 Bft) W-NW 289 1 min 0,000 mm 4,5 UV-I 508 W/m 15,5 C 8,0 km/h (2 Bft)
05.07.2016 10:59 21,7 C 21,7 C 68 % 1015,8 hPa 0,0 mm 9,1 km/h (2 Bft) W-SW 253 1 min 0,000 mm 5,0 UV-I 526 W/m 15,5 C 16,1 km/h (3 Bft)
05.07.2016 11:00 21,6 C 21,7 C 67 % 1015,8 hPa 0,0 mm 4,9 km/h (1 Bft) W-NW 300 1 min 0,000 mm 5,3 UV-I 599 W/m 15,2 C 9,7 km/h (2 Bft)
05.07.2016 11:01 21,6 C 21,6 C 69 % 1015,8 hPa 0,0 mm 9,0 km/h (2 Bft) W 260 1 min 0,355 mm 5,2 UV-I 599 W/m 15,7 C 11,3 km/h (2 Bft)
05.07.2016 11:02 21,6 C 21,6 C 66 % 1015,8 hPa 0,0 mm 7,1 km/h (2 Bft) W 269 1 min 0,000 mm 5,1 UV-I 599 W/m 15,0 C 11,3 km/h (2 Bft)
05.07.2016 11:03 21,4 C 21,6 C 68 % 1015,8 hPa 0,0 mm 6,8 km/h (2 Bft) W-NW 286 1 min 0,000 mm 5,5 UV-I 640 W/m 15,2 C 12,9 km/h (3 Bft)
05.07.2016 11:04 21,6 C 21,6 C 68 % 1015,8 hPa 0,0 mm 11,0 km/h (2 Bft) W-NW 292 1 min 0,000 mm 5,8 UV-I 798 W/m 15,4 C 17,7 km/h (3 Bft)
05.07.2016 11:05 21,6 C 21,6 C 71 % 1015,8 hPa 0,0 mm 6,9 km/h (2 Bft) W 261 1 min 0,000 mm 6,2 UV-I 830 W/m 16,1 C 11,3 km/h (2 Bft)
05.07.2016 11:06 21,7 C 21,7 C 72 % 1015,8 hPa 0,0 mm 6,6 km/h (2 Bft) NW 311 1 min 0,000 mm 6,1 UV-I 759 W/m 16,4 C 11,3 km/h (2 Bft)
05.07.2016 11:07 21,7 C 21,7 C 68 % 1015,8 hPa 0,0 mm 6,0 km/h (2 Bft) N-NW 329 1 min 0,000 mm 5,8 UV-I 737 W/m 15,5 C 9,7 km/h (2 Bft)
05.07.2016 11:08 21,8 C 21,8 C 69 % 1015,8 hPa 0,0 mm 6,7 km/h (2 Bft) N-NW 335 1 min 0,000 mm 6,3 UV-I 816 W/m 15,9 C 9,7 km/h (2 Bft)
05.07.2016 11:09 21,8 C 21,8 C 71 % 1015,8 hPa 0,0 mm 11,7 km/h (2 Bft) W 278 1 min 0,000 mm 5,7 UV-I 710 W/m 16,3 C 14,5 km/h (3 Bft)
05.07.2016 11:10 21,8 C 21,8 C 67 % 1015,8 hPa 0,0 mm 8,0 km/h (2 Bft) W-NW 286 1 min 0,000 mm 6,0 UV-I 810 W/m 15,4 C 12,9 km/h (3 Bft)
05.07.2016 11:11 21,8 C 21,8 C 67 % 1015,8 hPa 0,0 mm 6,8 km/h (2 Bft) W-NW 302 1 min 0,000 mm 6,3 UV-I 814 W/m 15,4 C 14,5 km/h (3 Bft)
05.07.2016 11:12 21,9 C 21,9 C 67 % 1015,8 hPa 0,0 mm 6,8 km/h (2 Bft) W 269 1 min 0,000 mm 6,3 UV-I 833 W/m 15,5 C 12,9 km/h (3 Bft)
05.07.2016 11:13 22,0 C 22,0 C 67 % 1015,8 hPa 0,0 mm 8,9 km/h (2 Bft) W-NW 288 1 min 0,000 mm 6,1 UV-I 775 W/m 15,6 C 12,9 km/h (3 Bft)
05.07.2016 11:14 22,1 C 22,1 C 68 % 1015,9 hPa 0,0 mm 6,7 km/h (2 Bft) W-NW 286 1 min 0,000 mm 6,1 UV-I 773 W/m 15,9 C 12,9 km/h (3 Bft)
05.07.2016 11:15 22,0 C 22,1 C 65 % 1015,9 hPa 0,0 mm 9,7 km/h (2 Bft) W-NW 298 1 min 0,000 mm 6,4 UV-I 758 W/m 15,1 C 14,5 km/h (3 Bft)
05.07.2016 11:16 21,9 C 22,0 C 69 % 1015,9 hPa 0,0 mm 8,2 km/h (2 Bft) W 278 1 min 0,000 mm 6,3 UV-I 807 W/m 15,9 C 12,9 km/h (3 Bft)
05.07.2016 11:17 21,9 C 21,9 C 66 % 1015,8 hPa 0,0 mm 8,4 km/h (2 Bft) NW 314 1 min 0,000 mm 5,9 UV-I 712 W/m 15,3 C 12,9 km/h (3 Bft)
05.07.2016 11:18 21,8 C 21,9 C 66 % 1015,8 hPa 0,0 mm 6,2 km/h (2 Bft) W-NW 284 1 min 0,000 mm 6,2 UV-I 761 W/m 15,2 C 11,3 km/h (2 Bft)
05.07.2016 11:19 21,8 C 21,8 C 68 % 1015,8 hPa 0,0 mm 8,3 km/h (2 Bft) NW 307 1 min 0,000 mm 6,3 UV-I 842 W/m 15,6 C 12,9 km/h (3 Bft)
05.07.2016 11:20 21,8 C 21,8 C 67 % 1015,8 hPa 0,0 mm 5,8 km/h (2 Bft) W 263 1 min 0,000 mm 6,3 UV-I 870 W/m 15,4 C 9,7 km/h (2 Bft)
05.07.2016 11:21 21,9 C 21,9 C 68 % 1015,8 hPa 0,0 mm 6,3 km/h (2 Bft) W 271 1 min 0,000 mm 6,1 UV-I 761 W/m 15,7 C 8,0 km/h (2 Bft)
05.07.2016 11:22 21,9 C 21,9 C 66 % 1015,8 hPa 0,0 mm 7,5 km/h (2 Bft) W-NW 290 1 min 0,000 mm 6,1 UV-I 761 W/m 15,3 C 14,5 km/h (3 Bft)
05.07.2016 11:23 21,9 C 21,9 C 67 % 1015,8 hPa 0,0 mm 10,3 km/h (2 Bft) W 272 1 min 0,000 mm 5,6 UV-I 761 W/m 15,5 C 16,1 km/h (3 Bft)
05.07.2016 11:24 21,9 C 21,9 C 66 % 1015,9 hPa 0,0 mm 5,5 km/h (1 Bft) W-NW 297 1 min 0,000 mm 5,2 UV-I 761 W/m 15,3 C 6,4 km/h (2 Bft)
05.07.2016 11:25 21,8 C 21,9 C 70 % 1015,8 hPa 0,0 mm 7,8 km/h (2 Bft) W-NW 293 1 min 0,000 mm 4,9 UV-I 761 W/m 16,1 C 14,5 km/h (3 Bft)
05.07.2016 11:26 21,8 C 21,9 C 67 % 1015,9 hPa 0,0 mm 10,5 km/h (2 Bft) NW 318 1 min 0,000 mm 4,7 UV-I 761 W/m 15,4 C 16,1 km/h (3 Bft)
05.07.2016 11:27 21,8 C 21,8 C 68 % 1015,8 hPa 0,0 mm 8,4 km/h (2 Bft) W-SW 252 1 min 0,000 mm 5,7 UV-I 761 W/m 15,6 C 12,9 km/h (3 Bft)
05.07.2016 11:28 21,9 C 21,9 C 67 % 1015,8 hPa 0,0 mm 7,8 km/h (2 Bft) W-NW 285 1 min 0,000 mm 5,9 UV-I 761 W/m 15,5 C 12,9 km/h (3 Bft)
05.07.2016 11:29 21,8 C 21,9 C 65 % 1015,8 hPa 0,0 mm 5,2 km/h (1 Bft) W-SW 257 1 min 0,000 mm 3,8 UV-I 761 W/m 14,9 C 11,3 km/h (2 Bft)
05.07.2016 11:30 21,9 C 21,9 C 67 % 1015,8 hPa 0,0 mm 7,7 km/h (2 Bft) N-NW 344 1 min 0,000 mm 5,2 UV-I 548 W/m 15,5 C 12,9 km/h (3 Bft)
05.07.2016 11:31 22,0 C 22,0 C 69 % 1015,8 hPa 0,0 mm 11,1 km/h (2 Bft) W-NW 296 1 min 0,000 mm 4,5 UV-I 548 W/m 16,0 C 17,7 km/h (3 Bft)
05.07.2016 11:32 22,0 C 22,0 C 65 % 1015,8 hPa 0,0 mm 8,1 km/h (2 Bft) W 279 1 min 0,000 mm 4,2 UV-I 548 W/m 15,1 C 14,5 km/h (3 Bft)
05.07.2016 11:33 22,0 C 22,1 C 64 % 1015,8 hPa 0,0 mm 6,2 km/h (2 Bft) W 281 1 min 0,000 mm 7,0 UV-I 548 W/m 14,9 C 9,7 km/h (2 Bft)
05.07.2016 11:34 22,1 C 22,1 C 67 % 1015,7 hPa 0,0 mm 4,4 km/h (1 Bft) W-NW 297 1 min 0,000 mm 6,5 UV-I 548 W/m 15,7 C 11,3 km/h (2 Bft)
05.07.2016 11:35 22,2 C 22,2 C 67 % 1015,8 hPa 0,0 mm 12,1 km/h (2 Bft) W 259 1 min 0,000 mm 3,6 UV-I 819 W/m 15,8 C 20,9 km/h (4 Bft)
05.07.2016 11:36 22,2 C 22,2 C 63 % 1015,8 hPa 0,0 mm 11,8 km/h (2 Bft) W-NW 295 1 min 0,000 mm 3,4 UV-I 819 W/m 14,8 C 14,5 km/h (3 Bft)
05.07.2016 11:37 22,1 C 22,2 C 65 % 1015,9 hPa 0,0 mm 11,0 km/h (2 Bft) W 275 1 min 0,000 mm 3,9 UV-I 819 W/m 15,2 C 16,1 km/h (3 Bft)
05.07.2016 11:38 22,0 C 22,1 C 64 % 1015,9 hPa 0,0 mm 12,8 km/h (3 Bft) W-NW 286 1 min 0,000 mm 3,6 UV-I 819 W/m 14,9 C 16,1 km/h (3 Bft)
05.07.2016 11:39 21,9 C 22,0 C 64 % 1015,9 hPa 0,0 mm 10,5 km/h (2 Bft) W-SW 238 0 min 0,000 mm 4,1 UV-I 429 W/m 14,8 C 14,5 km/h (3 Bft)
05.07.2016 11:40 21,8 C 21,9 C 64 % 1015,9 hPa 0,0 mm 7,1 km/h (2 Bft) W-NW 296 0 min 0,000 mm 3,5 UV-I 429 W/m 14,7 C 14,5 km/h (3 Bft)
05.07.2016 11:41 21,8 C 21,8 C 66 % 1016,0 hPa 0,0 mm 4,4 km/h (1 Bft) W 275 0 min 0,000 mm 3,1 UV-I 279 W/m 15,2 C 8,0 km/h (2 Bft)
05.07.2016 11:42 21,7 C 21,8 C 66 % 1015,9 hPa 0,0 mm 11,5 km/h (2 Bft) W 277 0 min 0,000 mm 2,9 UV-I 230 W/m 15,1 C 16,1 km/h (3 Bft)
05.07.2016 11:43 21,6 C 21,7 C 66 % 1016,0 hPa 0,0 mm 9,0 km/h (2 Bft) W-SW 249 0 min 0,000 mm 2,6 UV-I 216 W/m 15,0 C 12,9 km/h (3 Bft)
05.07.2016 11:44 21,6 C 21,6 C 66 % 1016,0 hPa 0,0 mm 9,8 km/h (2 Bft) SW 234 0 min 0,000 mm 2,9 UV-I 229 W/m 15,0 C 12,9 km/h (3 Bft)
05.07.2016 11:45 21,4 C 21,6 C 66 % 1016,0 hPa 0,0 mm 8,2 km/h (2 Bft) W-NW 292 0 min 0,000 mm 3,4 UV-I 278 W/m 14,8 C 11,3 km/h (2 Bft)
05.07.2016 11:46 21,4 C 21,4 C 66 % 1015,9 hPa 0,0 mm 5,4 km/h (1 Bft) NW 305 0 min 0,000 mm 7,4 UV-I 278 W/m 14,8 C 11,3 km/h (2 Bft)
05.07.2016 11:47 21,6 C 21,6 C 70 % 1016,0 hPa 0,0 mm 5,2 km/h (1 Bft) SW 235 0 min 0,000 mm 4,3 UV-I 278 W/m 15,9 C 11,3 km/h (2 Bft)
05.07.2016 11:48 21,8 C 21,8 C 69 % 1015,9 hPa 0,0 mm 7,0 km/h (2 Bft) W-NW 299 0 min 0,000 mm 4,7 UV-I 278 W/m 15,9 C 12,9 km/h (3 Bft)
05.07.2016 11:49 22,0 C 22,0 C 71 % 1015,9 hPa 0,0 mm 5,3 km/h (1 Bft) W-NW 282 1 min 0,000 mm 7,8 UV-I 668 W/m 16,5 C 9,7 km/h (2 Bft)
05.07.2016 11:50 22,1 C 22,1 C 66 % 1015,9 hPa 0,0 mm 4,3 km/h (1 Bft) NW 304 1 min 0,000 mm 7,4 UV-I 696 W/m 15,4 C 8,0 km/h (2 Bft)
05.07.2016 11:51 22,2 C 22,2 C 65 % 1015,9 hPa 0,0 mm 7,6 km/h (2 Bft) W-SW 248 1 min 0,000 mm 6,7 UV-I 793 W/m 15,3 C 14,5 km/h (3 Bft)
05.07.2016 11:52 22,3 C 22,3 C 70 % 1015,8 hPa 0,0 mm 8,4 km/h (2 Bft) W 259 1 min 0,000 mm 4,6 UV-I 793 W/m 16,6 C 11,3 km/h (2 Bft)
05.07.2016 11:53 22,3 C 22,3 C 66 % 1015,9 hPa 0,0 mm 7,6 km/h (2 Bft) W-SW 248 1 min 0,000 mm 4,9 UV-I 793 W/m 15,6 C 11,3 km/h (2 Bft)
05.07.2016 11:54 22,3 C 22,3 C 69 % 1015,9 hPa 0,0 mm 5,9 km/h (2 Bft) SW 233 1 min 0,000 mm 4,1 UV-I 642 W/m 16,3 C 11,3 km/h (2 Bft)
05.07.2016 11:55 22,3 C 22,3 C 64 % 1015,9 hPa 0,0 mm 7,5 km/h (2 Bft) W 277 1 min 0,000 mm 4,6 UV-I 642 W/m 15,2 C 11,3 km/h (2 Bft)
05.07.2016 11:56 22,3 C 22,3 C 64 % 1015,9 hPa 0,0 mm 7,0 km/h (2 Bft) W-NW 286 0 min 0,000 mm 3,9 UV-I 401 W/m 15,2 C 12,9 km/h (3 Bft)
05.07.2016 11:57 22,3 C 22,3 C 64 % 1015,9 hPa 0,0 mm 9,9 km/h (2 Bft) W-NW 302 0 min 0,000 mm 4,0 UV-I 415 W/m 15,2 C 14,5 km/h (3 Bft)
05.07.2016 11:58 22,1 C 22,3 C 64 % 1015,9 hPa 0,0 mm 8,6 km/h (2 Bft) NW 326 1 min 0,000 mm 4,4 UV-I 469 W/m 15,0 C 12,9 km/h (3 Bft)
05.07.2016 11:59 22,0 C 22,1 C 65 % 1015,9 hPa 0,0 mm 3,7 km/h (1 Bft) W 274 1 min 0,000 mm 5,4 UV-I 469 W/m 15,1 C 6,4 km/h (2 Bft)
05.07.2016 12:00 22,0 C 22,0 C 67 % 1015,8 hPa 0,0 mm 8,6 km/h (2 Bft) W 273 1 min 0,432 mm 4,4 UV-I 469 W/m 15,6 C 11,3 km/h (2 Bft)
05.07.2016 12:01 22,1 C 22,1 C 67 % 1015,9 hPa 0,0 mm 6,8 km/h (2 Bft) W 263 0 min 0,000 mm 3,2 UV-I 469 W/m 15,7 C 9,7 km/h (2 Bft)
05.07.2016 12:02 22,1 C 22,1 C 65 % 1015,9 hPa 0,0 mm 10,1 km/h (2 Bft) W-NW 292 0 min 0,000 mm 5,8 UV-I 469 W/m 15,2 C 12,9 km/h (3 Bft)
05.07.2016 12:03 22,1 C 22,1 C 67 % 1015,8 hPa 0,0 mm 13,6 km/h (3 Bft) W-SW 252 0 min 0,000 mm 4,6 UV-I 469 W/m 15,7 C 22,5 km/h (4 Bft)
05.07.2016 12:04 22,0 C 22,1 C 65 % 1015,9 hPa 0,0 mm 11,9 km/h (2 Bft) W-NW 289 0 min 0,000 mm 2,4 UV-I 223 W/m 15,1 C 19,3 km/h (3 Bft)
05.07.2016 12:05 21,8 C 22,0 C 64 % 1015,9 hPa 0,0 mm 9,3 km/h (2 Bft) W 259 0 min 0,000 mm 2,7 UV-I 234 W/m 14,7 C 14,5 km/h (3 Bft)
05.07.2016 12:06 21,7 C 21,8 C 67 % 1015,9 hPa 0,0 mm 10,7 km/h (2 Bft) W 266 0 min 0,000 mm 3,3 UV-I 288 W/m 15,3 C 17,7 km/h (3 Bft)
05.07.2016 12:07 21,7 C 21,7 C 69 % 1015,9 hPa 0,0 mm 6,5 km/h (2 Bft) W-SW 249 0 min 0,000 mm 6,6 UV-I 288 W/m 15,8 C 12,9 km/h (3 Bft)
05.07.2016 12:08 21,7 C 21,7 C 66 % 1015,9 hPa 0,0 mm 9,5 km/h (2 Bft) W-SW 252 0 min 0,000 mm 6,7 UV-I 288 W/m 15,1 C 12,9 km/h (3 Bft)
05.07.2016 12:09 21,8 C 21,8 C 66 % 1015,9 hPa 0,0 mm 5,3 km/h (1 Bft) W-SW 258 0 min 0,000 mm 6,5 UV-I 288 W/m 15,2 C 6,4 km/h (2 Bft)
05.07.2016 12:10 22,0 C 22,0 C 71 % 1015,8 hPa 0,0 mm 8,9 km/h (2 Bft) W 273 0 min 0,000 mm 3,3 UV-I 288 W/m 16,5 C 16,1 km/h (3 Bft)
05.07.2016 12:11 22,0 C 22,0 C 71 % 1015,8 hPa 0,0 mm 10,7 km/h (2 Bft) W 261 0 min 0,000 mm 3,4 UV-I 313 W/m 16,5 C 16,1 km/h (3 Bft)
05.07.2016 12:12 21,9 C 22,0 C 65 % 1015,8 hPa 0,0 mm 6,6 km/h (2 Bft) W-SW 254 0 min 0,000 mm 3,7 UV-I 366 W/m 15,0 C 11,3 km/h (2 Bft)
05.07.2016 12:13 21,8 C 21,9 C 66 % 1015,8 hPa 0,0 mm 6,8 km/h (2 Bft) W 275 0 min 0,000 mm 3,7 UV-I 320 W/m 15,2 C 11,3 km/h (2 Bft)
05.07.2016 12:14 21,8 C 21,8 C 68 % 1015,8 hPa 0,0 mm 7,6 km/h (2 Bft) N-NW 327 0 min 0,000 mm 5,1 UV-I 320 W/m 15,6 C 12,9 km/h (3 Bft)
05.07.2016 12:15 21,8 C 21,8 C 66 % 1015,9 hPa 0,0 mm 7,2 km/h (2 Bft) NW 311 0 min 0,000 mm 3,4 UV-I 320 W/m 15,2 C 12,9 km/h (3 Bft)
05.07.2016 12:16 21,8 C 21,8 C 66 % 1015,9 hPa 0,0 mm 14,2 km/h (3 Bft) W-NW 291 0 min 0,000 mm 2,7 UV-I 320 W/m 15,2 C 19,3 km/h (3 Bft)
05.07.2016 12:17 21,7 C 21,8 C 67 % 1015,9 hPa 0,0 mm 10,7 km/h (2 Bft) W-NW 289 0 min 0,000 mm 2,6 UV-I 171 W/m 15,3 C 16,1 km/h (3 Bft)
05.07.2016 12:18 21,6 C 21,7 C 65 % 1015,9 hPa 0,0 mm 7,5 km/h (2 Bft) W-NW 290 0 min 0,000 mm 2,8 UV-I 190 W/m 14,7 C 12,9 km/h (3 Bft)
05.07.2016 12:19 21,5 C 21,6 C 65 % 1015,9 hPa 0,0 mm 5,8 km/h (2 Bft) W-SW 242 0 min 0,000 mm 3,2 UV-I 244 W/m 14,6 C 9,7 km/h (2 Bft)
05.07.2016 12:20 21,3 C 21,5 C 66 % 1015,9 hPa 0,0 mm 8,3 km/h (2 Bft) W-NW 284 0 min 0,000 mm 3,2 UV-I 288 W/m 14,7 C 12,9 km/h (3 Bft)
05.07.2016 12:21 21,3 C 21,3 C 66 % 1015,9 hPa 0,0 mm 6,2 km/h (2 Bft) W-NW 298 0 min 0,000 mm 3,6 UV-I 320 W/m 14,7 C 9,7 km/h (2 Bft)
05.07.2016 12:22 21,3 C 21,3 C 67 % 1015,9 hPa 0,0 mm 5,9 km/h (2 Bft) W 269 0 min 0,000 mm 3,9 UV-I 339 W/m 14,9 C 8,0 km/h (2 Bft)
05.07.2016 12:23 21,3 C 21,3 C 67 % 1015,9 hPa 0,0 mm 6,8 km/h (2 Bft) W-NW 303 0 min 0,000 mm 6,6 UV-I 339 W/m 14,9 C 12,9 km/h (3 Bft)
05.07.2016 12:24 21,4 C 21,4 C 71 % 1015,9 hPa 0,0 mm 6,2 km/h (2 Bft) W-NW 297 1 min 0,000 mm 6,8 UV-I 949 W/m 15,9 C 8,0 km/h (2 Bft)
05.07.2016 12:25 21,6 C 21,6 C 68 % 1015,9 hPa 0,0 mm 6,6 km/h (2 Bft) W 265 0 min 0,000 mm 3,0 UV-I 227 W/m 15,4 C 11,3 km/h (2 Bft)
05.07.2016 12:26 21,7 C 21,7 C 66 % 1015,9 hPa 0,0 mm 5,6 km/h (1 Bft) W-NW 294 0 min 0,000 mm 2,8 UV-I 209 W/m 15,1 C 8,0 km/h (2 Bft)
05.07.2016 12:27 21,7 C 21,7 C 67 % 1015,9 hPa 0,0 mm 8,1 km/h (2 Bft) W-NW 296 0 min 0,000 mm 3,0 UV-I 237 W/m 15,3 C 12,9 km/h (3 Bft)
05.07.2016 12:28 21,7 C 21,7 C 66 % 1015,8 hPa 0,0 mm 7,2 km/h (2 Bft) W-NW 292 0 min 0,000 mm 6,4 UV-I 237 W/m 15,1 C 12,9 km/h (3 Bft)
05.07.2016 12:29 21,8 C 21,8 C 69 % 1015,8 hPa 0,0 mm 4,3 km/h (1 Bft) W 270 0 min 0,000 mm 7,5 UV-I 237 W/m 15,9 C 6,4 km/h (2 Bft)
05.07.2016 12:30 21,8 C 21,8 C 66 % 1015,8 hPa 0,0 mm 4,4 km/h (1 Bft) W 278 1 min 0,000 mm 5,0 UV-I 881 W/m 15,2 C 9,7 km/h (2 Bft)
05.07.2016 12:31 22,0 C 22,0 C 67 % 1015,8 hPa 0,0 mm 8,9 km/h (2 Bft) W 280 1 min 0,000 mm 4,9 UV-I 881 W/m 15,6 C 14,5 km/h (3 Bft)
05.07.2016 12:32 22,2 C 22,2 C 70 % 1015,8 hPa 0,0 mm 8,1 km/h (2 Bft) W-SW 244 1 min 0,000 mm 7,6 UV-I 960 W/m 16,5 C 12,9 km/h (3 Bft)
05.07.2016 12:33 22,4 C 22,4 C 68 % 1015,8 hPa 0,0 mm 10,3 km/h (2 Bft) W-NW 303 1 min 0,000 mm 7,0 UV-I 879 W/m 16,2 C 17,7 km/h (3 Bft)
05.07.2016 12:34 22,5 C 22,5 C 68 % 1015,8 hPa 0,0 mm 9,6 km/h (2 Bft) W 280 1 min 0,000 mm 7,2 UV-I 868 W/m 16,3 C 12,9 km/h (3 Bft)
05.07.2016 12:35 22,4 C 22,5 C 65 % 1015,8 hPa 0,0 mm 7,1 km/h (2 Bft) W-NW 296 1 min 0,000 mm 6,8 UV-I 868 W/m 15,5 C 11,3 km/h (2 Bft)
05.07.2016 12:36 22,6 C 22,6 C 71 % 1015,8 hPa 0,0 mm 7,2 km/h (2 Bft) W-NW 303 1 min 0,000 mm 6,4 UV-I 868 W/m 17,1 C 12,9 km/h (3 Bft)
05.07.2016 12:37 22,6 C 22,6 C 68 % 1015,7 hPa 0,0 mm 15,2 km/h (3 Bft) NW 306 1 min 0,000 mm 6,8 UV-I 821 W/m 16,4 C 20,9 km/h (4 Bft)
05.07.2016 12:38 22,8 C 22,8 C 69 % 1015,7 hPa 0,0 mm 12,8 km/h (3 Bft) W-NW 303 1 min 0,000 mm 7,3 UV-I 821 W/m 16,8 C 17,7 km/h (3 Bft)
05.07.2016 12:39 22,8 C 22,8 C 66 % 1015,8 hPa 0,0 mm 11,8 km/h (2 Bft) NW 306 1 min 0,000 mm 6,5 UV-I 821 W/m 16,1 C 16,1 km/h (3 Bft)
05.07.2016 12:40 22,7 C 22,8 C 64 % 1015,8 hPa 0,0 mm 9,1 km/h (2 Bft) NW 317 1 min 0,000 mm 3,3 UV-I 821 W/m 15,5 C 12,9 km/h (3 Bft)
05.07.2016 12:41 22,6 C 22,7 C 64 % 1015,7 hPa 0,0 mm 10,3 km/h (2 Bft) W-NW 284 1 min 0,000 mm 5,8 UV-I 821 W/m 15,4 C 14,5 km/h (3 Bft)
05.07.2016 12:42 22,5 C 22,6 C 66 % 1015,7 hPa 0,0 mm 9,7 km/h (2 Bft) N-NW 329 1 min 0,000 mm 6,2 UV-I 821 W/m 15,8 C 14,5 km/h (3 Bft)
05.07.2016 12:43 22,5 C 22,6 C 65 % 1015,7 hPa 0,0 mm 6,3 km/h (2 Bft) W-SW 255 1 min 0,000 mm 6,8 UV-I 835 W/m 15,6 C 12,9 km/h (3 Bft)
05.07.2016 12:44 22,5 C 22,6 C 68 % 1015,7 hPa 0,0 mm 6,0 km/h (2 Bft) W-NW 284 0 min 0,000 mm 3,0 UV-I 169 W/m 16,3 C 11,3 km/h (2 Bft)
05.07.2016 12:45 22,3 C 22,5 C 66 % 1015,7 hPa 0,0 mm 5,2 km/h (1 Bft) W-NW 296 0 min 0,000 mm 7,0 UV-I 169 W/m 15,6 C 8,0 km/h (2 Bft)
05.07.2016 12:46 22,2 C 22,3 C 67 % 1015,8 hPa 0,0 mm 7,6 km/h (2 Bft) W 273 0 min 0,000 mm 6,2 UV-I 169 W/m 15,8 C 11,3 km/h (2 Bft)
05.07.2016 12:47 22,2 C 22,2 C 67 % 1015,8 hPa 0,0 mm 5,2 km/h (1 Bft) W 276 1 min 0,000 mm 3,7 UV-I 860 W/m 15,8 C 6,4 km/h (2 Bft)
05.07.2016 12:48 22,2 C 22,2 C 67 % 1015,7 hPa 0,0 mm 8,2 km/h (2 Bft) W 281 1 min 0,000 mm 6,0 UV-I 860 W/m 15,8 C 11,3 km/h (2 Bft)
05.07.2016 12:49 22,3 C 22,3 C 67 % 1015,7 hPa 0,0 mm 6,8 km/h (2 Bft) W-NW 292 1 min 0,000 mm 6,7 UV-I 860 W/m 15,9 C 9,7 km/h (2 Bft)
05.07.2016 12:50 22,3 C 22,3 C 67 % 1015,6 hPa 0,0 mm 6,5 km/h (2 Bft) W-SW 252 1 min 0,000 mm 7,5 UV-I 860 W/m 15,9 C 9,7 km/h (2 Bft)
05.07.2016 12:51 22,5 C 22,5 C 68 % 1015,6 hPa 0,0 mm 5,6 km/h (1 Bft) W 273 1 min 0,000 mm 5,4 UV-I 930 W/m 16,3 C 9,7 km/h (2 Bft)
05.07.2016 12:52 22,7 C 22,7 C 67 % 1015,6 hPa 0,0 mm 7,4 km/h (2 Bft) W-SW 257 1 min 0,000 mm 6,6 UV-I 930 W/m 16,2 C 14,5 km/h (3 Bft)
05.07.2016 12:53 22,8 C 22,8 C 64 % 1015,7 hPa 0,0 mm 14,6 km/h (3 Bft) W-NW 288 1 min 0,000 mm 7,0 UV-I 930 W/m 15,6 C 19,3 km/h (3 Bft)
05.07.2016 12:54 22,8 C 22,8 C 62 % 1015,6 hPa 0,0 mm 14,7 km/h (3 Bft) NW 309 1 min 0,000 mm 5,9 UV-I 965 W/m 15,1 C 19,3 km/h (3 Bft)
05.07.2016 12:55 22,7 C 22,8 C 62 % 1015,7 hPa 0,0 mm 10,7 km/h (2 Bft) W 274 1 min 0,000 mm 6,0 UV-I 969 W/m 15,0 C 17,7 km/h (3 Bft)
05.07.2016 12:56 22,7 C 22,7 C 65 % 1015,7 hPa 0,0 mm 11,5 km/h (2 Bft) W 279 1 min 0,000 mm 4,7 UV-I 969 W/m 15,8 C 17,7 km/h (3 Bft)
05.07.2016 12:57 22,7 C 22,7 C 64 % 1015,7 hPa 0,0 mm 8,4 km/h (2 Bft) W 267 1 min 0,000 mm 2,6 UV-I 969 W/m 15,5 C 14,5 km/h (3 Bft)
05.07.2016 12:58 22,7 C 22,7 C 64 % 1015,7 hPa 0,0 mm 7,0 km/h (2 Bft) W-NW 284 0 min 0,000 mm 2,5 UV-I 202 W/m 15,5 C 11,3 km/h (2 Bft)
05.07.2016 12:59 22,6 C 22,7 C 65 % 1015,7 hPa 0,0 mm 7,2 km/h (2 Bft) W-SW 257 0 min 0,000 mm 2,7 UV-I 246 W/m 15,7 C 12,9 km/h (3 Bft)
05.07.2016 13:00 22,4 C 22,6 C 64 % 1015,7 hPa 0,0 mm 5,7 km/h (1 Bft) W 272 0 min 0,000 mm 4,5 UV-I 295 W/m 15,2 C 9,7 km/h (2 Bft)
05.07.2016 13:01 22,3 C 22,4 C 66 % 1015,7 hPa 0,0 mm 7,8 km/h (2 Bft) W-SW 242 0 min 0,381 mm 4,7 UV-I 330 W/m 15,6 C 16,1 km/h (3 Bft)
05.07.2016 13:02 22,1 C 22,3 C 67 % 1015,8 hPa 0,0 mm 10,4 km/h (2 Bft) NW 323 0 min 0,000 mm 5,2 UV-I 330 W/m 15,7 C 16,1 km/h (3 Bft)
05.07.2016 13:03 22,1 C 22,1 C 67 % 1015,7 hPa 0,0 mm 4,9 km/h (1 Bft) NW 313 0 min 0,000 mm 6,9 UV-I 330 W/m 15,7 C 8,0 km/h (2 Bft)
05.07.2016 13:04 22,1 C 22,1 C 70 % 1015,7 hPa 0,0 mm 4,4 km/h (1 Bft) W-SW 254 0 min 0,000 mm 6,1 UV-I 330 W/m 16,4 C 6,4 km/h (2 Bft)
05.07.2016 13:05 22,3 C 22,3 C 71 % 1015,6 hPa 0,0 mm 5,9 km/h (2 Bft) W-SW 241 0 min 0,000 mm 7,8 UV-I 330 W/m 16,8 C 9,7 km/h (2 Bft)
05.07.2016 13:06 22,4 C 22,4 C 67 % 1015,6 hPa 0,0 mm 5,8 km/h (2 Bft) W 263 0 min 0,000 mm 4,0 UV-I 330 W/m 16,0 C 9,7 km/h (2 Bft)
05.07.2016 13:07 22,3 C 22,4 C 65 % 1015,6 hPa 0,0 mm 7,7 km/h (2 Bft) W-SW 253 0 min 0,000 mm 3,5 UV-I 216 W/m 15,4 C 11,3 km/h (2 Bft)
05.07.2016 13:08 22,2 C 22,3 C 65 % 1015,6 hPa 0,0 mm 10,0 km/h (2 Bft) W 273 0 min 0,000 mm 3,6 UV-I 216 W/m 15,3 C 12,9 km/h (3 Bft)
05.07.2016 13:09 22,2 C 22,2 C 63 % 1015,6 hPa 0,0 mm 9,0 km/h (2 Bft) W 259 1 min 0,000 mm 6,5 UV-I 896 W/m 14,8 C 14,5 km/h (3 Bft)
05.07.2016 13:10 22,3 C 22,3 C 71 % 1015,5 hPa 0,0 mm 5,0 km/h (1 Bft) SW 234 1 min 0,000 mm 7,5 UV-I 902 W/m 16,8 C 11,3 km/h (2 Bft)
05.07.2016 13:11 22,5 C 22,5 C 68 % 1015,5 hPa 0,0 mm 8,9 km/h (2 Bft) NW 311 1 min 0,000 mm 7,6 UV-I 896 W/m 16,3 C 14,5 km/h (3 Bft)
05.07.2016 13:12 22,7 C 22,7 C 70 % 1015,5 hPa 0,0 mm 8,7 km/h (2 Bft) W 267 1 min 0,000 mm 7,2 UV-I 837 W/m 16,9 C 12,9 km/h (3 Bft)
05.07.2016 13:13 22,8 C 22,8 C 66 % 1015,4 hPa 0,0 mm 8,1 km/h (2 Bft) W-NW 290 1 min 0,000 mm 7,0 UV-I 817 W/m 16,1 C 12,9 km/h (3 Bft)
05.07.2016 13:14 22,9 C 22,9 C 65 % 1015,5 hPa 0,0 mm 10,9 km/h (2 Bft) W-NW 297 1 min 0,000 mm 6,4 UV-I 817 W/m 16,0 C 14,5 km/h (3 Bft)
05.07.2016 13:15 23,1 C 23,1 C 66 % 1015,5 hPa 0,0 mm 11,1 km/h (2 Bft) W-SW 252 1 min 0,000 mm 6,2 UV-I 817 W/m 16,4 C 16,1 km/h (3 Bft)
05.07.2016 13:16 23,1 C 23,1 C 68 % 1015,5 hPa 0,0 mm 12,2 km/h (2 Bft) W 260 1 min 0,000 mm 6,4 UV-I 733 W/m 16,9 C 14,5 km/h (3 Bft)
05.07.2016 13:17 23,1 C 23,1 C 63 % 1015,5 hPa 0,0 mm 13,3 km/h (3 Bft) W-NW 293 1 min 0,000 mm 6,9 UV-I 703 W/m 15,7 C 16,1 km/h (3 Bft)
05.07.2016 13:18 23,0 C 23,1 C 63 % 1015,5 hPa 0,0 mm 7,4 km/h (2 Bft) W-NW 288 1 min 0,000 mm 6,4 UV-I 844 W/m 15,6 C 11,3 km/h (2 Bft)
05.07.2016 13:19 23,1 C 23,1 C 65 % 1015,5 hPa 0,0 mm 8,6 km/h (2 Bft) W-NW 288 1 min 0,000 mm 7,0 UV-I 844 W/m 16,2 C 14,5 km/h (3 Bft)
05.07.2016 13:20 23,1 C 23,1 C 64 % 1015,5 hPa 0,0 mm 7,6 km/h (2 Bft) W-SW 252 1 min 0,000 mm 7,0 UV-I 758 W/m 15,9 C 12,9 km/h (3 Bft)
05.07.2016 13:21 23,1 C 23,1 C 66 % 1015,5 hPa 0,0 mm 12,2 km/h (2 Bft) W 277 1 min 0,000 mm 6,4 UV-I 701 W/m 16,4 C 19,3 km/h (3 Bft)
05.07.2016 13:22 23,1 C 23,1 C 64 % 1015,5 hPa 0,0 mm 7,8 km/h (2 Bft) NW 310 1 min 0,000 mm 6,7 UV-I 738 W/m 15,9 C 14,5 km/h (3 Bft)
05.07.2016 13:23 23,1 C 23,1 C 64 % 1015,5 hPa 0,0 mm 11,4 km/h (2 Bft) W-NW 283 1 min 0,000 mm 6,7 UV-I 751 W/m 15,9 C 17,7 km/h (3 Bft)
05.07.2016 13:24 23,1 C 23,1 C 64 % 1015,5 hPa 0,0 mm 8,9 km/h (2 Bft) W-NW 296 1 min 0,000 mm 6,7 UV-I 765 W/m 15,9 C 11,3 km/h (2 Bft)
05.07.2016 13:25 23,2 C 23,2 C 64 % 1015,5 hPa 0,0 mm 10,9 km/h (2 Bft) NW 309 1 min 0,000 mm 7,2 UV-I 809 W/m 16,0 C 19,3 km/h (3 Bft)
05.07.2016 13:26 23,3 C 23,3 C 62 % 1015,3 hPa 0,0 mm 6,8 km/h (2 Bft) S-SW 199 1 min 0,000 mm 7,5 UV-I 840 W/m 15,6 C 14,5 km/h (3 Bft)
05.07.2016 13:27 23,4 C 23,4 C 61 % 1015,4 hPa 0,0 mm 10,3 km/h (2 Bft) NW 306 1 min 0,000 mm 7,3 UV-I 847 W/m 15,4 C 14,5 km/h (3 Bft)
05.07.2016 13:28 23,4 C 23,4 C 61 % 1015,4 hPa 0,0 mm 11,6 km/h (2 Bft) W-SW 251 1 min 0,000 mm 6,9 UV-I 837 W/m 15,4 C 19,3 km/h (3 Bft)
05.07.2016 13:29 23,4 C 23,4 C 61 % 1015,3 hPa 0,0 mm 9,9 km/h (2 Bft) SW 235 1 min 0,000 mm 7,1 UV-I 821 W/m 15,4 C 14,5 km/h (3 Bft)
05.07.2016 13:30 23,4 C 23,4 C 61 % 1015,3 hPa 0,0 mm 7,4 km/h (2 Bft) S-SW 205 1 min 0,000 mm 6,7 UV-I 786 W/m 15,4 C 12,9 km/h (3 Bft)
05.07.2016 13:31 23,4 C 23,4 C 62 % 1015,3 hPa 0,0 mm 6,1 km/h (2 Bft) SW 236 1 min 0,000 mm 7,5 UV-I 953 W/m 15,7 C 11,3 km/h (2 Bft)
05.07.2016 13:32 23,4 C 23,4 C 59 % 1015,3 hPa 0,0 mm 5,8 km/h (2 Bft) W 281 1 min 0,000 mm 6,5 UV-I 953 W/m 14,9 C 9,7 km/h (2 Bft)
05.07.2016 13:33 23,6 C 23,6 C 64 % 1015,3 hPa 0,0 mm 8,4 km/h (2 Bft) W-NW 302 1 min 0,000 mm 7,5 UV-I 953 W/m 16,4 C 14,5 km/h (3 Bft)
05.07.2016 13:34 23,7 C 23,7 C 62 % 1015,3 hPa 0,0 mm 9,1 km/h (2 Bft) W-NW 300 1 min 0,000 mm 7,6 UV-I 940 W/m 16,0 C 14,5 km/h (3 Bft)
05.07.2016 13:35 23,7 C 23,7 C 63 % 1015,3 hPa 0,0 mm 16,2 km/h (3 Bft) W 265 1 min 0,000 mm 4,0 UV-I 940 W/m 16,2 C 24,1 km/h (4 Bft)
05.07.2016 13:36 23,6 C 23,7 C 57 % 1015,3 hPa 0,0 mm 12,9 km/h (3 Bft) W 280 1 min 0,000 mm 7,4 UV-I 860 W/m 14,6 C 19,3 km/h (3 Bft)
05.07.2016 13:37 23,5 C 23,6 C 59 % 1015,3 hPa 0,0 mm 14,1 km/h (3 Bft) SW 234 1 min 0,000 mm 7,4 UV-I 895 W/m 15,0 C 22,5 km/h (4 Bft)
05.07.2016 13:38 23,5 C 23,5 C 60 % 1015,3 hPa 0,0 mm 12,7 km/h (3 Bft) SW 231 1 min 0,000 mm 7,6 UV-I 856 W/m 15,3 C 20,9 km/h (4 Bft)
05.07.2016 13:39 23,4 C 23,5 C 59 % 1015,3 hPa 0,0 mm 10,9 km/h (2 Bft) SW 234 1 min 0,000 mm 8,0 UV-I 856 W/m 14,9 C 17,7 km/h (3 Bft)
05.07.2016 13:40 23,4 C 23,4 C 59 % 1015,3 hPa 0,0 mm 8,3 km/h (2 Bft) W 279 1 min 0,000 mm 8,0 UV-I 926 W/m 14,9 C 16,1 km/h (3 Bft)
05.07.2016 13:41 23,6 C 23,6 C 60 % 1015,3 hPa 0,0 mm 17,0 km/h (3 Bft) W 277 1 min 0,000 mm 7,8 UV-I 958 W/m 15,4 C 22,5 km/h (4 Bft)
05.07.2016 13:42 23,7 C 23,7 C 59 % 1015,3 hPa 0,0 mm 11,5 km/h (2 Bft) W-SW 254 1 min 0,000 mm 7,7 UV-I 923 W/m 15,2 C 16,1 km/h (3 Bft)
05.07.2016 13:43 23,7 C 23,7 C 59 % 1015,3 hPa 0,0 mm 13,3 km/h (3 Bft) W-NW 291 1 min 0,000 mm 6,9 UV-I 954 W/m 15,2 C 19,3 km/h (3 Bft)
05.07.2016 13:44 23,8 C 23,8 C 61 % 1015,1 hPa 0,0 mm 10,2 km/h (2 Bft) W 281 1 min 0,000 mm 3,5 UV-I 954 W/m 15,8 C 14,5 km/h (3 Bft)
05.07.2016 13:45 23,7 C 23,8 C 58 % 1015,2 hPa 0,0 mm 6,5 km/h (2 Bft) W-SW 241 1 min 0,000 mm 3,9 UV-I 954 W/m 14,9 C 16,1 km/h (3 Bft)
05.07.2016 13:46 23,6 C 23,7 C 57 % 1015,2 hPa 0,0 mm 15,2 km/h (3 Bft) SW 231 1 min 0,000 mm 6,8 UV-I 954 W/m 14,6 C 22,5 km/h (4 Bft)
05.07.2016 13:47 23,4 C 23,6 C 59 % 1015,2 hPa 0,0 mm 14,1 km/h (3 Bft) W-NW 288 1 min 0,000 mm 7,0 UV-I 800 W/m 14,9 C 20,9 km/h (4 Bft)
05.07.2016 13:48 23,4 C 23,4 C 59 % 1015,1 hPa 0,0 mm 13,8 km/h (3 Bft) W-SW 255 1 min 0,000 mm 7,0 UV-I 831 W/m 14,9 C 20,9 km/h (4 Bft)
05.07.2016 13:49 23,3 C 23,4 C 57 % 1015,2 hPa 0,0 mm 11,3 km/h (2 Bft) SW 228 1 min 0,000 mm 6,7 UV-I 766 W/m 14,3 C 17,7 km/h (3 Bft)
05.07.2016 13:50 23,3 C 23,3 C 57 % 1015,1 hPa 0,0 mm 8,9 km/h (2 Bft) N-NW 327 1 min 0,000 mm 7,0 UV-I 817 W/m 14,3 C 16,1 km/h (3 Bft)
05.07.2016 13:51 23,3 C 23,3 C 60 % 1015,0 hPa 0,0 mm 6,4 km/h (2 Bft) W-NW 283 1 min 0,000 mm 7,0 UV-I 816 W/m 15,1 C 11,3 km/h (2 Bft)
05.07.2016 13:52 23,4 C 23,4 C 65 % 1015,1 hPa 0,0 mm 6,8 km/h (2 Bft) W-SW 246 1 min 0,000 mm 7,6 UV-I 886 W/m 16,4 C 12,9 km/h (3 Bft)
05.07.2016 13:53 23,7 C 23,7 C 61 % 1015,0 hPa 0,0 mm 5,0 km/h (1 Bft) W-SW 254 1 min 0,000 mm 7,5 UV-I 846 W/m 15,7 C 8,0 km/h (2 Bft)
05.07.2016 13:54 23,8 C 23,8 C 61 % 1015,1 hPa 0,0 mm 3,2 km/h (1 Bft) W-SW 254 1 min 0,000 mm 7,4 UV-I 891 W/m 15,8 C 4,8 km/h (1 Bft)
05.07.2016 13:55 24,0 C 24,0 C 62 % 1015,0 hPa 0,0 mm 5,8 km/h (2 Bft) W-NW 286 1 min 0,000 mm 7,1 UV-I 891 W/m 16,3 C 11,3 km/h (2 Bft)
05.07.2016 13:56 24,0 C 24,0 C 58 % 1015,0 hPa 0,0 mm 9,3 km/h (2 Bft) W-SW 246 1 min 0,000 mm 7,3 UV-I 837 W/m 15,2 C 12,9 km/h (3 Bft)
05.07.2016 13:57 24,1 C 24,1 C 59 % 1015,0 hPa 0,0 mm 12,3 km/h (3 Bft) W 271 1 min 0,000 mm 7,3 UV-I 837 W/m 15,6 C 19,3 km/h (3 Bft)
05.07.2016 13:58 24,1 C 24,1 C 60 % 1015,0 hPa 0,0 mm 11,3 km/h (2 Bft) W-NW 288 1 min 0,000 mm 5,7 UV-I 838 W/m 15,8 C 17,7 km/h (3 Bft)
05.07.2016 13:59 24,0 C 24,1 C 57 % 1015,0 hPa 0,0 mm 17,1 km/h (3 Bft) W 269 1 min 0,000 mm 6,8 UV-I 838 W/m 14,9 C 24,1 km/h (4 Bft)
05.07.2016 14:00 23,8 C 24,0 C 57 % 1015,1 hPa 0,0 mm 8,2 km/h (2 Bft) W-SW 238 1 min 0,000 mm 7,1 UV-I 751 W/m 14,8 C 16,1 km/h (3 Bft)
05.07.2016 14:01 23,8 C 23,8 C 59 % 1015,0 hPa 0,0 mm 7,8 km/h (2 Bft) W-SW 251 1 min 0,508 mm 7,5 UV-I 751 W/m 15,3 C 12,9 km/h (3 Bft)
05.07.2016 14:02 23,7 C 23,8 C 60 % 1015,0 hPa 0,0 mm 6,6 km/h (2 Bft) NW 315 1 min 0,000 mm 7,6 UV-I 942 W/m 15,5 C 9,7 km/h (2 Bft)
05.07.2016 14:03 23,8 C 23,8 C 62 % 1015,0 hPa 0,0 mm 4,8 km/h (1 Bft) W 281 1 min 0,000 mm 7,5 UV-I 914 W/m 16,1 C 8,0 km/h (2 Bft)
05.07.2016 14:04 23,9 C 23,9 C 60 % 1014,9 hPa 0,0 mm 6,6 km/h (2 Bft) W 272 1 min 0,000 mm 7,3 UV-I 863 W/m 15,7 C 11,3 km/h (2 Bft)
05.07.2016 14:05 24,1 C 24,1 C 61 % 1015,0 hPa 0,0 mm 10,7 km/h (2 Bft) W-SW 250 1 min 0,000 mm 5,4 UV-I 824 W/m 16,1 C 14,5 km/h (3 Bft)
05.07.2016 14:06 24,1 C 24,1 C 61 % 1015,0 hPa 0,0 mm 11,4 km/h (2 Bft) W 269 1 min 0,000 mm 6,4 UV-I 738 W/m 16,1 C 17,7 km/h (3 Bft)
05.07.2016 14:07 24,1 C 24,1 C 59 % 1015,0 hPa 0,0 mm 16,2 km/h (3 Bft) W-SW 254 1 min 0,000 mm 5,9 UV-I 751 W/m 15,6 C 24,1 km/h (4 Bft)
05.07.2016 14:08 23,9 C 24,1 C 56 % 1015,0 hPa 0,0 mm 15,6 km/h (3 Bft) W-SW 241 1 min 0,000 mm 3,7 UV-I 751 W/m 14,6 C 25,7 km/h (4 Bft)
05.07.2016 14:09 23,7 C 23,9 C 58 % 1014,9 hPa 0,0 mm 8,2 km/h (2 Bft) W 275 0 min 0,000 mm 3,7 UV-I 257 W/m 14,9 C 16,1 km/h (3 Bft)
05.07.2016 14:10 23,6 C 23,7 C 58 % 1014,9 hPa 0,0 mm 12,7 km/h (3 Bft) W 274 0 min 0,000 mm 3,7 UV-I 257 W/m 14,8 C 19,3 km/h (3 Bft)
05.07.2016 14:11 23,5 C 23,6 C 60 % 1014,9 hPa 0,0 mm 10,8 km/h (2 Bft) W 265 1 min 0,000 mm 6,8 UV-I 867 W/m 15,3 C 16,1 km/h (3 Bft)
05.07.2016 14:12 23,6 C 23,6 C 58 % 1014,9 hPa 0,0 mm 11,5 km/h (2 Bft) W-SW 252 1 min 0,000 mm 7,4 UV-I 882 W/m 14,8 C 16,1 km/h (3 Bft)
05.07.2016 14:13 23,6 C 23,6 C 58 % 1014,9 hPa 0,0 mm 18,4 km/h (3 Bft) W-SW 257 1 min 0,000 mm 7,5 UV-I 902 W/m 14,8 C 22,5 km/h (4 Bft)
05.07.2016 14:14 23,7 C 23,7 C 57 % 1014,8 hPa 0,0 mm 15,2 km/h (3 Bft) W 277 1 min 0,000 mm 7,6 UV-I 923 W/m 14,7 C 20,9 km/h (4 Bft)
05.07.2016 14:15 23,8 C 23,8 C 57 % 1014,9 hPa 0,0 mm 9,9 km/h (2 Bft) W 279 1 min 0,000 mm 7,4 UV-I 844 W/m 14,8 C 17,7 km/h (3 Bft)
05.07.2016 14:16 23,8 C 23,8 C 56 % 1014,8 hPa 0,0 mm 15,5 km/h (3 Bft) W 263 1 min 0,000 mm 7,6 UV-I 935 W/m 14,5 C 19,3 km/h (3 Bft)
05.07.2016 14:17 24,0 C 24,0 C 59 % 1014,8 hPa 0,0 mm 5,7 km/h (1 Bft) SW 221 1 min 0,000 mm 7,6 UV-I 884 W/m 15,5 C 9,7 km/h (2 Bft)
05.07.2016 14:18 24,1 C 24,1 C 57 % 1014,9 hPa 0,0 mm 13,4 km/h (3 Bft) W-NW 290 1 min 0,000 mm 7,2 UV-I 867 W/m 15,0 C 25,7 km/h (4 Bft)
05.07.2016 14:19 24,2 C 24,2 C 58 % 1014,9 hPa 0,0 mm 10,5 km/h (2 Bft) W-SW 255 1 min 0,000 mm 6,9 UV-I 826 W/m 15,4 C 22,5 km/h (4 Bft)
05.07.2016 14:20 24,2 C 24,3 C 55 % 1014,8 hPa 0,0 mm 11,3 km/h (2 Bft) W-NW 291 1 min 0,000 mm 6,8 UV-I 812 W/m 14,6 C 17,7 km/h (3 Bft)
05.07.2016 14:21 24,2 C 24,2 C 58 % 1014,9 hPa 0,0 mm 13,4 km/h (3 Bft) SW 231 1 min 0,000 mm 6,9 UV-I 816 W/m 15,4 C 24,1 km/h (4 Bft)
05.07.2016 14:22 24,1 C 24,2 C 52 % 1014,8 hPa 0,0 mm 15,0 km/h (3 Bft) W 259 1 min 0,000 mm 6,5 UV-I 772 W/m 13,6 C 29,0 km/h (5 Bft)
05.07.2016 14:23 24,0 C 24,1 C 54 % 1014,9 hPa 0,0 mm 17,4 km/h (3 Bft) W 273 1 min 0,000 mm 6,5 UV-I 796 W/m 14,1 C 32,2 km/h (5 Bft)
05.07.2016 14:24 23,9 C 24,0 C 53 % 1014,9 hPa 0,0 mm 17,4 km/h (3 Bft) W 259 1 min 0,000 mm 6,6 UV-I 814 W/m 13,7 C 27,4 km/h (4 Bft)
05.07.2016 14:25 23,8 C 23,9 C 55 % 1014,8 hPa 0,0 mm 14,5 km/h (3 Bft) W 279 1 min 0,000 mm 6,6 UV-I 800 W/m 14,2 C 20,9 km/h (4 Bft)
05.07.2016 14:26 23,8 C 23,8 C 56 % 1014,8 hPa 0,0 mm 12,5 km/h (3 Bft) NW 308 1 min 0,000 mm 6,9 UV-I 796 W/m 14,5 C 20,9 km/h (4 Bft)
05.07.2016 14:27 23,8 C 23,8 C 57 % 1014,9 hPa 0,0 mm 11,7 km/h (2 Bft) NW 313 1 min 0,000 mm 7,0 UV-I 837 W/m 14,8 C 17,7 km/h (3 Bft)
05.07.2016 14:28 23,8 C 23,8 C 56 % 1014,7 hPa 0,0 mm 15,1 km/h (3 Bft) W 272 1 min 0,000 mm 5,2 UV-I 837 W/m 14,5 C 22,5 km/h (4 Bft)
05.07.2016 14:29 23,8 C 23,8 C 55 % 1014,8 hPa 0,0 mm 16,8 km/h (3 Bft) W-SW 252 1 min 0,000 mm 7,4 UV-I 942 W/m 14,2 C 25,7 km/h (4 Bft)
05.07.2016 14:30 23,8 C 23,8 C 56 % 1014,8 hPa 0,0 mm 13,9 km/h (3 Bft) W-NW 302 1 min 0,000 mm 7,3 UV-I 916 W/m 14,5 C 25,7 km/h (4 Bft)
05.07.2016 14:31 23,8 C 23,8 C 54 % 1014,8 hPa 0,0 mm 10,7 km/h (2 Bft) W 272 1 min 0,000 mm 7,0 UV-I 868 W/m 13,9 C 16,1 km/h (3 Bft)
05.07.2016 14:32 23,9 C 23,9 C 58 % 1014,7 hPa 0,0 mm 11,9 km/h (2 Bft) W 259 1 min 0,000 mm 6,8 UV-I 816 W/m 15,1 C 19,3 km/h (3 Bft)
05.07.2016 14:33 24,0 C 24,0 C 57 % 1014,8 hPa 0,0 mm 10,4 km/h (2 Bft) W-SW 239 1 min 0,000 mm 6,9 UV-I 814 W/m 14,9 C 17,7 km/h (3 Bft)
05.07.2016 14:34 24,0 C 24,1 C 53 % 1014,9 hPa 0,0 mm 13,2 km/h (3 Bft) W 273 1 min 0,000 mm 6,6 UV-I 763 W/m 13,8 C 20,9 km/h (4 Bft)
05.07.2016 14:35 24,0 C 24,0 C 56 % 1014,8 hPa 0,0 mm 11,3 km/h (2 Bft) W-SW 258 1 min 0,000 mm 6,5 UV-I 763 W/m 14,7 C 17,7 km/h (3 Bft)
05.07.2016 14:36 23,9 C 24,0 C 56 % 1014,8 hPa 0,0 mm 9,2 km/h (2 Bft) W 271 1 min 0,000 mm 6,8 UV-I 763 W/m 14,6 C 17,7 km/h (3 Bft)
05.07.2016 14:37 23,8 C 23,9 C 56 % 1014,7 hPa 0,0 mm 12,9 km/h (3 Bft) SW 223 1 min 0,000 mm 6,7 UV-I 819 W/m 14,5 C 22,5 km/h (4 Bft)
05.07.2016 14:38 23,8 C 23,8 C 56 % 1014,7 hPa 0,0 mm 13,5 km/h (3 Bft) W 278 1 min 0,000 mm 6,7 UV-I 849 W/m 14,5 C 27,4 km/h (4 Bft)
05.07.2016 14:39 23,8 C 23,8 C 51 % 1014,8 hPa 0,0 mm 16,3 km/h (3 Bft) W-NW 285 1 min 0,000 mm 7,3 UV-I 893 W/m 13,0 C 27,4 km/h (4 Bft)
05.07.2016 14:40 23,7 C 23,8 C 53 % 1014,8 hPa 0,0 mm 14,0 km/h (3 Bft) W-NW 290 1 min 0,000 mm 7,1 UV-I 860 W/m 13,5 C 20,9 km/h (4 Bft)
05.07.2016 14:41 23,7 C 23,7 C 54 % 1014,8 hPa 0,0 mm 13,3 km/h (3 Bft) W 263 1 min 0,000 mm 6,8 UV-I 784 W/m 13,8 C 22,5 km/h (4 Bft)
05.07.2016 14:42 23,7 C 23,7 C 53 % 1014,7 hPa 0,0 mm 13,6 km/h (3 Bft) NW 319 1 min 0,000 mm 6,4 UV-I 779 W/m 13,5 C 19,3 km/h (3 Bft)
05.07.2016 14:43 23,7 C 23,7 C 54 % 1014,8 hPa 0,0 mm 13,4 km/h (3 Bft) W 279 1 min 0,000 mm 6,5 UV-I 779 W/m 13,8 C 22,5 km/h (4 Bft)
05.07.2016 14:44 23,7 C 23,7 C 56 % 1014,7 hPa 0,0 mm 13,7 km/h (3 Bft) W-NW 288 1 min 0,000 mm 6,3 UV-I 765 W/m 14,4 C 24,1 km/h (4 Bft)
05.07.2016 14:45 23,6 C 23,7 C 55 % 1014,8 hPa 0,0 mm 11,9 km/h (2 Bft) NW 315 1 min 0,000 mm 6,3 UV-I 722 W/m 14,0 C 20,9 km/h (4 Bft)
05.07.2016 14:46 23,6 C 23,6 C 56 % 1014,7 hPa 0,0 mm 14,8 km/h (3 Bft) SW 228 1 min 0,000 mm 6,2 UV-I 680 W/m 14,3 C 22,5 km/h (4 Bft)
05.07.2016 14:47 23,6 C 23,6 C 57 % 1014,7 hPa 0,0 mm 12,1 km/h (2 Bft) W 265 1 min 0,000 mm 6,5 UV-I 758 W/m 14,6 C 16,1 km/h (3 Bft)
05.07.2016 14:48 23,6 C 23,6 C 57 % 1014,7 hPa 0,0 mm 5,4 km/h (1 Bft) W 272 1 min 0,000 mm 6,3 UV-I 775 W/m 14,6 C 8,0 km/h (2 Bft)
05.07.2016 14:49 23,7 C 23,7 C 58 % 1014,6 hPa 0,0 mm 11,6 km/h (2 Bft) W-NW 287 1 min 0,000 mm 6,3 UV-I 773 W/m 14,9 C 19,3 km/h (3 Bft)
05.07.2016 14:50 23,7 C 23,7 C 55 % 1014,8 hPa 0,0 mm 17,3 km/h (3 Bft) W 279 1 min 0,000 mm 6,6 UV-I 817 W/m 14,1 C 24,1 km/h (4 Bft)
05.07.2016 14:51 23,7 C 23,7 C 55 % 1014,6 hPa 0,0 mm 22,3 km/h (4 Bft) W 271 1 min 0,000 mm 6,7 UV-I 798 W/m 14,1 C 33,8 km/h (5 Bft)
05.07.2016 14:52 23,8 C 23,8 C 54 % 1014,7 hPa 0,0 mm 11,6 km/h (2 Bft) NW 323 1 min 0,000 mm 6,7 UV-I 744 W/m 13,9 C 20,9 km/h (4 Bft)
05.07.2016 14:53 23,8 C 23,8 C 57 % 1014,7 hPa 0,0 mm 9,4 km/h (2 Bft) NW 323 1 min 0,000 mm 6,6 UV-I 795 W/m 14,8 C 14,5 km/h (3 Bft)
05.07.2016 14:54 23,8 C 23,8 C 55 % 1014,6 hPa 0,0 mm 9,8 km/h (2 Bft) W-NW 285 1 min 0,000 mm 6,7 UV-I 835 W/m 14,2 C 17,7 km/h (3 Bft)
05.07.2016 14:55 23,8 C 23,8 C 55 % 1014,6 hPa 0,0 mm 12,7 km/h (3 Bft) W-SW 244 1 min 0,000 mm 6,7 UV-I 867 W/m 14,2 C 19,3 km/h (3 Bft)
05.07.2016 14:56 23,8 C 23,8 C 54 % 1014,7 hPa 0,0 mm 14,6 km/h (3 Bft) W 262 1 min 0,000 mm 6,6 UV-I 812 W/m 13,9 C 20,9 km/h (4 Bft)
05.07.2016 14:57 23,8 C 23,8 C 54 % 1014,6 hPa 0,0 mm 12,8 km/h (3 Bft) W 269 1 min 0,000 mm 6,3 UV-I 761 W/m 13,9 C 16,1 km/h (3 Bft)
05.07.2016 14:58 23,8 C 23,8 C 55 % 1014,7 hPa 0,0 mm 7,6 km/h (2 Bft) W 274 1 min 0,000 mm 5,5 UV-I 640 W/m 14,2 C 12,9 km/h (3 Bft)
05.07.2016 14:59 23,8 C 23,8 C 53 % 1014,6 hPa 0,0 mm 7,4 km/h (2 Bft) NW 304 1 min 0,000 mm 5,7 UV-I 657 W/m 13,6 C 12,9 km/h (3 Bft)
05.07.2016 15:00 23,8 C 23,8 C 54 % 1014,6 hPa 0,0 mm 9,0 km/h (2 Bft) W 265 1 min 0,559 mm 5,5 UV-I 631 W/m 13,9 C 16,1 km/h (3 Bft)
05.07.2016 15:01 23,9 C 23,9 C 54 % 1014,6 hPa 0,0 mm 10,6 km/h (2 Bft) W-NW 302 1 min 0,000 mm 5,8 UV-I 693 W/m 14,0 C 14,5 km/h (3 Bft)
05.07.2016 15:02 23,9 C 23,9 C 57 % 1014,6 hPa 0,0 mm 12,6 km/h (3 Bft) NW 313 1 min 0,000 mm 5,9 UV-I 673 W/m 14,9 C 19,3 km/h (3 Bft)
05.07.2016 15:03 24,0 C 24,0 C 55 % 1014,6 hPa 0,0 mm 9,3 km/h (2 Bft) W-NW 290 1 min 0,000 mm 5,9 UV-I 686 W/m 14,4 C 14,5 km/h (3 Bft)
05.07.2016 15:04 24,0 C 24,0 C 53 % 1014,6 hPa 0,0 mm 18,0 km/h (3 Bft) W-SW 253 1 min 0,000 mm 5,7 UV-I 675 W/m 13,8 C 27,4 km/h (4 Bft)
05.07.2016 15:05 23,9 C 24,0 C 53 % 1014,6 hPa 0,0 mm 15,6 km/h (3 Bft) W-SW 257 1 min 0,000 mm 5,3 UV-I 675 W/m 13,7 C 20,9 km/h (4 Bft)
05.07.2016 15:06 23,8 C 23,9 C 51 % 1014,6 hPa 0,0 mm 13,9 km/h (3 Bft) W 272 1 min 0,000 mm 6,0 UV-I 696 W/m 13,0 C 22,5 km/h (4 Bft)
05.07.2016 15:07 23,7 C 23,8 C 51 % 1014,7 hPa 0,0 mm 14,9 km/h (3 Bft) W-SW 242 1 min 0,000 mm 6,2 UV-I 696 W/m 13,0 C 22,5 km/h (4 Bft)
05.07.2016 15:08 23,7 C 23,7 C 53 % 1014,6 hPa 0,0 mm 15,3 km/h (3 Bft) W 280 1 min 0,000 mm 5,6 UV-I 696 W/m 13,5 C 22,5 km/h (4 Bft)
05.07.2016 15:09 23,6 C 23,7 C 54 % 1014,6 hPa 0,0 mm 16,4 km/h (3 Bft) W 271 1 min 0,000 mm 5,5 UV-I 740 W/m 13,7 C 24,1 km/h (4 Bft)
05.07.2016 15:10 23,6 C 23,6 C 54 % 1014,6 hPa 0,0 mm 10,1 km/h (2 Bft) W-SW 257 1 min 0,000 mm 6,1 UV-I 670 W/m 13,7 C 14,5 km/h (3 Bft)
05.07.2016 15:11 23,6 C 23,6 C 53 % 1014,5 hPa 0,0 mm 10,1 km/h (2 Bft) W 279 1 min 0,000 mm 3,6 UV-I 670 W/m 13,4 C 14,5 km/h (3 Bft)
05.07.2016 15:12 23,6 C 23,6 C 54 % 1014,5 hPa 0,0 mm 5,8 km/h (2 Bft) W-NW 302 1 min 0,000 mm 5,7 UV-I 670 W/m 13,7 C 9,7 km/h (2 Bft)
05.07.2016 15:13 23,6 C 23,6 C 55 % 1014,5 hPa 0,0 mm 7,8 km/h (2 Bft) W 269 1 min 0,000 mm 3,4 UV-I 670 W/m 14,0 C 12,9 km/h (3 Bft)
05.07.2016 15:14 23,6 C 23,6 C 54 % 1014,5 hPa 0,0 mm 5,0 km/h (1 Bft) W 259 1 min 0,000 mm 6,0 UV-I 670 W/m 13,7 C 9,7 km/h (2 Bft)
05.07.2016 15:15 23,5 C 23,6 C 53 % 1014,5 hPa 0,0 mm 5,8 km/h (2 Bft) W 264 1 min 0,000 mm 5,9 UV-I 784 W/m 13,4 C 11,3 km/h (2 Bft)
05.07.2016 15:16 23,5 C 23,5 C 55 % 1014,5 hPa 0,0 mm 7,6 km/h (2 Bft) SW 225 0 min 0,000 mm 3,2 UV-I 241 W/m 13,9 C 11,3 km/h (2 Bft)
05.07.2016 15:17 23,5 C 23,6 C 57 % 1014,4 hPa 0,0 mm 14,6 km/h (3 Bft) W-SW 242 0 min 0,000 mm 3,8 UV-I 272 W/m 14,5 C 24,1 km/h (4 Bft)
05.07.2016 15:18 23,4 C 23,5 C 54 % 1014,5 hPa 0,0 mm 18,6 km/h (3 Bft) W-NW 289 0 min 0,000 mm 6,1 UV-I 272 W/m 13,6 C 27,4 km/h (4 Bft)
05.07.2016 15:19 23,4 C 23,4 C 54 % 1014,6 hPa 0,0 mm 23,4 km/h (4 Bft) W 279 0 min 0,000 mm 6,2 UV-I 272 W/m 13,6 C 35,4 km/h (5 Bft)
05.07.2016 15:20 23,4 C 23,4 C 54 % 1014,5 hPa 0,0 mm 15,3 km/h (3 Bft) W 264 1 min 0,000 mm 6,1 UV-I 789 W/m 13,6 C 20,9 km/h (4 Bft)
05.07.2016 15:21 23,4 C 23,5 C 52 % 1014,5 hPa 0,0 mm 17,5 km/h (3 Bft) W-SW 244 1 min 0,000 mm 5,5 UV-I 735 W/m 13,0 C 30,6 km/h (5 Bft)
05.07.2016 15:22 23,4 C 23,5 C 51 % 1014,5 hPa 0,0 mm 16,3 km/h (3 Bft) W-SW 251 1 min 0,000 mm 5,8 UV-I 659 W/m 12,7 C 22,5 km/h (4 Bft)
05.07.2016 15:23 23,4 C 23,5 C 51 % 1014,5 hPa 0,0 mm 16,0 km/h (3 Bft) N-NW 340 1 min 0,000 mm 5,7 UV-I 752 W/m 12,7 C 20,9 km/h (4 Bft)
05.07.2016 15:24 23,4 C 23,4 C 53 % 1014,5 hPa 0,0 mm 14,1 km/h (3 Bft) NW 304 1 min 0,000 mm 5,7 UV-I 707 W/m 13,3 C 22,5 km/h (4 Bft)
05.07.2016 15:25 23,4 C 23,4 C 51 % 1014,4 hPa 0,0 mm 11,1 km/h (2 Bft) W-NW 295 1 min 0,000 mm 5,6 UV-I 698 W/m 12,7 C 20,9 km/h (4 Bft)
05.07.2016 15:26 23,4 C 23,4 C 52 % 1014,5 hPa 0,0 mm 16,8 km/h (3 Bft) W 279 1 min 0,000 mm 5,3 UV-I 671 W/m 13,0 C 24,1 km/h (4 Bft)
05.07.2016 15:27 23,5 C 23,5 C 53 % 1014,5 hPa 0,0 mm 15,6 km/h (3 Bft) W-SW 240 1 min 0,000 mm 5,5 UV-I 635 W/m 13,4 C 22,5 km/h (4 Bft)
05.07.2016 15:28 23,6 C 23,6 C 55 % 1014,5 hPa 0,0 mm 13,0 km/h (3 Bft) W-SW 247 1 min 0,000 mm 5,8 UV-I 635 W/m 14,0 C 20,9 km/h (4 Bft)
05.07.2016 15:29 23,6 C 23,6 C 54 % 1014,5 hPa 0,0 mm 15,2 km/h (3 Bft) W-NW 296 1 min 0,000 mm 5,7 UV-I 703 W/m 13,7 C 22,5 km/h (4 Bft)
05.07.2016 15:30 23,6 C 23,6 C 53 % 1014,5 hPa 0,0 mm 14,2 km/h (3 Bft) W-SW 255 1 min 0,000 mm 6,0 UV-I 777 W/m 13,4 C 19,3 km/h (3 Bft)
05.07.2016 15:31 23,6 C 23,7 C 55 % 1014,4 hPa 0,0 mm 11,7 km/h (2 Bft) W-NW 282 1 min 0,000 mm 5,9 UV-I 772 W/m 14,0 C 19,3 km/h (3 Bft)
05.07.2016 15:32 23,7 C 23,7 C 54 % 1014,5 hPa 0,0 mm 13,4 km/h (3 Bft) W 263 1 min 0,000 mm 5,8 UV-I 737 W/m 13,8 C 19,3 km/h (3 Bft)
05.07.2016 15:33 23,7 C 23,7 C 56 % 1014,4 hPa 0,0 mm 8,9 km/h (2 Bft) W-NW 295 1 min 0,000 mm 5,3 UV-I 624 W/m 14,4 C 14,5 km/h (3 Bft)
05.07.2016 15:34 23,8 C 23,8 C 56 % 1014,4 hPa 0,0 mm 6,8 km/h (2 Bft) W-NW 284 1 min 0,000 mm 4,6 UV-I 568 W/m 14,5 C 12,9 km/h (3 Bft)
05.07.2016 15:35 23,8 C 23,8 C 56 % 1014,4 hPa 0,0 mm 10,1 km/h (2 Bft) W 264 1 min 0,000 mm 5,3 UV-I 548 W/m 14,5 C 14,5 km/h (3 Bft)
05.07.2016 15:36 23,8 C 23,8 C 55 % 1014,4 hPa 0,0 mm 13,3 km/h (3 Bft) W 278 1 min 0,000 mm 5,7 UV-I 548 W/m 14,2 C 17,7 km/h (3 Bft)
05.07.2016 15:37 23,8 C 23,8 C 54 % 1014,5 hPa 0,0 mm 9,2 km/h (2 Bft) NW 323 1 min 0,000 mm 5,7 UV-I 548 W/m 13,9 C 14,5 km/h (3 Bft)
05.07.2016 15:38 23,8 C 23,8 C 57 % 1014,5 hPa 0,0 mm 12,0 km/h (2 Bft) NW 317 1 min 0,000 mm 5,7 UV-I 548 W/m 14,8 C 19,3 km/h (3 Bft)
05.07.2016 15:39 23,8 C 23,8 C 56 % 1014,4 hPa 0,0 mm 19,2 km/h (3 Bft) W-NW 300 1 min 0,000 mm 5,9 UV-I 835 W/m 14,5 C 30,6 km/h (5 Bft)
05.07.2016 15:40 23,8 C 23,9 C 53 % 1014,5 hPa 0,0 mm 16,6 km/h (3 Bft) W-SW 254 1 min 0,000 mm 5,8 UV-I 835 W/m 13,6 C 27,4 km/h (4 Bft)
05.07.2016 15:41 23,8 C 23,9 C 56 % 1014,6 hPa 0,0 mm 17,1 km/h (3 Bft) W 269 1 min 0,000 mm 4,8 UV-I 835 W/m 14,5 C 25,7 km/h (4 Bft)
05.07.2016 15:42 23,8 C 23,8 C 54 % 1014,6 hPa 0,0 mm 12,8 km/h (3 Bft) W 276 1 min 0,000 mm 5,2 UV-I 671 W/m 13,9 C 16,1 km/h (3 Bft)
05.07.2016 15:43 23,7 C 23,8 C 54 % 1014,5 hPa 0,0 mm 17,8 km/h (3 Bft) W-NW 296 1 min 0,000 mm 4,6 UV-I 603 W/m 13,8 C 25,7 km/h (4 Bft)
05.07.2016 15:44 23,7 C 23,7 C 57 % 1014,5 hPa 0,0 mm 11,9 km/h (2 Bft) W 275 1 min 0,000 mm 4,2 UV-I 540 W/m 14,7 C 19,3 km/h (3 Bft)
05.07.2016 15:45 23,7 C 23,7 C 57 % 1014,5 hPa 0,0 mm 12,2 km/h (2 Bft) W 278 1 min 0,000 mm 4,3 UV-I 643 W/m 14,7 C 20,9 km/h (4 Bft)
05.07.2016 15:46 23,7 C 23,7 C 55 % 1014,6 hPa 0,0 mm 15,4 km/h (3 Bft) W-NW 288 1 min 0,000 mm 4,7 UV-I 643 W/m 14,1 C 20,9 km/h (4 Bft)
05.07.2016 15:47 23,6 C 23,7 C 55 % 1014,5 hPa 0,0 mm 11,8 km/h (2 Bft) NW 319 1 min 0,000 mm 5,0 UV-I 561 W/m 14,0 C 22,5 km/h (4 Bft)
05.07.2016 15:48 23,6 C 23,7 C 54 % 1014,5 hPa 0,0 mm 21,0 km/h (4 Bft) W 263 1 min 0,000 mm 5,0 UV-I 647 W/m 13,7 C 32,2 km/h (5 Bft)
05.07.2016 15:49 23,6 C 23,6 C 55 % 1014,5 hPa 0,0 mm 16,4 km/h (3 Bft) NW 311 1 min 0,000 mm 5,0 UV-I 601 W/m 14,0 C 22,5 km/h (4 Bft)
05.07.2016 15:50 23,5 C 23,6 C 53 % 1014,6 hPa 0,0 mm 16,5 km/h (3 Bft) W 265 1 min 0,000 mm 4,9 UV-I 654 W/m 13,4 C 27,4 km/h (4 Bft)
05.07.2016 15:51 23,4 C 23,5 C 52 % 1014,6 hPa 0,0 mm 16,4 km/h (3 Bft) W-SW 245 1 min 0,000 mm 5,0 UV-I 643 W/m 13,0 C 25,7 km/h (4 Bft)
05.07.2016 15:52 23,3 C 23,4 C 53 % 1014,5 hPa 0,0 mm 12,3 km/h (3 Bft) W 262 1 min 0,000 mm 4,8 UV-I 643 W/m 13,2 C 17,7 km/h (3 Bft)
05.07.2016 15:53 23,3 C 23,3 C 55 % 1014,6 hPa 0,0 mm 12,1 km/h (2 Bft) W-SW 242 1 min 0,000 mm 5,1 UV-I 643 W/m 13,7 C 20,9 km/h (4 Bft)
05.07.2016 15:54 23,3 C 23,3 C 55 % 1014,5 hPa 0,0 mm 16,9 km/h (3 Bft) W-SW 244 1 min 0,000 mm 5,0 UV-I 659 W/m 13,7 C 22,5 km/h (4 Bft)
05.07.2016 15:55 23,3 C 23,3 C 53 % 1014,5 hPa 0,0 mm 16,2 km/h (3 Bft) W 272 1 min 0,000 mm 5,0 UV-I 671 W/m 13,2 C 27,4 km/h (4 Bft)
05.07.2016 15:56 23,2 C 23,3 C 54 % 1014,5 hPa 0,0 mm 11,3 km/h (2 Bft) W 280 1 min 0,000 mm 5,1 UV-I 673 W/m 13,4 C 16,1 km/h (3 Bft)
05.07.2016 15:57 23,3 C 23,3 C 57 % 1014,5 hPa 0,0 mm 10,7 km/h (2 Bft) W-SW 255 1 min 0,000 mm 4,7 UV-I 598 W/m 14,3 C 16,1 km/h (3 Bft)
05.07.2016 15:58 23,4 C 23,4 C 55 % 1014,5 hPa 0,0 mm 18,1 km/h (3 Bft) W 281 1 min 0,000 mm 4,9 UV-I 606 W/m 13,8 C 22,5 km/h (4 Bft)
05.07.2016 15:59 23,4 C 23,4 C 55 % 1014,6 hPa 0,0 mm 16,1 km/h (3 Bft) W 273 1 min 0,000 mm 4,9 UV-I 654 W/m 13,8 C 29,0 km/h (5 Bft)
05.07.2016 16:00 23,3 C 23,4 C 53 % 1014,5 hPa 0,0 mm 18,2 km/h (3 Bft) W 259 1 min 0,000 mm 4,7 UV-I 654 W/m 13,2 C 27,4 km/h (4 Bft)
05.07.2016 16:01 23,3 C 23,3 C 55 % 1014,6 hPa 0,0 mm 18,4 km/h (3 Bft) W 275 1 min 0,482 mm 4,4 UV-I 654 W/m 13,7 C 22,5 km/h (4 Bft)
05.07.2016 16:02 23,3 C 23,3 C 53 % 1014,6 hPa 0,0 mm 15,1 km/h (3 Bft) NW 306 1 min 0,000 mm 4,4 UV-I 613 W/m 13,2 C 20,9 km/h (4 Bft)
05.07.2016 16:03 23,2 C 23,3 C 54 % 1014,5 hPa 0,0 mm 17,1 km/h (3 Bft) W-SW 240 1 min 0,000 mm 4,5 UV-I 613 W/m 13,4 C 24,1 km/h (4 Bft)
05.07.2016 16:04 23,2 C 23,2 C 55 % 1014,5 hPa 0,0 mm 12,4 km/h (3 Bft) W-NW 287 1 min 0,000 mm 4,8 UV-I 628 W/m 13,6 C 24,1 km/h (4 Bft)
05.07.2016 16:05 23,2 C 23,2 C 56 % 1014,5 hPa 0,0 mm 8,5 km/h (2 Bft) W-NW 286 1 min 0,000 mm 4,6 UV-I 636 W/m 13,9 C 14,5 km/h (3 Bft)
05.07.2016 16:06 23,2 C 23,2 C 54 % 1014,4 hPa 0,0 mm 8,5 km/h (2 Bft) W-NW 294 1 min 0,000 mm 4,8 UV-I 659 W/m 13,4 C 11,3 km/h (2 Bft)
05.07.2016 16:07 23,2 C 23,2 C 56 % 1014,5 hPa 0,0 mm 5,8 km/h (2 Bft) W 273 1 min 0,000 mm 4,8 UV-I 666 W/m 13,9 C 9,7 km/h (2 Bft)
05.07.2016 16:08 23,3 C 23,3 C 58 % 1014,4 hPa 0,0 mm 5,6 km/h (1 Bft) W 278 1 min 0,000 mm 5,0 UV-I 733 W/m 14,6 C 6,4 km/h (2 Bft)
05.07.2016 16:09 23,3 C 23,3 C 57 % 1014,4 hPa 0,0 mm 6,6 km/h (2 Bft) W-NW 296 1 min 0,000 mm 5,1 UV-I 708 W/m 14,3 C 19,3 km/h (3 Bft)
05.07.2016 16:10 23,4 C 23,4 C 57 % 1014,4 hPa 0,0 mm 16,6 km/h (3 Bft) NW 309 1 min 0,000 mm 4,9 UV-I 677 W/m 14,4 C 20,9 km/h (4 Bft)
05.07.2016 16:11 23,4 C 23,4 C 55 % 1014,4 hPa 0,0 mm 14,3 km/h (3 Bft) W-NW 301 1 min 0,000 mm 5,0 UV-I 701 W/m 13,8 C 19,3 km/h (3 Bft)
05.07.2016 16:12 23,4 C 23,4 C 53 % 1014,4 hPa 0,0 mm 14,3 km/h (3 Bft) W-NW 290 1 min 0,000 mm 5,0 UV-I 705 W/m 13,3 C 22,5 km/h (4 Bft)
05.07.2016 16:13 23,4 C 23,4 C 56 % 1014,3 hPa 0,0 mm 14,0 km/h (3 Bft) W-NW 290 1 min 0,000 mm 5,1 UV-I 735 W/m 14,1 C 19,3 km/h (3 Bft)
05.07.2016 16:14 23,4 C 23,4 C 57 % 1014,4 hPa 0,0 mm 13,7 km/h (3 Bft) W 265 1 min 0,000 mm 5,0 UV-I 664 W/m 14,4 C 22,5 km/h (4 Bft)
05.07.2016 16:15 23,4 C 23,4 C 55 % 1014,4 hPa 0,0 mm 18,2 km/h (3 Bft) W 265 1 min 0,000 mm 3,9 UV-I 664 W/m 13,8 C 24,1 km/h (4 Bft)
05.07.2016 16:16 23,4 C 23,4 C 54 % 1014,4 hPa 0,0 mm 14,7 km/h (3 Bft) W 265 1 min 0,000 mm 3,1 UV-I 664 W/m 13,6 C 24,1 km/h (4 Bft)
05.07.2016 16:17 23,3 C 23,4 C 54 % 1014,3 hPa 0,0 mm 16,8 km/h (3 Bft) W 263 0 min 0,000 mm 2,6 UV-I 197 W/m 13,5 C 24,1 km/h (4 Bft)
05.07.2016 16:18 23,3 C 23,3 C 56 % 1014,4 hPa 0,0 mm 12,5 km/h (3 Bft) NW 325 0 min 0,000 mm 2,6 UV-I 186 W/m 14,0 C 19,3 km/h (3 Bft)
05.07.2016 16:19 23,2 C 23,3 C 56 % 1014,4 hPa 0,0 mm 11,6 km/h (2 Bft) W-NW 297 0 min 0,000 mm 2,6 UV-I 181 W/m 13,9 C 17,7 km/h (3 Bft)
05.07.2016 16:20 23,2 C 23,3 C 57 % 1014,4 hPa 0,0 mm 11,9 km/h (2 Bft) W 263 0 min 0,000 mm 2,6 UV-I 171 W/m 14,2 C 16,1 km/h (3 Bft)
05.07.2016 16:21 23,3 C 23,3 C 56 % 1014,3 hPa 0,0 mm 12,9 km/h (3 Bft) W 278 0 min 0,000 mm 2,6 UV-I 169 W/m 14,0 C 16,1 km/h (3 Bft)
05.07.2016 16:22 23,3 C 23,3 C 55 % 1014,4 hPa 0,0 mm 12,9 km/h (3 Bft) W-NW 300 0 min 0,000 mm 2,5 UV-I 169 W/m 13,7 C 17,7 km/h (3 Bft)
05.07.2016 16:23 23,3 C 23,3 C 56 % 1014,4 hPa 0,0 mm 14,2 km/h (3 Bft) W 275 0 min 0,000 mm 2,6 UV-I 171 W/m 14,0 C 19,3 km/h (3 Bft)
05.07.2016 16:24 23,3 C 23,3 C 57 % 1014,4 hPa 0,0 mm 17,6 km/h (3 Bft) W-SW 257 0 min 0,000 mm 2,6 UV-I 174 W/m 14,3 C 25,7 km/h (4 Bft)
05.07.2016 16:25 23,3 C 23,3 C 56 % 1014,4 hPa 0,0 mm 18,4 km/h (3 Bft) W 269 0 min 0,000 mm 2,6 UV-I 169 W/m 14,0 C 22,5 km/h (4 Bft)
05.07.2016 16:26 23,3 C 23,3 C 55 % 1014,3 hPa 0,0 mm 16,8 km/h (3 Bft) W 279 0 min 0,000 mm 2,6 UV-I 160 W/m 13,7 C 27,4 km/h (4 Bft)
05.07.2016 16:27 23,2 C 23,3 C 53 % 1014,2 hPa 0,0 mm 21,1 km/h (4 Bft) NW 310 0 min 0,000 mm 2,6 UV-I 163 W/m 13,1 C 30,6 km/h (5 Bft)
05.07.2016 16:28 23,2 C 23,2 C 55 % 1014,2 hPa 0,0 mm 12,3 km/h (3 Bft) W-NW 299 0 min 0,000 mm 2,6 UV-I 156 W/m 13,6 C 17,7 km/h (3 Bft)
05.07.2016 16:29 23,2 C 23,2 C 59 % 1014,3 hPa 0,0 mm 9,5 km/h (2 Bft) W 262 0 min 0,000 mm 2,5 UV-I 149 W/m 14,7 C 14,5 km/h (3 Bft)
05.07.2016 16:30 23,3 C 23,3 C 59 % 1014,2 hPa 0,0 mm 15,2 km/h (3 Bft) W 273 0 min 0,000 mm 2,5 UV-I 144 W/m 14,8 C 25,7 km/h (4 Bft)
05.07.2016 16:31 23,2 C 23,3 C 53 % 1014,2 hPa 0,0 mm 21,0 km/h (4 Bft) W-NW 286 0 min 0,000 mm 2,5 UV-I 139 W/m 13,1 C 29,0 km/h (5 Bft)
05.07.2016 16:32 23,2 C 23,2 C 53 % 1014,3 hPa 0,0 mm 17,9 km/h (3 Bft) NW 312 0 min 0,000 mm 2,4 UV-I 135 W/m 13,1 C 25,7 km/h (4 Bft)
05.07.2016 16:33 23,1 C 23,2 C 53 % 1014,2 hPa 0,0 mm 16,4 km/h (3 Bft) W 274 0 min 0,000 mm 2,4 UV-I 139 W/m 13,0 C 24,1 km/h (4 Bft)
05.07.2016 16:34 23,2 C 23,2 C 55 % 1014,2 hPa 0,0 mm 10,7 km/h (2 Bft) NW 306 0 min 0,000 mm 2,4 UV-I 144 W/m 13,6 C 24,1 km/h (4 Bft)
05.07.2016 16:35 23,2 C 23,2 C 56 % 1014,2 hPa 0,0 mm 14,1 km/h (3 Bft) W 267 0 min 0,000 mm 2,4 UV-I 149 W/m 13,9 C 24,1 km/h (4 Bft)
05.07.2016 16:36 23,2 C 23,2 C 56 % 1014,2 hPa 0,0 mm 12,6 km/h (3 Bft) W 274 0 min 0,000 mm 2,4 UV-I 146 W/m 13,9 C 17,7 km/h (3 Bft)
05.07.2016 16:37 23,3 C 23,3 C 55 % 1014,1 hPa 0,0 mm 15,0 km/h (3 Bft) W-SW 251 0 min 0,000 mm 2,4 UV-I 167 W/m 13,7 C 17,7 km/h (3 Bft)
05.07.2016 16:38 23,3 C 23,3 C 54 % 1014,1 hPa 0,0 mm 17,4 km/h (3 Bft) NW 312 0 min 0,000 mm 2,4 UV-I 146 W/m 13,5 C 24,1 km/h (4 Bft)
05.07.2016 16:39 23,3 C 23,3 C 54 % 1014,1 hPa 0,0 mm 16,1 km/h (3 Bft) SW 225 0 min 0,000 mm 2,4 UV-I 146 W/m 13,5 C 24,1 km/h (4 Bft)
05.07.2016 16:40 23,3 C 23,3 C 53 % 1014,1 hPa 0,0 mm 16,4 km/h (3 Bft) W-NW 288 0 min 0,000 mm 2,4 UV-I 146 W/m 13,2 C 22,5 km/h (4 Bft)
05.07.2016 16:41 23,2 C 23,3 C 53 % 1014,1 hPa 0,0 mm 18,0 km/h (3 Bft) W-SW 256 0 min 0,000 mm 2,4 UV-I 139 W/m 13,1 C 27,4 km/h (4 Bft)
05.07.2016 16:42 23,2 C 23,2 C 54 % 1014,1 hPa 0,0 mm 17,2 km/h (3 Bft) W 269 0 min 0,000 mm 2,3 UV-I 139 W/m 13,4 C 29,0 km/h (5 Bft)
05.07.2016 16:43 23,2 C 23,2 C 55 % 1014,0 hPa 0,0 mm 12,2 km/h (2 Bft) W-NW 296 0 min 0,000 mm 2,3 UV-I 137 W/m 13,6 C 17,7 km/h (3 Bft)
05.07.2016 16:44 23,2 C 23,2 C 54 % 1014,0 hPa 0,0 mm 11,2 km/h (2 Bft) W-NW 289 0 min 0,000 mm 2,2 UV-I 134 W/m 13,4 C 17,7 km/h (3 Bft)
05.07.2016 16:45 23,2 C 23,2 C 54 % 1014,1 hPa 0,0 mm 14,0 km/h (3 Bft) W-NW 296 0 min 0,000 mm 2,2 UV-I 135 W/m 13,4 C 19,3 km/h (3 Bft)
05.07.2016 16:46 23,2 C 23,2 C 55 % 1014,1 hPa 0,0 mm 12,9 km/h (3 Bft) W 261 0 min 0,000 mm 2,2 UV-I 135 W/m 13,6 C 17,7 km/h (3 Bft)
05.07.2016 16:47 23,3 C 23,3 C 55 % 1014,0 hPa 0,0 mm 9,0 km/h (2 Bft) W 271 0 min 0,000 mm 2,3 UV-I 141 W/m 13,7 C 14,5 km/h (3 Bft)
05.07.2016 16:48 23,3 C 23,3 C 55 % 1014,0 hPa 0,0 mm 7,4 km/h (2 Bft) W 261 0 min 0,000 mm 2,3 UV-I 146 W/m 13,7 C 12,9 km/h (3 Bft)
05.07.2016 16:49 23,4 C 23,4 C 55 % 1014,0 hPa 0,0 mm 11,8 km/h (2 Bft) W-SW 250 0 min 0,000 mm 2,3 UV-I 153 W/m 13,8 C 19,3 km/h (3 Bft)
05.07.2016 16:50 23,4 C 23,4 C 54 % 1014,0 hPa 0,0 mm 11,9 km/h (2 Bft) W 268 0 min 0,000 mm 2,3 UV-I 155 W/m 13,6 C 19,3 km/h (3 Bft)
05.07.2016 16:51 23,3 C 23,4 C 54 % 1014,0 hPa 0,0 mm 14,4 km/h (3 Bft) N-NW 343 0 min 0,000 mm 2,3 UV-I 153 W/m 13,5 C 22,5 km/h (4 Bft)
05.07.2016 16:52 23,3 C 23,3 C 51 % 1014,0 hPa 0,0 mm 14,6 km/h (3 Bft) NW 304 0 min 0,000 mm 2,3 UV-I 160 W/m 12,6 C 24,1 km/h (4 Bft)
05.07.2016 16:53 23,3 C 23,3 C 54 % 1014,0 hPa 0,0 mm 12,2 km/h (2 Bft) W-NW 295 0 min 0,000 mm 2,3 UV-I 158 W/m 13,5 C 19,3 km/h (3 Bft)
05.07.2016 16:54 23,3 C 23,3 C 54 % 1013,9 hPa 0,0 mm 12,3 km/h (3 Bft) W 279 0 min 0,000 mm 2,2 UV-I 160 W/m 13,5 C 19,3 km/h (3 Bft)
05.07.2016 16:55 23,3 C 23,3 C 53 % 1014,0 hPa 0,0 mm 9,3 km/h (2 Bft) W 279 0 min 0,000 mm 2,2 UV-I 165 W/m 13,2 C 14,5 km/h (3 Bft)
05.07.2016 16:56 23,4 C 23,4 C 55 % 1014,1 hPa 0,0 mm 11,9 km/h (2 Bft) W 270 0 min 0,000 mm 2,2 UV-I 169 W/m 13,8 C 17,7 km/h (3 Bft)
05.07.2016 16:57 23,4 C 23,4 C 56 % 1014,1 hPa 0,0 mm 14,6 km/h (3 Bft) W 281 0 min 0,000 mm 2,2 UV-I 176 W/m 14,1 C 20,9 km/h (4 Bft)
05.07.2016 16:58 23,4 C 23,4 C 54 % 1014,0 hPa 0,0 mm 11,5 km/h (2 Bft) W 271 0 min 0,000 mm 2,2 UV-I 181 W/m 13,6 C 17,7 km/h (3 Bft)
05.07.2016 16:59 23,4 C 23,4 C 52 % 1014,0 hPa 0,0 mm 11,3 km/h (2 Bft) W 277 0 min 0,000 mm 2,2 UV-I 190 W/m 13,0 C 17,7 km/h (3 Bft)
05.07.2016 17:00 23,3 C 23,4 C 56 % 1014,1 hPa 0,0 mm 10,8 km/h (2 Bft) SW 231 0 min 0,000 mm 2,1 UV-I 195 W/m 14,0 C 16,1 km/h (3 Bft)
05.07.2016 17:01 23,3 C 23,3 C 53 % 1014,0 hPa 0,0 mm 13,3 km/h (3 Bft) W 263 0 min 0,279 mm 2,4 UV-I 209 W/m 13,2 C 20,9 km/h (4 Bft)
05.07.2016 17:02 23,3 C 23,3 C 54 % 1014,1 hPa 0,0 mm 16,4 km/h (3 Bft) W-SW 256 0 min 0,001 mm 2,4 UV-I 211 W/m 13,5 C 27,4 km/h (4 Bft)
05.07.2016 17:03 23,3 C 23,3 C 53 % 1014,0 hPa 0,0 mm 13,0 km/h (3 Bft) W-NW 297 0 min 0,000 mm 2,4 UV-I 211 W/m 13,2 C 19,3 km/h (3 Bft)
05.07.2016 17:04 23,4 C 23,4 C 55 % 1014,0 hPa 0,0 mm 10,9 km/h (2 Bft) W-NW 298 0 min 0,000 mm 2,4 UV-I 211 W/m 13,8 C 20,9 km/h (4 Bft)
05.07.2016 17:05 23,4 C 23,4 C 53 % 1014,0 hPa 0,0 mm 17,4 km/h (3 Bft) W 265 0 min 0,000 mm 2,4 UV-I 209 W/m 13,3 C 27,4 km/h (4 Bft)
05.07.2016 17:06 23,4 C 23,4 C 55 % 1014,0 hPa 0,0 mm 14,3 km/h (3 Bft) W 269 0 min 0,000 mm 2,3 UV-I 200 W/m 13,8 C 25,7 km/h (4 Bft)
05.07.2016 17:07 23,4 C 23,4 C 53 % 1014,0 hPa 0,0 mm 15,7 km/h (3 Bft) W-NW 284 0 min 0,000 mm 2,3 UV-I 200 W/m 13,3 C 24,1 km/h (4 Bft)
05.07.2016 17:08 23,3 C 23,4 C 51 % 1014,0 hPa 0,0 mm 14,6 km/h (3 Bft) SW 226 0 min 0,000 mm 2,3 UV-I 199 W/m 12,6 C 17,7 km/h (3 Bft)
05.07.2016 17:09 23,3 C 23,3 C 52 % 1014,0 hPa 0,0 mm 13,3 km/h (3 Bft) NW 304 0 min 0,000 mm 2,3 UV-I 193 W/m 12,9 C 17,7 km/h (3 Bft)
05.07.2016 17:10 23,3 C 23,3 C 54 % 1014,0 hPa 0,0 mm 9,3 km/h (2 Bft) W-NW 284 0 min 0,000 mm 2,2 UV-I 190 W/m 13,5 C 12,9 km/h (3 Bft)
05.07.2016 17:11 23,3 C 23,3 C 55 % 1014,0 hPa 0,0 mm 12,8 km/h (3 Bft) W-NW 292 0 min 0,000 mm 2,2 UV-I 190 W/m 13,7 C 27,4 km/h (4 Bft)
05.07.2016 17:12 23,3 C 23,3 C 52 % 1014,0 hPa 0,0 mm 17,5 km/h (3 Bft) N-NW 344 0 min 0,000 mm 2,2 UV-I 179 W/m 12,9 C 24,1 km/h (4 Bft)
05.07.2016 17:13 23,3 C 23,4 C 50 % 1014,0 hPa 0,0 mm 18,2 km/h (3 Bft) W-SW 238 0 min 0,000 mm 1,8 UV-I 179 W/m 12,3 C 27,4 km/h (4 Bft)
05.07.2016 17:14 23,3 C 23,3 C 52 % 1014,0 hPa 0,0 mm 15,4 km/h (3 Bft) W-SW 242 0 min 0,000 mm 2,1 UV-I 167 W/m 12,9 C 32,2 km/h (5 Bft)
05.07.2016 17:15 23,3 C 23,3 C 52 % 1014,0 hPa 0,0 mm 12,6 km/h (3 Bft) NW 311 0 min 0,000 mm 2,1 UV-I 160 W/m 12,9 C 22,5 km/h (4 Bft)
05.07.2016 17:16 23,3 C 23,3 C 53 % 1013,9 hPa 0,0 mm 12,9 km/h (3 Bft) W 278 0 min 0,000 mm 2,0 UV-I 153 W/m 13,2 C 19,3 km/h (3 Bft)
05.07.2016 17:17 23,3 C 23,3 C 54 % 1014,0 hPa 0,0 mm 12,7 km/h (3 Bft) W-SW 254 0 min 0,000 mm 2,0 UV-I 151 W/m 13,5 C 19,3 km/h (3 Bft)
05.07.2016 17:18 23,3 C 23,3 C 56 % 1014,0 hPa 0,0 mm 11,0 km/h (2 Bft) W 265 0 min 0,000 mm 1,9 UV-I 162 W/m 14,0 C 24,1 km/h (4 Bft)
05.07.2016 17:19 23,3 C 23,3 C 53 % 1014,0 hPa 0,0 mm 15,5 km/h (3 Bft) W-NW 292 0 min 0,000 mm 1,9 UV-I 171 W/m 13,2 C 22,5 km/h (4 Bft)
05.07.2016 17:20 23,3 C 23,3 C 54 % 1014,0 hPa 0,0 mm 15,3 km/h (3 Bft) W-NW 289 0 min 0,000 mm 2,1 UV-I 171 W/m 13,5 C 20,9 km/h (4 Bft)
05.07.2016 17:21 23,2 C 23,3 C 53 % 1013,9 hPa 0,0 mm 12,2 km/h (2 Bft) W 267 0 min 0,000 mm 2,1 UV-I 160 W/m 13,1 C 20,9 km/h (4 Bft)
05.07.2016 17:22 23,2 C 23,3 C 53 % 1014,0 hPa 0,0 mm 10,3 km/h (2 Bft) NW 304 0 min 0,000 mm 2,0 UV-I 185 W/m 13,1 C 16,1 km/h (3 Bft)
05.07.2016 17:23 23,3 C 23,3 C 54 % 1014,0 hPa 0,0 mm 13,4 km/h (3 Bft) W-SW 244 0 min 0,000 mm 2,0 UV-I 162 W/m 13,5 C 19,3 km/h (3 Bft)
05.07.2016 17:24 23,3 C 23,3 C 53 % 1013,9 hPa 0,0 mm 10,9 km/h (2 Bft) W-NW 290 0 min 0,000 mm 2,0 UV-I 162 W/m 13,2 C 14,5 km/h (3 Bft)
05.07.2016 17:25 23,3 C 23,3 C 52 % 1013,9 hPa 0,0 mm 10,0 km/h (2 Bft) W 279 0 min 0,000 mm 2,0 UV-I 146 W/m 12,9 C 19,3 km/h (3 Bft)
05.07.2016 17:26 23,4 C 23,4 C 55 % 1013,9 hPa 0,0 mm 7,3 km/h (2 Bft) W 273 0 min 0,000 mm 1,9 UV-I 128 W/m 13,8 C 11,3 km/h (2 Bft)
05.07.2016 17:27 23,3 C 23,4 C 53 % 1013,9 hPa 0,0 mm 13,9 km/h (3 Bft) W 267 0 min 0,000 mm 1,8 UV-I 125 W/m 13,2 C 24,1 km/h (4 Bft)
05.07.2016 17:28 23,3 C 23,3 C 52 % 1013,8 hPa 0,0 mm 9,5 km/h (2 Bft) W 273 0 min 0,000 mm 1,8 UV-I 130 W/m 12,9 C 12,9 km/h (3 Bft)
05.07.2016 17:29 23,2 C 23,3 C 55 % 1013,9 hPa 0,0 mm 6,2 km/h (2 Bft) NW 304 0 min 0,000 mm 1,8 UV-I 137 W/m 13,6 C 11,3 km/h (2 Bft)
05.07.2016 17:30 23,1 C 23,2 C 55 % 1013,9 hPa 0,0 mm 9,0 km/h (2 Bft) W 267 0 min 0,000 mm 1,8 UV-I 148 W/m 13,6 C 19,3 km/h (3 Bft)
05.07.2016 17:31 23,1 C 23,1 C 54 % 1013,9 hPa 0,0 mm 12,2 km/h (2 Bft) NW 306 0 min 0,000 mm 1,8 UV-I 155 W/m 13,3 C 19,3 km/h (3 Bft)
05.07.2016 17:32 23,2 C 23,2 C 54 % 1013,9 hPa 0,0 mm 13,1 km/h (3 Bft) W-NW 290 0 min 0,000 mm 1,7 UV-I 134 W/m 13,4 C 16,1 km/h (3 Bft)
05.07.2016 17:33 23,1 C 23,2 C 54 % 1013,9 hPa 0,0 mm 9,5 km/h (2 Bft) W-NW 285 0 min 0,000 mm 1,7 UV-I 125 W/m 13,3 C 16,1 km/h (3 Bft)
05.07.2016 17:34 23,1 C 23,1 C 53 % 1013,9 hPa 0,0 mm 8,9 km/h (2 Bft) W 271 0 min 0,000 mm 1,7 UV-I 132 W/m 13,0 C 14,5 km/h (3 Bft)
05.07.2016 17:35 22,9 C 23,1 C 52 % 1013,9 hPa 0,0 mm 19,9 km/h (4 Bft) NW 304 0 min 0,000 mm 1,7 UV-I 128 W/m 12,5 C 29,0 km/h (5 Bft)
05.07.2016 17:36 22,8 C 22,9 C 53 % 1013,9 hPa 0,0 mm 11,7 km/h (2 Bft) W 279 0 min 0,000 mm 1,7 UV-I 130 W/m 12,7 C 20,9 km/h (4 Bft)
05.07.2016 17:37 22,8 C 22,9 C 52 % 1013,9 hPa 0,0 mm 10,8 km/h (2 Bft) W-NW 288 0 min 0,000 mm 1,7 UV-I 130 W/m 12,4 C 20,9 km/h (4 Bft)
05.07.2016 17:38 22,7 C 22,8 C 53 % 1013,9 hPa 0,0 mm 9,3 km/h (2 Bft) W-SW 250 0 min 0,000 mm 1,7 UV-I 135 W/m 12,6 C 17,7 km/h (3 Bft)
05.07.2016 17:39 22,6 C 22,7 C 53 % 1013,9 hPa 0,0 mm 12,7 km/h (3 Bft) W-NW 294 0 min 0,000 mm 1,7 UV-I 132 W/m 12,5 C 24,1 km/h (4 Bft)
05.07.2016 17:40 22,5 C 22,6 C 52 % 1013,9 hPa 0,0 mm 11,3 km/h (2 Bft) W-NW 300 0 min 0,000 mm 1,7 UV-I 134 W/m 12,1 C 16,1 km/h (3 Bft)
05.07.2016 17:41 22,4 C 22,5 C 53 % 1013,9 hPa 0,0 mm 8,8 km/h (2 Bft) W-NW 302 0 min 0,000 mm 1,7 UV-I 128 W/m 12,3 C 12,9 km/h (3 Bft)
05.07.2016 17:42 22,4 C 22,4 C 54 % 1013,9 hPa 0,0 mm 8,5 km/h (2 Bft) W-NW 286 0 min 0,000 mm 1,6 UV-I 132 W/m 12,6 C 12,9 km/h (3 Bft)
05.07.2016 17:43 22,4 C 22,4 C 53 % 1013,9 hPa 0,0 mm 12,5 km/h (3 Bft) W 281 0 min 0,000 mm 1,6 UV-I 123 W/m 12,3 C 17,7 km/h (3 Bft)
05.07.2016 17:44 22,4 C 22,4 C 51 % 1013,8 hPa 0,0 mm 9,2 km/h (2 Bft) W-SW 240 0 min 0,000 mm 1,6 UV-I 127 W/m 11,8 C 17,7 km/h (3 Bft)
05.07.2016 17:45 22,4 C 22,4 C 55 % 1013,8 hPa 0,0 mm 11,3 km/h (2 Bft) W 269 0 min 0,000 mm 1,6 UV-I 125 W/m 12,9 C 16,1 km/h (3 Bft)
05.07.2016 17:46 22,4 C 22,5 C 55 % 1013,9 hPa 0,0 mm 11,3 km/h (2 Bft) W-NW 288 0 min 0,000 mm 1,6 UV-I 120 W/m 12,9 C 17,7 km/h (3 Bft)
05.07.2016 17:47 22,4 C 22,5 C 53 % 1013,9 hPa 0,0 mm 14,8 km/h (3 Bft) W-NW 296 0 min 0,000 mm 1,6 UV-I 116 W/m 12,3 C 24,1 km/h (4 Bft)
05.07.2016 17:48 22,4 C 22,4 C 52 % 1013,9 hPa 0,0 mm 9,9 km/h (2 Bft) W-NW 291 0 min 0,000 mm 1,5 UV-I 116 W/m 12,1 C 16,1 km/h (3 Bft)
05.07.2016 17:49 22,4 C 22,4 C 54 % 1013,9 hPa 0,0 mm 12,3 km/h (3 Bft) W-SW 254 0 min 0,000 mm 1,5 UV-I 111 W/m 12,6 C 17,7 km/h (3 Bft)
05.07.2016 17:50 22,4 C 22,4 C 52 % 1013,9 hPa 0,0 mm 10,6 km/h (2 Bft) W-SW 239 0 min 0,000 mm 1,5 UV-I 105 W/m 12,1 C 17,7 km/h (3 Bft)
05.07.2016 17:51 22,3 C 22,4 C 54 % 1013,9 hPa 0,0 mm 8,1 km/h (2 Bft) W 269 0 min 0,000 mm 1,5 UV-I 104 W/m 12,5 C 12,9 km/h (3 Bft)
05.07.2016 17:52 22,3 C 22,3 C 53 % 1013,9 hPa 0,0 mm 13,7 km/h (3 Bft) SW 233 0 min 0,000 mm 1,5 UV-I 114 W/m 12,2 C 19,3 km/h (3 Bft)
05.07.2016 17:53 22,3 C 22,3 C 54 % 1013,9 hPa 0,0 mm 10,9 km/h (2 Bft) W-NW 292 0 min 0,000 mm 1,5 UV-I 127 W/m 12,5 C 14,5 km/h (3 Bft)
05.07.2016 17:54 22,2 C 22,3 C 54 % 1013,9 hPa 0,0 mm 7,6 km/h (2 Bft) W-SW 258 0 min 0,000 mm 1,5 UV-I 128 W/m 12,4 C 12,9 km/h (3 Bft)
05.07.2016 17:55 22,2 C 22,2 C 53 % 1013,8 hPa 0,0 mm 8,2 km/h (2 Bft) NW 313 0 min 0,000 mm 1,6 UV-I 128 W/m 12,2 C 11,3 km/h (2 Bft)
05.07.2016 17:56 22,2 C 22,2 C 55 % 1013,8 hPa 0,0 mm 7,3 km/h (2 Bft) W-SW 257 0 min 0,000 mm 1,5 UV-I 125 W/m 12,7 C 11,3 km/h (2 Bft)
05.07.2016 17:57 22,2 C 22,2 C 57 % 1013,9 hPa 0,0 mm 4,6 km/h (1 Bft) W-NW 285 0 min 0,000 mm 1,5 UV-I 120 W/m 13,3 C 9,7 km/h (2 Bft)
05.07.2016 17:58 22,1 C 22,2 C 56 % 1013,9 hPa 0,0 mm 7,4 km/h (2 Bft) W 279 0 min 0,000 mm 1,5 UV-I 116 W/m 12,9 C 9,7 km/h (2 Bft)
05.07.2016 17:59 22,1 C 22,1 C 54 % 1013,9 hPa 0,0 mm 7,2 km/h (2 Bft) W 263 0 min 0,000 mm 1,5 UV-I 123 W/m 12,3 C 11,3 km/h (2 Bft)
05.07.2016 18:00 22,1 C 22,1 C 56 % 1013,9 hPa 0,0 mm 7,1 km/h (2 Bft) W-NW 285 0 min 0,000 mm 1,5 UV-I 132 W/m 12,9 C 11,3 km/h (2 Bft)
05.07.2016 18:01 22,1 C 22,1 C 59 % 1013,9 hPa 0,0 mm 5,4 km/h (1 Bft) W-NW 294 0 min 0,178 mm 1,5 UV-I 132 W/m 13,7 C 9,7 km/h (2 Bft)
05.07.2016 18:02 22,1 C 22,1 C 55 % 1013,9 hPa 0,0 mm 4,2 km/h (1 Bft) W-SW 242 0 min 0,000 mm 1,5 UV-I 130 W/m 12,6 C 6,4 km/h (2 Bft)
05.07.2016 18:03 22,2 C 22,2 C 56 % 1013,9 hPa 0,0 mm 4,8 km/h (1 Bft) NW 309 0 min 0,000 mm 1,5 UV-I 139 W/m 13,0 C 6,4 km/h (2 Bft)
05.07.2016 18:04 22,3 C 22,3 C 58 % 1013,9 hPa 0,0 mm 6,4 km/h (2 Bft) W-NW 288 0 min 0,000 mm 1,5 UV-I 141 W/m 13,6 C 11,3 km/h (2 Bft)
05.07.2016 18:05 22,3 C 22,3 C 54 % 1013,9 hPa 0,0 mm 5,8 km/h (2 Bft) W-NW 296 0 min 0,000 mm 1,5 UV-I 142 W/m 12,5 C 9,7 km/h (2 Bft)
05.07.2016 18:06 22,4 C 22,4 C 55 % 1013,9 hPa 0,0 mm 8,1 km/h (2 Bft) W-NW 294 0 min 0,000 mm 1,5 UV-I 144 W/m 12,9 C 12,9 km/h (3 Bft)
05.07.2016 18:07 22,6 C 22,6 C 58 % 1013,9 hPa 0,0 mm 6,2 km/h (2 Bft) NW 312 0 min 0,000 mm 1,5 UV-I 144 W/m 13,9 C 11,3 km/h (2 Bft)
05.07.2016 18:08 22,7 C 22,7 C 56 % 1013,9 hPa 0,0 mm 5,0 km/h (1 Bft) W-SW 256 0 min 0,000 mm 1,5 UV-I 146 W/m 13,5 C 8,0 km/h (2 Bft)
05.07.2016 18:09 22,8 C 22,8 C 55 % 1014,0 hPa 0,0 mm 6,3 km/h (2 Bft) W 281 0 min 0,000 mm 1,5 UV-I 148 W/m 13,3 C 11,3 km/h (2 Bft)
05.07.2016 18:10 22,8 C 22,8 C 56 % 1014,0 hPa 0,0 mm 12,7 km/h (3 Bft) W-SW 255 0 min 0,000 mm 1,5 UV-I 141 W/m 13,6 C 20,9 km/h (4 Bft)
05.07.2016 18:11 22,8 C 22,8 C 54 % 1013,9 hPa 0,0 mm 11,4 km/h (2 Bft) NW 309 0 min 0,000 mm 1,5 UV-I 139 W/m 13,0 C 16,1 km/h (3 Bft)
05.07.2016 18:12 22,8 C 22,8 C 55 % 1013,9 hPa 0,0 mm 12,6 km/h (3 Bft) W 277 0 min 0,000 mm 1,5 UV-I 151 W/m 13,3 C 22,5 km/h (4 Bft)
05.07.2016 18:13 22,8 C 22,8 C 52 % 1014,0 hPa 0,0 mm 13,4 km/h (3 Bft) W 259 0 min 0,000 mm 1,5 UV-I 160 W/m 12,4 C 22,5 km/h (4 Bft)
05.07.2016 18:14 22,8 C 22,9 C 53 % 1013,9 hPa 0,0 mm 11,2 km/h (2 Bft) W-SW 258 0 min 0,000 mm 1,6 UV-I 165 W/m 12,7 C 14,5 km/h (3 Bft)
05.07.2016 18:15 22,9 C 22,9 C 52 % 1014,0 hPa 0,0 mm 11,9 km/h (2 Bft) NW 326 0 min 0,000 mm 1,6 UV-I 179 W/m 12,5 C 22,5 km/h (4 Bft)
05.07.2016 18:16 22,9 C 22,9 C 53 % 1014,0 hPa 0,0 mm 9,6 km/h (2 Bft) W 275 0 min 0,000 mm 1,5 UV-I 151 W/m 12,8 C 17,7 km/h (3 Bft)
05.07.2016 18:17 22,8 C 22,9 C 54 % 1014,0 hPa 0,0 mm 11,7 km/h (2 Bft) W 269 0 min 0,000 mm 1,5 UV-I 149 W/m 13,0 C 17,7 km/h (3 Bft)
05.07.2016 18:18 22,8 C 22,8 C 53 % 1014,0 hPa 0,0 mm 12,1 km/h (2 Bft) W 273 0 min 0,000 mm 1,5 UV-I 149 W/m 12,7 C 16,1 km/h (3 Bft)
05.07.2016 18:19 22,7 C 22,8 C 52 % 1014,0 hPa 0,0 mm 15,9 km/h (3 Bft) W-SW 244 0 min 0,000 mm 1,5 UV-I 153 W/m 12,3 C 20,9 km/h (4 Bft)
05.07.2016 18:20 22,7 C 22,7 C 51 % 1014,0 hPa 0,0 mm 9,7 km/h (2 Bft) W-SW 242 0 min 0,000 mm 1,5 UV-I 134 W/m 12,0 C 17,7 km/h (3 Bft)
05.07.2016 18:21 22,7 C 22,7 C 53 % 1014,0 hPa 0,0 mm 13,0 km/h (3 Bft) W-SW 248 0 min 0,000 mm 1,5 UV-I 130 W/m 12,6 C 17,7 km/h (3 Bft)
05.07.2016 18:22 22,6 C 22,7 C 54 % 1014,0 hPa 0,0 mm 6,4 km/h (2 Bft) W-SW 254 0 min 0,000 mm 1,4 UV-I 137 W/m 12,8 C 9,7 km/h (2 Bft)
05.07.2016 18:23 22,6 C 22,6 C 54 % 1014,0 hPa 0,0 mm 12,1 km/h (2 Bft) W-NW 299 0 min 0,000 mm 1,4 UV-I 128 W/m 12,8 C 16,1 km/h (3 Bft)
05.07.2016 18:24 22,6 C 22,6 C 54 % 1014,0 hPa 0,0 mm 14,3 km/h (3 Bft) W-SW 237 0 min 0,000 mm 1,4 UV-I 134 W/m 12,8 C 20,9 km/h (4 Bft)
05.07.2016 18:25 22,7 C 22,7 C 53 % 1014,0 hPa 0,0 mm 15,8 km/h (3 Bft) W-NW 292 0 min 0,000 mm 1,4 UV-I 130 W/m 12,6 C 20,9 km/h (4 Bft)
05.07.2016 18:26 22,7 C 22,7 C 54 % 1014,0 hPa 0,0 mm 9,2 km/h (2 Bft) W 261 0 min 0,000 mm 1,3 UV-I 123 W/m 12,9 C 14,5 km/h (3 Bft)
05.07.2016 18:27 22,7 C 22,7 C 54 % 1014,0 hPa 0,0 mm 10,4 km/h (2 Bft) W 272 0 min 0,000 mm 1,3 UV-I 113 W/m 12,9 C 16,1 km/h (3 Bft)
05.07.2016 18:28 22,7 C 22,7 C 54 % 1014,0 hPa 0,0 mm 16,4 km/h (3 Bft) W-SW 244 0 min 0,000 mm 1,3 UV-I 109 W/m 12,9 C 20,9 km/h (4 Bft)
05.07.2016 18:29 22,5 C 22,7 C 54 % 1014,0 hPa 0,0 mm 14,9 km/h (3 Bft) W 261 0 min 0,000 mm 1,3 UV-I 104 W/m 12,7 C 19,3 km/h (3 Bft)
05.07.2016 18:30 22,4 C 22,5 C 54 % 1014,0 hPa 0,0 mm 9,9 km/h (2 Bft) W-NW 282 0 min 0,000 mm 1,2 UV-I 97 W/m 12,6 C 17,7 km/h (3 Bft)
05.07.2016 18:31 22,3 C 22,4 C 53 % 1014,1 hPa 0,0 mm 9,3 km/h (2 Bft) W-SW 242 0 min 0,000 mm 1,2 UV-I 91 W/m 12,2 C 16,1 km/h (3 Bft)
05.07.2016 18:32 22,2 C 22,3 C 54 % 1014,0 hPa 0,0 mm 6,7 km/h (2 Bft) W 270 0 min 0,000 mm 1,2 UV-I 100 W/m 12,4 C 9,7 km/h (2 Bft)
05.07.2016 18:33 22,2 C 22,2 C 56 % 1014,1 hPa 0,0 mm 12,6 km/h (3 Bft) SW 230 0 min 0,000 mm 1,2 UV-I 102 W/m 13,0 C 17,7 km/h (3 Bft)
05.07.2016 18:34 22,1 C 22,2 C 53 % 1014,0 hPa 0,0 mm 9,5 km/h (2 Bft) W-SW 254 0 min 0,000 mm 1,2 UV-I 111 W/m 12,1 C 14,5 km/h (3 Bft)
05.07.2016 18:35 21,9 C 22,1 C 53 % 1014,0 hPa 0,0 mm 7,7 km/h (2 Bft) W-NW 286 0 min 0,000 mm 1,2 UV-I 116 W/m 11,9 C 11,3 km/h (2 Bft)
05.07.2016 18:36 21,9 C 21,9 C 54 % 1014,0 hPa 0,0 mm 8,1 km/h (2 Bft) W 280 0 min 0,000 mm 1,3 UV-I 120 W/m 12,2 C 11,3 km/h (2 Bft)
05.07.2016 18:37 21,9 C 21,9 C 55 % 1014,0 hPa 0,0 mm 6,4 km/h (2 Bft) W-NW 291 0 min 0,000 mm 1,6 UV-I 135 W/m 12,4 C 14,5 km/h (3 Bft)
05.07.2016 18:38 21,9 C 21,9 C 53 % 1014,1 hPa 0,0 mm 10,8 km/h (2 Bft) W-SW 246 0 min 0,000 mm 1,7 UV-I 135 W/m 11,9 C 17,7 km/h (3 Bft)
05.07.2016 18:39 21,9 C 21,9 C 55 % 1013,9 hPa 0,0 mm 5,2 km/h (1 Bft) W 281 0 min 0,000 mm 1,2 UV-I 134 W/m 12,4 C 11,3 km/h (2 Bft)
05.07.2016 18:40 21,9 C 21,9 C 56 % 1014,0 hPa 0,0 mm 3,9 km/h (1 Bft) SW 221 0 min 0,000 mm 1,5 UV-I 127 W/m 12,7 C 9,7 km/h (2 Bft)
05.07.2016 18:41 21,9 C 21,9 C 55 % 1013,9 hPa 0,0 mm 5,0 km/h (1 Bft) W-SW 252 0 min 0,000 mm 1,3 UV-I 137 W/m 12,4 C 8,0 km/h (2 Bft)
05.07.2016 18:42 22,0 C 22,0 C 52 % 1013,9 hPa 0,0 mm 9,4 km/h (2 Bft) W-NW 288 0 min 0,000 mm 1,2 UV-I 120 W/m 11,7 C 16,1 km/h (3 Bft)
05.07.2016 18:43 22,0 C 22,0 C 54 % 1013,9 hPa 0,0 mm 10,6 km/h (2 Bft) W-SW 246 0 min 0,000 mm 1,2 UV-I 113 W/m 12,3 C 19,3 km/h (3 Bft)
05.07.2016 18:44 21,9 C 22,0 C 55 % 1014,0 hPa 0,0 mm 8,2 km/h (2 Bft) NW 312 0 min 0,000 mm 1,2 UV-I 120 W/m 12,4 C 16,1 km/h (3 Bft)
05.07.2016 18:45 21,9 C 21,9 C 51 % 1014,1 hPa 0,0 mm 15,4 km/h (3 Bft) W 275 0 min 0,000 mm 1,2 UV-I 111 W/m 11,3 C 30,6 km/h (5 Bft)
05.07.2016 18:46 21,9 C 21,9 C 52 % 1013,9 hPa 0,0 mm 12,7 km/h (3 Bft) W-SW 247 0 min 0,000 mm 1,2 UV-I 113 W/m 11,6 C 24,1 km/h (4 Bft)
05.07.2016 18:47 21,8 C 21,9 C 51 % 1014,1 hPa 0,0 mm 9,9 km/h (2 Bft) W-SW 251 0 min 0,000 mm 1,3 UV-I 134 W/m 11,2 C 14,5 km/h (3 Bft)
05.07.2016 18:48 21,8 C 21,8 C 52 % 1014,1 hPa 0,0 mm 9,0 km/h (2 Bft) W-SW 250 0 min 0,000 mm 1,2 UV-I 111 W/m 11,5 C 17,7 km/h (3 Bft)
05.07.2016 18:49 21,8 C 21,8 C 52 % 1014,0 hPa 0,0 mm 10,5 km/h (2 Bft) W-NW 289 0 min 0,000 mm 1,2 UV-I 102 W/m 11,5 C 16,1 km/h (3 Bft)
05.07.2016 18:50 21,7 C 21,8 C 53 % 1014,0 hPa 0,0 mm 10,8 km/h (2 Bft) W 274 0 min 0,000 mm 1,2 UV-I 105 W/m 11,7 C 17,7 km/h (3 Bft)
05.07.2016 18:51 21,7 C 21,7 C 50 % 1014,0 hPa 0,0 mm 13,3 km/h (3 Bft) W-SW 243 0 min 0,000 mm 1,2 UV-I 105 W/m 10,8 C 19,3 km/h (3 Bft)
05.07.2016 18:52 21,7 C 21,7 C 50 % 1014,0 hPa 0,0 mm 10,3 km/h (2 Bft) NW 311 0 min 0,000 mm 1,1 UV-I 95 W/m 10,8 C 17,7 km/h (3 Bft)
05.07.2016 18:53 21,7 C 21,7 C 50 % 1014,0 hPa 0,0 mm 6,4 km/h (2 Bft) W 281 0 min 0,000 mm 1,1 UV-I 148 W/m 10,8 C 9,7 km/h (2 Bft)
05.07.2016 18:54 21,7 C 21,7 C 50 % 1014,0 hPa 0,0 mm 9,0 km/h (2 Bft) W-SW 244 1 min 0,000 mm 1,4 UV-I 214 W/m 10,8 C 16,1 km/h (3 Bft)
05.07.2016 18:55 21,7 C 21,7 C 50 % 1014,1 hPa 0,0 mm 10,2 km/h (2 Bft) SW 234 1 min 0,000 mm 1,1 UV-I 214 W/m 10,8 C 16,1 km/h (3 Bft)
05.07.2016 18:56 21,7 C 21,7 C 50 % 1014,1 hPa 0,0 mm 7,9 km/h (2 Bft) W-NW 295 1 min 0,000 mm 1,2 UV-I 214 W/m 10,8 C 14,5 km/h (3 Bft)
05.07.2016 18:57 21,8 C 21,8 C 52 % 1014,1 hPa 0,0 mm 9,5 km/h (2 Bft) W-SW 244 1 min 0,000 mm 1,5 UV-I 214 W/m 11,5 C 16,1 km/h (3 Bft)
05.07.2016 18:58 21,8 C 21,8 C 50 % 1014,1 hPa 0,0 mm 6,4 km/h (2 Bft) W-SW 246 1 min 0,000 mm 1,5 UV-I 374 W/m 10,9 C 12,9 km/h (3 Bft)
05.07.2016 18:59 21,9 C 21,9 C 49 % 1014,1 hPa 0,0 mm 15,0 km/h (3 Bft) W-SW 239 0 min 0,000 mm 1,1 UV-I 105 W/m 10,7 C 22,5 km/h (4 Bft)
05.07.2016 19:00 21,9 C 21,9 C 50 % 1014,1 hPa 0,0 mm 13,2 km/h (3 Bft) W 273 0 min 0,000 mm 1,0 UV-I 105 W/m 11,0 C 19,3 km/h (3 Bft)
05.07.2016 19:01 21,9 C 21,9 C 49 % 1014,1 hPa 0,0 mm 8,4 km/h (2 Bft) W 273 0 min 0,152 mm 1,0 UV-I 105 W/m 10,7 C 11,3 km/h (2 Bft)
05.07.2016 19:02 21,8 C 21,9 C 49 % 1014,1 hPa 0,0 mm 11,3 km/h (2 Bft) W 271 0 min 0,000 mm 1,0 UV-I 107 W/m 10,6 C 19,3 km/h (3 Bft)
05.07.2016 19:03 21,8 C 21,8 C 50 % 1014,1 hPa 0,0 mm 6,8 km/h (2 Bft) SW 232 0 min 0,000 mm 1,0 UV-I 111 W/m 10,9 C 11,3 km/h (2 Bft)
05.07.2016 19:04 21,7 C 21,8 C 50 % 1014,1 hPa 0,0 mm 6,3 km/h (2 Bft) W-SW 238 0 min 0,000 mm 1,0 UV-I 114 W/m 10,8 C 14,5 km/h (3 Bft)
05.07.2016 19:05 21,7 C 21,7 C 50 % 1014,1 hPa 0,0 mm 5,6 km/h (1 Bft) W-SW 243 1 min 0,000 mm 1,1 UV-I 181 W/m 10,8 C 12,9 km/h (3 Bft)
05.07.2016 19:06 21,7 C 21,7 C 52 % 1014,1 hPa 0,0 mm 12,5 km/h (3 Bft) W-SW 250 0 min 0,000 mm 0,9 UV-I 107 W/m 11,4 C 27,4 km/h (4 Bft)
05.07.2016 19:07 21,7 C 21,7 C 50 % 1014,1 hPa 0,0 mm 11,5 km/h (2 Bft) W-SW 248 0 min 0,000 mm 0,9 UV-I 104 W/m 10,8 C 20,9 km/h (4 Bft)
05.07.2016 19:08 21,7 C 21,7 C 51 % 1014,0 hPa 0,0 mm 7,8 km/h (2 Bft) W-SW 241 0 min 0,000 mm 0,9 UV-I 100 W/m 11,1 C 14,5 km/h (3 Bft)
05.07.2016 19:09 21,6 C 21,7 C 52 % 1014,0 hPa 0,0 mm 6,5 km/h (2 Bft) SW 229 0 min 0,000 mm 0,9 UV-I 98 W/m 11,3 C 16,1 km/h (3 Bft)
05.07.2016 19:10 21,6 C 21,6 C 52 % 1014,0 hPa 0,0 mm 4,7 km/h (1 Bft) W-NW 294 0 min 0,000 mm 0,9 UV-I 97 W/m 11,3 C 6,4 km/h (2 Bft)
05.07.2016 19:11 21,5 C 21,6 C 51 % 1014,0 hPa 0,0 mm 11,1 km/h (2 Bft) W-NW 284 0 min 0,000 mm 0,9 UV-I 95 W/m 10,9 C 20,9 km/h (4 Bft)
05.07.2016 19:12 21,5 C 21,6 C 50 % 1014,0 hPa 0,0 mm 5,2 km/h (1 Bft) W-NW 283 0 min 0,000 mm 0,9 UV-I 95 W/m 10,6 C 12,9 km/h (3 Bft)
05.07.2016 19:13 21,5 C 21,5 C 51 % 1014,0 hPa 0,0 mm 3,5 km/h (1 Bft) W-SW 242 0 min 0,000 mm 0,9 UV-I 98 W/m 10,9 C 6,4 km/h (2 Bft)
05.07.2016 19:14 21,5 C 21,5 C 51 % 1014,0 hPa 0,0 mm 9,4 km/h (2 Bft) W-SW 250 0 min 0,000 mm 1,1 UV-I 98 W/m 10,9 C 14,5 km/h (3 Bft)
05.07.2016 19:15 21,6 C 21,6 C 52 % 1014,0 hPa 0,0 mm 6,5 km/h (2 Bft) W-NW 302 1 min 0,000 mm 1,0 UV-I 190 W/m 11,3 C 11,3 km/h (2 Bft)
05.07.2016 19:16 21,6 C 21,6 C 54 % 1014,0 hPa 0,0 mm 4,8 km/h (1 Bft) W 268 1 min 0,000 mm 1,1 UV-I 283 W/m 11,9 C 11,3 km/h (2 Bft)
05.07.2016 19:17 21,7 C 21,7 C 53 % 1014,1 hPa 0,0 mm 7,4 km/h (2 Bft) W 279 1 min 0,000 mm 0,9 UV-I 258 W/m 11,7 C 11,3 km/h (2 Bft)
05.07.2016 19:18 21,8 C 21,8 C 52 % 1014,0 hPa 0,0 mm 4,4 km/h (1 Bft) W 263 1 min 0,000 mm 1,1 UV-I 234 W/m 11,5 C 8,0 km/h (2 Bft)
05.07.2016 19:19 21,8 C 21,8 C 52 % 1014,0 hPa 0,0 mm 4,4 km/h (1 Bft) SW 225 1 min 0,000 mm 0,9 UV-I 218 W/m 11,5 C 8,0 km/h (2 Bft)
05.07.2016 19:20 21,9 C 21,9 C 52 % 1014,0 hPa 0,0 mm 6,1 km/h (2 Bft) W 260 1 min 0,000 mm 1,0 UV-I 265 W/m 11,6 C 9,7 km/h (2 Bft)
05.07.2016 19:21 22,0 C 22,0 C 52 % 1014,1 hPa 0,0 mm 6,1 km/h (2 Bft) W 267 1 min 0,000 mm 1,0 UV-I 272 W/m 11,7 C 9,7 km/h (2 Bft)
05.07.2016 19:22 22,1 C 22,1 C 52 % 1014,1 hPa 0,0 mm 3,8 km/h (1 Bft) W-NW 286 1 min 0,000 mm 1,0 UV-I 260 W/m 11,8 C 6,4 km/h (2 Bft)
05.07.2016 19:23 22,1 C 22,1 C 54 % 1014,0 hPa 0,0 mm 6,2 km/h (2 Bft) W-SW 250 1 min 0,000 mm 1,0 UV-I 269 W/m 12,3 C 14,5 km/h (3 Bft)
05.07.2016 19:24 22,2 C 22,2 C 52 % 1014,1 hPa 0,0 mm 10,1 km/h (2 Bft) W-SW 258 1 min 0,000 mm 0,8 UV-I 269 W/m 11,9 C 16,1 km/h (3 Bft)
05.07.2016 19:25 22,2 C 22,2 C 52 % 1014,2 hPa 0,0 mm 9,2 km/h (2 Bft) W-SW 257 0 min 0,000 mm 0,8 UV-I 109 W/m 11,9 C 14,5 km/h (3 Bft)
05.07.2016 19:26 22,1 C 22,2 C 52 % 1014,1 hPa 0,0 mm 6,0 km/h (2 Bft) W-SW 250 0 min 0,000 mm 0,8 UV-I 83 W/m 11,8 C 9,7 km/h (2 Bft)
05.07.2016 19:27 22,0 C 22,1 C 52 % 1014,1 hPa 0,0 mm 9,1 km/h (2 Bft) W 265 1 min 0,000 mm 0,8 UV-I 178 W/m 11,7 C 12,9 km/h (3 Bft)
05.07.2016 19:28 22,0 C 22,0 C 51 % 1014,1 hPa 0,0 mm 8,4 km/h (2 Bft) W 259 1 min 0,000 mm 0,9 UV-I 230 W/m 11,4 C 12,9 km/h (3 Bft)
05.07.2016 19:29 21,9 C 22,0 C 54 % 1014,1 hPa 0,0 mm 9,1 km/h (2 Bft) NW 312 1 min 0,000 mm 0,9 UV-I 243 W/m 12,2 C 17,7 km/h (3 Bft)
05.07.2016 19:30 21,9 C 21,9 C 53 % 1014,2 hPa 0,0 mm 14,3 km/h (3 Bft) W-SW 247 1 min 0,000 mm 0,8 UV-I 243 W/m 11,9 C 17,7 km/h (3 Bft)
05.07.2016 19:31 21,9 C 21,9 C 51 % 1014,2 hPa 0,0 mm 12,0 km/h (2 Bft) W-SW 249 1 min 0,000 mm 0,8 UV-I 181 W/m 11,3 C 16,1 km/h (3 Bft)
05.07.2016 19:32 22,0 C 22,0 C 50 % 1014,2 hPa 0,0 mm 13,5 km/h (3 Bft) W-SW 246 1 min 0,000 mm 0,8 UV-I 232 W/m 11,1 C 20,9 km/h (4 Bft)
05.07.2016 19:33 22,0 C 22,0 C 52 % 1014,2 hPa 0,0 mm 10,2 km/h (2 Bft) SW 223 1 min 0,000 mm 0,8 UV-I 230 W/m 11,7 C 17,7 km/h (3 Bft)
05.07.2016 19:34 22,0 C 22,0 C 51 % 1014,2 hPa 0,0 mm 18,4 km/h (3 Bft) W-SW 258 1 min 0,000 mm 0,8 UV-I 223 W/m 11,4 C 22,5 km/h (4 Bft)
05.07.2016 19:35 22,0 C 22,0 C 47 % 1014,1 hPa 0,0 mm 15,0 km/h (3 Bft) W-SW 257 1 min 0,000 mm 0,8 UV-I 223 W/m 10,2 C 22,5 km/h (4 Bft)
05.07.2016 19:36 22,1 C 22,1 C 47 % 1014,1 hPa 0,0 mm 8,6 km/h (2 Bft) SW 229 1 min 0,000 mm 0,8 UV-I 223 W/m 10,3 C 14,5 km/h (3 Bft)
05.07.2016 19:37 22,1 C 22,1 C 49 % 1014,1 hPa 0,0 mm 8,9 km/h (2 Bft) W 267 1 min 0,000 mm 0,8 UV-I 223 W/m 10,9 C 14,5 km/h (3 Bft)
05.07.2016 19:38 22,1 C 22,1 C 48 % 1014,2 hPa 0,0 mm 11,2 km/h (2 Bft) NW 318 1 min 0,000 mm 0,8 UV-I 221 W/m 10,6 C 17,7 km/h (3 Bft)
05.07.2016 19:39 22,1 C 22,2 C 48 % 1014,2 hPa 0,0 mm 9,1 km/h (2 Bft) W 261 1 min 0,000 mm 0,8 UV-I 202 W/m 10,6 C 16,1 km/h (3 Bft)
05.07.2016 19:40 22,2 C 22,2 C 49 % 1014,2 hPa 0,0 mm 9,0 km/h (2 Bft) SW 225 1 min 0,000 mm 0,7 UV-I 195 W/m 11,0 C 12,9 km/h (3 Bft)
05.07.2016 19:41 22,2 C 22,2 C 48 % 1014,3 hPa 0,0 mm 10,1 km/h (2 Bft) W-NW 290 1 min 0,000 mm 0,7 UV-I 134 W/m 10,7 C 16,1 km/h (3 Bft)
05.07.2016 19:42 22,2 C 22,2 C 47 % 1014,3 hPa 0,0 mm 11,4 km/h (2 Bft) W 276 0 min 0,000 mm 0,6 UV-I 83 W/m 10,3 C 17,7 km/h (3 Bft)
05.07.2016 19:43 22,1 C 22,2 C 46 % 1014,3 hPa 0,0 mm 12,7 km/h (3 Bft) W-NW 287 0 min 0,000 mm 0,6 UV-I 77 W/m 9,9 C 19,3 km/h (3 Bft)
05.07.2016 19:44 22,1 C 22,1 C 47 % 1014,3 hPa 0,0 mm 7,6 km/h (2 Bft) W-NW 290 0 min 0,000 mm 0,6 UV-I 76 W/m 10,3 C 12,9 km/h (3 Bft)
05.07.2016 19:45 21,9 C 22,1 C 47 % 1014,3 hPa 0,0 mm 11,7 km/h (2 Bft) W-SW 252 1 min 0,000 mm 0,6 UV-I 149 W/m 10,1 C 17,7 km/h (3 Bft)
05.07.2016 19:46 21,8 C 21,9 C 47 % 1014,2 hPa 0,0 mm 16,8 km/h (3 Bft) W-SW 257 1 min 0,000 mm 0,6 UV-I 172 W/m 10,0 C 20,9 km/h (4 Bft)
05.07.2016 19:47 21,8 C 21,8 C 47 % 1014,2 hPa 0,0 mm 15,0 km/h (3 Bft) SW 219 1 min 0,000 mm 0,6 UV-I 163 W/m 10,0 C 20,9 km/h (4 Bft)
05.07.2016 19:48 21,8 C 21,8 C 47 % 1014,3 hPa 0,0 mm 14,2 km/h (3 Bft) W-SW 246 1 min 0,000 mm 0,6 UV-I 156 W/m 10,0 C 20,9 km/h (4 Bft)
05.07.2016 19:49 21,8 C 21,8 C 46 % 1014,3 hPa 0,0 mm 18,5 km/h (3 Bft) W-NW 300 1 min 0,000 mm 0,5 UV-I 127 W/m 9,7 C 29,0 km/h (5 Bft)
05.07.2016 19:50 21,7 C 21,8 C 47 % 1014,3 hPa 0,0 mm 9,6 km/h (2 Bft) W-NW 294 0 min 0,000 mm 0,5 UV-I 63 W/m 9,9 C 20,9 km/h (4 Bft)
05.07.2016 19:51 21,7 C 21,7 C 47 % 1014,3 hPa 0,0 mm 12,0 km/h (2 Bft) W-SW 245 0 min 0,000 mm 0,0 UV-I 37 W/m 9,9 C 19,3 km/h (3 Bft)
05.07.2016 19:52 21,6 C 21,7 C 47 % 1014,3 hPa 0,0 mm 13,5 km/h (3 Bft) W-NW 292 0 min 0,000 mm 0,5 UV-I 79 W/m 9,8 C 16,1 km/h (3 Bft)
05.07.2016 19:53 21,5 C 21,6 C 47 % 1014,4 hPa 0,0 mm 11,2 km/h (2 Bft) W-NW 303 0 min 0,000 mm 0,5 UV-I 74 W/m 9,7 C 16,1 km/h (3 Bft)
05.07.2016 19:54 21,4 C 21,5 C 49 % 1014,4 hPa 0,0 mm 12,1 km/h (2 Bft) W 281 0 min 0,000 mm 0,5 UV-I 88 W/m 10,2 C 17,7 km/h (3 Bft)
05.07.2016 19:55 21,3 C 21,4 C 50 % 1014,3 hPa 0,0 mm 7,5 km/h (2 Bft) W 269 0 min 0,000 mm 0,0 UV-I 63 W/m 10,4 C 17,7 km/h (3 Bft)
05.07.2016 19:56 21,2 C 21,3 C 49 % 1014,3 hPa 0,0 mm 7,3 km/h (2 Bft) W-SW 248 1 min 0,000 mm 0,0 UV-I 123 W/m 10,1 C 14,5 km/h (3 Bft)
05.07.2016 19:57 21,2 C 21,2 C 51 % 1014,4 hPa 0,0 mm 6,7 km/h (2 Bft) W 267 1 min 0,000 mm 0,0 UV-I 121 W/m 10,7 C 9,7 km/h (2 Bft)
05.07.2016 19:58 21,2 C 21,2 C 49 % 1014,3 hPa 0,0 mm 10,7 km/h (2 Bft) W-NW 294 1 min 0,000 mm 0,0 UV-I 118 W/m 10,1 C 14,5 km/h (3 Bft)
05.07.2016 19:59 21,3 C 21,3 C 50 % 1014,3 hPa 0,0 mm 8,7 km/h (2 Bft) W 271 1 min 0,000 mm 0,0 UV-I 118 W/m 10,4 C 14,5 km/h (3 Bft)
05.07.2016 20:00 21,3 C 21,3 C 51 % 1014,3 hPa 0,0 mm 8,3 km/h (2 Bft) W 264 1 min 0,000 mm 0,0 UV-I 116 W/m 10,7 C 12,9 km/h (3 Bft)
05.07.2016 20:01 21,2 C 21,3 C 51 % 1014,3 hPa 0,0 mm 7,3 km/h (2 Bft) W-NW 291 1 min 0,178 mm 0,0 UV-I 114 W/m 10,7 C 12,9 km/h (3 Bft)
05.07.2016 20:02 21,2 C 21,3 C 48 % 1014,3 hPa 0,0 mm 9,9 km/h (2 Bft) W-NW 300 1 min 0,000 mm 0,0 UV-I 111 W/m 9,7 C 14,5 km/h (3 Bft)
05.07.2016 20:03 21,3 C 21,3 C 50 % 1014,3 hPa 0,0 mm 8,3 km/h (2 Bft) W-SW 238 1 min 0,000 mm 0,0 UV-I 111 W/m 10,4 C 12,9 km/h (3 Bft)
05.07.2016 20:04 21,3 C 21,3 C 52 % 1014,3 hPa 0,0 mm 10,5 km/h (2 Bft) W-NW 300 1 min 0,000 mm 0,0 UV-I 111 W/m 11,0 C 17,7 km/h (3 Bft)
05.07.2016 20:05 21,3 C 21,3 C 49 % 1014,3 hPa 0,0 mm 11,7 km/h (2 Bft) W-NW 291 1 min 0,000 mm 0,0 UV-I 111 W/m 10,1 C 16,1 km/h (3 Bft)
05.07.2016 20:06 21,4 C 21,4 C 49 % 1014,3 hPa 0,0 mm 8,4 km/h (2 Bft) S-SW 198 1 min 0,000 mm 0,0 UV-I 111 W/m 10,2 C 14,5 km/h (3 Bft)
05.07.2016 20:07 21,3 C 21,4 C 49 % 1014,2 hPa 0,0 mm 13,7 km/h (3 Bft) W 279 1 min 0,000 mm 0,0 UV-I 111 W/m 10,1 C 22,5 km/h (4 Bft)
05.07.2016 20:08 21,4 C 21,4 C 49 % 1014,2 hPa 0,0 mm 10,1 km/h (2 Bft) W-SW 244 0 min 0,000 mm 0,0 UV-I 47 W/m 10,2 C 16,1 km/h (3 Bft)
05.07.2016 20:09 21,4 C 21,4 C 48 % 1014,2 hPa 0,0 mm 11,7 km/h (2 Bft) W 273 0 min 0,000 mm 0,0 UV-I 46 W/m 9,9 C 14,5 km/h (3 Bft)
05.07.2016 20:10 21,3 C 21,4 C 49 % 1014,3 hPa 0,0 mm 9,3 km/h (2 Bft) SW 228 0 min 0,000 mm 0,0 UV-I 46 W/m 10,1 C 14,5 km/h (3 Bft)
05.07.2016 20:11 21,3 C 21,3 C 49 % 1014,3 hPa 0,0 mm 10,1 km/h (2 Bft) W 264 0 min 0,000 mm 0,0 UV-I 46 W/m 10,1 C 22,5 km/h (4 Bft)
05.07.2016 20:12 21,1 C 21,3 C 49 % 1014,3 hPa 0,0 mm 11,9 km/h (2 Bft) W-NW 283 0 min 0,000 mm 0,0 UV-I 47 W/m 10,0 C 19,3 km/h (3 Bft)
05.07.2016 20:13 21,1 C 21,1 C 51 % 1014,2 hPa 0,0 mm 8,4 km/h (2 Bft) W-SW 252 0 min 0,000 mm 0,0 UV-I 47 W/m 10,6 C 12,9 km/h (3 Bft)
05.07.2016 20:14 21,0 C 21,1 C 50 % 1014,2 hPa 0,0 mm 8,2 km/h (2 Bft) W-NW 285 0 min 0,000 mm 0,0 UV-I 47 W/m 10,2 C 12,9 km/h (3 Bft)
05.07.2016 20:15 20,9 C 21,0 C 50 % 1014,2 hPa 0,0 mm 5,5 km/h (1 Bft) W-SW 254 0 min 0,000 mm 0,0 UV-I 46 W/m 10,1 C 11,3 km/h (2 Bft)
05.07.2016 20:16 20,8 C 20,9 C 52 % 1014,2 hPa 0,0 mm 13,9 km/h (3 Bft) W-NW 296 0 min 0,000 mm 0,0 UV-I 44 W/m 10,6 C 22,5 km/h (4 Bft)
05.07.2016 20:17 20,8 C 20,8 C 51 % 1014,2 hPa 0,0 mm 9,4 km/h (2 Bft) SW 236 0 min 0,000 mm 0,0 UV-I 42 W/m 10,3 C 19,3 km/h (3 Bft)
05.07.2016 20:18 20,8 C 20,8 C 49 % 1014,2 hPa 0,0 mm 10,4 km/h (2 Bft) W-SW 249 0 min 0,000 mm 0,0 UV-I 42 W/m 9,7 C 14,5 km/h (3 Bft)
05.07.2016 20:19 20,8 C 20,8 C 49 % 1014,2 hPa 0,0 mm 7,8 km/h (2 Bft) W 275 0 min 0,000 mm 0,0 UV-I 40 W/m 9,7 C 12,9 km/h (3 Bft)
05.07.2016 20:20 20,7 C 20,8 C 49 % 1014,3 hPa 0,0 mm 13,0 km/h (3 Bft) W-SW 257 0 min 0,000 mm 0,0 UV-I 39 W/m 9,6 C 19,3 km/h (3 Bft)
05.07.2016 20:21 20,7 C 20,7 C 50 % 1014,4 hPa 0,0 mm 10,5 km/h (2 Bft) W 265 0 min 0,000 mm 0,0 UV-I 37 W/m 9,9 C 16,1 km/h (3 Bft)
05.07.2016 20:22 20,7 C 20,7 C 50 % 1014,3 hPa 0,0 mm 10,9 km/h (2 Bft) W-SW 256 0 min 0,000 mm 0,0 UV-I 37 W/m 9,9 C 16,1 km/h (3 Bft)
05.07.2016 20:23 20,7 C 20,7 C 51 % 1014,4 hPa 0,0 mm 5,8 km/h (2 Bft) SW 228 0 min 0,000 mm 0,0 UV-I 35 W/m 10,2 C 11,3 km/h (2 Bft)
05.07.2016 20:24 20,6 C 20,7 C 52 % 1014,4 hPa 0,0 mm 5,4 km/h (1 Bft) W-SW 244 0 min 0,000 mm 0,0 UV-I 35 W/m 10,4 C 12,9 km/h (3 Bft)
05.07.2016 20:25 20,5 C 20,6 C 51 % 1014,5 hPa 0,0 mm 4,3 km/h (1 Bft) W 276 0 min 0,000 mm 0,0 UV-I 35 W/m 10,0 C 8,0 km/h (2 Bft)
05.07.2016 20:26 20,4 C 20,5 C 51 % 1014,5 hPa 0,0 mm 2,0 km/h (1 Bft) W-SW 244 0 min 0,000 mm 0,0 UV-I 37 W/m 9,9 C 3,2 km/h (1 Bft)
05.07.2016 20:27 20,4 C 20,4 C 52 % 1014,5 hPa 0,0 mm 9,1 km/h (2 Bft) W-SW 249 0 min 0,000 mm 0,0 UV-I 37 W/m 10,2 C 12,9 km/h (3 Bft)
05.07.2016 20:28 20,3 C 20,4 C 51 % 1014,5 hPa 0,0 mm 8,2 km/h (2 Bft) W-SW 258 0 min 0,000 mm 0,0 UV-I 37 W/m 9,8 C 12,9 km/h (3 Bft)
05.07.2016 20:29 20,3 C 20,4 C 52 % 1014,6 hPa 0,0 mm 5,5 km/h (1 Bft) W-SW 251 0 min 0,000 mm 0,0 UV-I 35 W/m 10,1 C 9,7 km/h (2 Bft)
05.07.2016 20:30 20,2 C 20,3 C 54 % 1014,6 hPa 0,0 mm 6,7 km/h (2 Bft) W-SW 249 0 min 0,000 mm 0,0 UV-I 33 W/m 10,6 C 12,9 km/h (3 Bft)
05.07.2016 20:31 20,2 C 20,2 C 52 % 1014,7 hPa 0,0 mm 4,2 km/h (1 Bft) W 259 0 min 0,000 mm 0,0 UV-I 32 W/m 10,0 C 8,0 km/h (2 Bft)
05.07.2016 20:32 20,2 C 20,2 C 52 % 1014,7 hPa 0,0 mm 7,6 km/h (2 Bft) W 259 0 min 0,000 mm 0,0 UV-I 30 W/m 10,0 C 11,3 km/h (2 Bft)
05.07.2016 20:33 20,2 C 20,2 C 51 % 1014,8 hPa 0,0 mm 5,3 km/h (1 Bft) W 277 0 min 0,000 mm 0,0 UV-I 28 W/m 9,7 C 8,0 km/h (2 Bft)
05.07.2016 20:34 20,2 C 20,2 C 53 % 1014,8 hPa 0,0 mm 4,6 km/h (1 Bft) W-SW 240 0 min 0,000 mm 0,0 UV-I 26 W/m 10,3 C 6,4 km/h (2 Bft)
05.07.2016 20:35 20,2 C 20,2 C 52 % 1014,8 hPa 0,0 mm 3,2 km/h (1 Bft) W-SW 257 0 min 0,000 mm 0,0 UV-I 25 W/m 10,0 C 4,8 km/h (1 Bft)
05.07.2016 20:36 20,2 C 20,2 C 53 % 1014,9 hPa 0,0 mm 10,7 km/h (2 Bft) W 259 0 min 0,000 mm 0,0 UV-I 25 W/m 10,3 C 16,1 km/h (3 Bft)
05.07.2016 20:37 20,2 C 20,2 C 53 % 1014,9 hPa 0,0 mm 5,7 km/h (1 Bft) W-NW 286 0 min 0,000 mm 0,0 UV-I 23 W/m 10,3 C 9,7 km/h (2 Bft)
05.07.2016 20:38 20,2 C 20,2 C 52 % 1014,9 hPa 0,0 mm 6,2 km/h (2 Bft) W-SW 243 0 min 0,000 mm 0,0 UV-I 19 W/m 10,0 C 11,3 km/h (2 Bft)
05.07.2016 20:39 20,2 C 20,2 C 53 % 1014,9 hPa 0,0 mm 7,2 km/h (2 Bft) W 269 0 min 0,000 mm 0,0 UV-I 19 W/m 10,3 C 11,3 km/h (2 Bft)
05.07.2016 20:40 20,2 C 20,2 C 53 % 1015,0 hPa 0,0 mm 7,0 km/h (2 Bft) W-NW 290 0 min 0,000 mm 0,0 UV-I 19 W/m 10,3 C 11,3 km/h (2 Bft)
05.07.2016 20:41 20,2 C 20,2 C 55 % 1014,9 hPa 0,0 mm 6,4 km/h (2 Bft) W-NW 296 0 min 0,000 mm 0,0 UV-I 19 W/m 10,9 C 9,7 km/h (2 Bft)
05.07.2016 20:42 20,2 C 20,2 C 54 % 1015,0 hPa 0,0 mm 5,7 km/h (1 Bft) W 260 0 min 0,000 mm 0,0 UV-I 19 W/m 10,6 C 8,0 km/h (2 Bft)
05.07.2016 20:43 20,2 C 20,2 C 53 % 1015,0 hPa 0,0 mm 5,2 km/h (1 Bft) W-NW 286 0 min 0,000 mm 0,0 UV-I 21 W/m 10,3 C 6,4 km/h (2 Bft)
05.07.2016 20:44 20,2 C 20,2 C 55 % 1015,0 hPa 0,0 mm 5,9 km/h (2 Bft) W 259 0 min 0,000 mm 0,0 UV-I 19 W/m 10,9 C 11,3 km/h (2 Bft)
05.07.2016 20:45 20,2 C 20,2 C 54 % 1015,0 hPa 0,0 mm 9,7 km/h (2 Bft) W 278 0 min 0,000 mm 0,0 UV-I 18 W/m 10,6 C 16,1 km/h (3 Bft)
05.07.2016 20:46 20,2 C 20,2 C 54 % 1015,0 hPa 0,0 mm 7,8 km/h (2 Bft) W-NW 282 0 min 0,000 mm 0,0 UV-I 14 W/m 10,6 C 12,9 km/h (3 Bft)
05.07.2016 20:47 20,2 C 20,2 C 54 % 1015,1 hPa 0,0 mm 7,8 km/h (2 Bft) W-NW 299 0 min 0,000 mm 0,0 UV-I 12 W/m 10,6 C 12,9 km/h (3 Bft)
05.07.2016 20:48 20,3 C 20,3 C 54 % 1015,2 hPa 0,0 mm 5,8 km/h (2 Bft) W-NW 284 0 min 0,000 mm 0,0 UV-I 12 W/m 10,7 C 11,3 km/h (2 Bft)
05.07.2016 20:49 20,3 C 20,3 C 53 % 1015,3 hPa 0,0 mm 4,8 km/h (1 Bft) N-NO 16 0 min 0,000 mm 0,0 UV-I 14 W/m 10,4 C 6,4 km/h (2 Bft)
05.07.2016 20:50 20,3 C 20,3 C 54 % 1015,3 hPa 0,0 mm 6,5 km/h (2 Bft) W-NW 287 0 min 0,000 mm 0,0 UV-I 14 W/m 10,7 C 11,3 km/h (2 Bft)
05.07.2016 20:51 20,3 C 20,3 C 56 % 1015,3 hPa 0,0 mm 4,0 km/h (1 Bft) W 266 0 min 0,000 mm 0,0 UV-I 16 W/m 11,2 C 6,4 km/h (2 Bft)
05.07.2016 20:52 20,3 C 20,3 C 57 % 1015,3 hPa 0,0 mm 6,8 km/h (2 Bft) NW 321 0 min 0,000 mm 0,0 UV-I 16 W/m 11,5 C 9,7 km/h (2 Bft)
05.07.2016 20:53 20,2 C 20,3 C 60 % 1015,4 hPa 0,0 mm 6,2 km/h (2 Bft) NW 308 0 min 0,000 mm 0,0 UV-I 16 W/m 12,2 C 11,3 km/h (2 Bft)
05.07.2016 20:54 20,2 C 20,2 C 62 % 1015,4 hPa 0,0 mm 4,0 km/h (1 Bft) W 274 0 min 0,000 mm 0,0 UV-I 18 W/m 12,7 C 4,8 km/h (1 Bft)
05.07.2016 20:55 20,2 C 20,2 C 63 % 1015,3 hPa 0,0 mm 5,4 km/h (1 Bft) W-NW 293 0 min 0,000 mm 0,0 UV-I 18 W/m 12,9 C 9,7 km/h (2 Bft)
05.07.2016 20:56 20,1 C 20,2 C 63 % 1015,4 hPa 0,0 mm 4,6 km/h (1 Bft) W-NW 295 0 min 0,000 mm 0,0 UV-I 16 W/m 12,8 C 6,4 km/h (2 Bft)
05.07.2016 20:57 20,1 C 20,1 C 63 % 1015,4 hPa 0,0 mm 3,9 km/h (1 Bft) NW 309 0 min 0,000 mm 0,0 UV-I 16 W/m 12,8 C 6,4 km/h (2 Bft)
05.07.2016 20:58 20,0 C 20,1 C 64 % 1015,4 hPa 0,0 mm 3,0 km/h (1 Bft) N 10 0 min 0,000 mm 0,0 UV-I 14 W/m 13,0 C 4,8 km/h (1 Bft)
05.07.2016 20:59 19,9 C 20,0 C 65 % 1015,4 hPa 0,0 mm 2,7 km/h (1 Bft) NW 309 0 min 0,000 mm 0,0 UV-I 14 W/m 13,1 C 4,8 km/h (1 Bft)
05.07.2016 21:00 19,9 C 19,9 C 66 % 1015,4 hPa 0,0 mm 4,2 km/h (1 Bft) W 261 0 min 0,000 mm 0,0 UV-I 12 W/m 13,4 C 6,4 km/h (2 Bft)
05.07.2016 21:01 19,8 C 19,9 C 66 % 1015,4 hPa 0,0 mm 2,0 km/h (1 Bft) N-NW 337 0 min 0,076 mm 0,0 UV-I 11 W/m 13,3 C 4,8 km/h (1 Bft)
05.07.2016 21:02 19,8 C 19,8 C 66 % 1015,4 hPa 0,0 mm 2,2 km/h (1 Bft) N-NO 14 1 min 0,000 mm 0,0 UV-I 11 W/m 13,3 C 4,8 km/h (1 Bft)
05.07.2016 21:03 19,7 C 19,8 C 67 % 1015,4 hPa 0,0 mm 3,1 km/h (1 Bft) NW 317 1 min 0,000 mm 0,0 UV-I 11 W/m 13,4 C 6,4 km/h (2 Bft)
05.07.2016 21:04 19,7 C 19,7 C 68 % 1015,5 hPa 0,0 mm 2,7 km/h (1 Bft) N-NO 24 1 min 0,000 mm 0,0 UV-I 11 W/m 13,6 C 6,4 km/h (2 Bft)
05.07.2016 21:05 19,6 C 19,7 C 68 % 1015,5 hPa 0,0 mm 3,0 km/h (1 Bft) N-NW 334 0 min 0,000 mm 0,0 UV-I 12 W/m 13,5 C 4,8 km/h (1 Bft)
05.07.2016 21:06 19,5 C 19,6 C 68 % 1015,6 hPa 0,0 mm 4,6 km/h (1 Bft) NW 307 0 min 0,000 mm 0,0 UV-I 12 W/m 13,4 C 12,9 km/h (3 Bft)
05.07.2016 21:07 19,5 C 19,5 C 69 % 1015,7 hPa 0,0 mm 7,0 km/h (2 Bft) NW 321 0 min 0,000 mm 0,0 UV-I 11 W/m 13,7 C 11,3 km/h (2 Bft)
05.07.2016 21:08 19,4 C 19,5 C 69 % 1015,8 hPa 0,0 mm 9,6 km/h (2 Bft) NW 304 0 min 0,000 mm 0,0 UV-I 11 W/m 13,6 C 19,3 km/h (3 Bft)
05.07.2016 21:09 19,4 C 19,4 C 69 % 1015,8 hPa 0,0 mm 5,6 km/h (1 Bft) N 350 0 min 0,000 mm 0,0 UV-I 11 W/m 13,6 C 12,9 km/h (3 Bft)
05.07.2016 21:10 19,4 C 19,4 C 69 % 1015,7 hPa 0,0 mm 5,0 km/h (1 Bft) N-NW 348 0 min 0,000 mm 0,0 UV-I 16 W/m 13,6 C 6,4 km/h (2 Bft)
05.07.2016 21:11 19,4 C 19,4 C 69 % 1015,7 hPa 0,0 mm 7,2 km/h (2 Bft) N-NW 329 0 min 0,000 mm 0,0 UV-I 19 W/m 13,6 C 11,3 km/h (2 Bft)
05.07.2016 21:12 19,3 C 19,4 C 69 % 1015,7 hPa 0,0 mm 5,3 km/h (1 Bft) N 351 0 min 0,000 mm 0,0 UV-I 23 W/m 13,5 C 14,5 km/h (3 Bft)
05.07.2016 21:13 19,3 C 19,4 C 69 % 1015,7 hPa 0,0 mm 9,5 km/h (2 Bft) W 260 0 min 0,000 mm 0,0 UV-I 25 W/m 13,5 C 14,5 km/h (3 Bft)
05.07.2016 21:14 19,3 C 19,3 C 70 % 1015,7 hPa 0,0 mm 5,6 km/h (1 Bft) W 281 0 min 0,000 mm 0,0 UV-I 25 W/m 13,7 C 9,7 km/h (2 Bft)
05.07.2016 21:15 19,3 C 19,3 C 69 % 1015,7 hPa 0,0 mm 10,9 km/h (2 Bft) N 360 0 min 0,000 mm 0,0 UV-I 23 W/m 13,5 C 16,1 km/h (3 Bft)
05.07.2016 21:16 19,2 C 19,3 C 70 % 1015,7 hPa 0,0 mm 7,7 km/h (2 Bft) W 279 0 min 0,000 mm 0,0 UV-I 25 W/m 13,6 C 12,9 km/h (3 Bft)
05.07.2016 21:17 19,1 C 19,2 C 70 % 1015,7 hPa 0,0 mm 8,3 km/h (2 Bft) W-NW 285 0 min 0,000 mm 0,0 UV-I 23 W/m 13,5 C 14,5 km/h (3 Bft)
05.07.2016 21:18 19,1 C 19,1 C 70 % 1015,7 hPa 0,0 mm 5,8 km/h (2 Bft) W 269 0 min 0,000 mm 0,0 UV-I 21 W/m 13,5 C 8,0 km/h (2 Bft)
05.07.2016 21:19 18,9 C 19,1 C 71 % 1015,7 hPa 0,0 mm 4,4 km/h (1 Bft) NW 314 0 min 0,000 mm 0,0 UV-I 19 W/m 13,5 C 6,4 km/h (2 Bft)
05.07.2016 21:20 18,8 C 18,9 C 71 % 1015,8 hPa 0,0 mm 3,6 km/h (1 Bft) NW 316 0 min 0,000 mm 0,0 UV-I 18 W/m 13,4 C 6,4 km/h (2 Bft)
05.07.2016 21:21 18,7 C 18,8 C 71 % 1015,8 hPa 0,0 mm 4,7 km/h (1 Bft) W-NW 291 0 min 0,000 mm 0,0 UV-I 18 W/m 13,3 C 6,4 km/h (2 Bft)
05.07.2016 21:22 18,7 C 18,8 C 72 % 1015,8 hPa 0,0 mm 5,5 km/h (1 Bft) N 355 0 min 0,000 mm 0,0 UV-I 14 W/m 13,5 C 8,0 km/h (2 Bft)
05.07.2016 21:23 18,6 C 18,7 C 73 % 1015,8 hPa 0,0 mm 3,2 km/h (1 Bft) N-NW 329 0 min 0,000 mm 0,0 UV-I 12 W/m 13,7 C 4,8 km/h (1 Bft)
05.07.2016 21:24 18,5 C 18,6 C 73 % 1015,8 hPa 0,0 mm 5,2 km/h (1 Bft) W-NW 286 0 min 0,000 mm 0,0 UV-I 9 W/m 13,6 C 8,0 km/h (2 Bft)
05.07.2016 21:25 18,4 C 18,5 C 73 % 1015,9 hPa 0,0 mm 2,8 km/h (1 Bft) NW 319 0 min 0,000 mm 0,0 UV-I 7 W/m 13,5 C 4,8 km/h (1 Bft)
05.07.2016 21:26 18,4 C 18,4 C 73 % 1015,9 hPa 0,0 mm 6,5 km/h (2 Bft) NW 307 0 min 0,000 mm 0,0 UV-I 5 W/m 13,5 C 12,9 km/h (3 Bft)
05.07.2016 21:27 18,3 C 18,4 C 74 % 1015,9 hPa 0,0 mm 3,6 km/h (1 Bft) W-NW 286 0 min 0,000 mm 0,0 UV-I 5 W/m 13,6 C 4,8 km/h (1 Bft)
05.07.2016 21:28 18,2 C 18,3 C 74 % 1015,9 hPa 0,0 mm 4,4 km/h (1 Bft) W 278 0 min 0,000 mm 0,0 UV-I 5 W/m 13,5 C 4,8 km/h (1 Bft)
05.07.2016 21:29 18,2 C 18,2 C 74 % 1016,0 hPa 0,0 mm 7,6 km/h (2 Bft) W 272 0 min 0,000 mm 0,0 UV-I 0 W/m 13,5 C 12,9 km/h (3 Bft)
05.07.2016 21:30 18,1 C 18,2 C 74 % 1015,9 hPa 0,0 mm 6,5 km/h (2 Bft) W 265 0 min 0,000 mm 0,0 UV-I 0 W/m 13,4 C 12,9 km/h (3 Bft)
05.07.2016 21:31 18,1 C 18,1 C 74 % 1016,0 hPa 0,0 mm 5,0 km/h (1 Bft) W 273 0 min 0,000 mm 0,0 UV-I 0 W/m 13,4 C 9,7 km/h (2 Bft)
05.07.2016 21:32 18,1 C 18,1 C 74 % 1016,0 hPa 0,0 mm 4,5 km/h (1 Bft) W-NW 302 0 min 0,000 mm 0,0 UV-I 0 W/m 13,4 C 6,4 km/h (2 Bft)
05.07.2016 21:33 17,9 C 18,1 C 74 % 1016,1 hPa 0,0 mm 3,8 km/h (1 Bft) SW 229 0 min 0,000 mm 0,0 UV-I 0 W/m 13,2 C 8,0 km/h (2 Bft)
05.07.2016 21:34 17,9 C 18,0 C 74 % 1016,1 hPa 0,0 mm 2,5 km/h (1 Bft) W 271 0 min 0,000 mm 0,0 UV-I 0 W/m 13,2 C 3,2 km/h (1 Bft)
05.07.2016 21:35 17,9 C 17,9 C 74 % 1016,1 hPa 0,0 mm 5,9 km/h (2 Bft) W 259 0 min 0,000 mm 0,0 UV-I 0 W/m 13,2 C 8,0 km/h (2 Bft)
05.07.2016 21:36 17,8 C 17,9 C 74 % 1016,1 hPa 0,0 mm 5,6 km/h (1 Bft) W-NW 282 0 min 0,000 mm 0,0 UV-I 0 W/m 13,1 C 8,0 km/h (2 Bft)
05.07.2016 21:37 17,8 C 17,8 C 74 % 1016,1 hPa 0,0 mm 6,4 km/h (2 Bft) W 278 0 min 0,000 mm 0,0 UV-I 0 W/m 13,1 C 12,9 km/h (3 Bft)
05.07.2016 21:38 17,8 C 17,8 C 74 % 1016,2 hPa 0,0 mm 3,3 km/h (1 Bft) W-SW 252 0 min 0,000 mm 0,0 UV-I 0 W/m 13,1 C 6,4 km/h (2 Bft)
05.07.2016 21:39 17,8 C 17,8 C 74 % 1016,2 hPa 0,0 mm 5,2 km/h (1 Bft) W 278 0 min 0,000 mm 0,0 UV-I 0 W/m 13,1 C 6,4 km/h (2 Bft)
05.07.2016 21:40 17,7 C 17,8 C 75 % 1016,2 hPa 0,0 mm 4,0 km/h (1 Bft) W 277 0 min 0,000 mm 0,0 UV-I 0 W/m 13,2 C 4,8 km/h (1 Bft)
05.07.2016 21:41 17,7 C 17,7 C 74 % 1016,3 hPa 0,0 mm 2,7 km/h (1 Bft) W 281 0 min 0,000 mm 0,0 UV-I 0 W/m 13,0 C 6,4 km/h (2 Bft)
05.07.2016 21:42 17,7 C 17,7 C 74 % 1016,3 hPa 0,0 mm 3,1 km/h (1 Bft) W-NW 285 0 min 0,000 mm 0,0 UV-I 0 W/m 13,0 C 4,8 km/h (1 Bft)
05.07.2016 21:43 17,6 C 17,7 C 75 % 1016,3 hPa 0,0 mm 2,4 km/h (1 Bft) W 261 0 min 0,000 mm 0,0 UV-I 0 W/m 13,1 C 4,8 km/h (1 Bft)
05.07.2016 21:44 17,6 C 17,6 C 74 % 1016,4 hPa 0,0 mm 3,6 km/h (1 Bft) W 267 0 min 0,000 mm 0,0 UV-I 0 W/m 12,9 C 4,8 km/h (1 Bft)
05.07.2016 21:45 17,6 C 17,6 C 75 % 1016,3 hPa 0,0 mm 5,0 km/h (1 Bft) W 276 0 min 0,000 mm 0,0 UV-I 0 W/m 13,1 C 9,7 km/h (2 Bft)
05.07.2016 21:46 17,5 C 17,6 C 75 % 1016,4 hPa 0,0 mm 6,4 km/h (2 Bft) S-SW 200 0 min 0,000 mm 0,0 UV-I 0 W/m 13,0 C 9,7 km/h (2 Bft)
05.07.2016 21:47 17,4 C 17,5 C 75 % 1016,4 hPa 0,0 mm 5,0 km/h (1 Bft) W 263 0 min 0,000 mm 0,0 UV-I 0 W/m 12,9 C 6,4 km/h (2 Bft)
05.07.2016 21:48 17,4 C 17,4 C 75 % 1016,3 hPa 0,0 mm 3,9 km/h (1 Bft) W-SW 248 0 min 0,000 mm 0,0 UV-I 0 W/m 12,9 C 6,4 km/h (2 Bft)
05.07.2016 21:49 17,3 C 17,4 C 75 % 1016,3 hPa 0,0 mm 2,0 km/h (1 Bft) W-SW 248 0 min 0,000 mm 0,0 UV-I 0 W/m 12,8 C 3,2 km/h (1 Bft)
05.07.2016 21:50 17,3 C 17,3 C 75 % 1016,3 hPa 0,0 mm 2,0 km/h (1 Bft) S-SW 208 0 min 0,000 mm 0,0 UV-I 0 W/m 12,8 C 3,2 km/h (1 Bft)
05.07.2016 21:51 17,3 C 17,4 C 75 % 1016,3 hPa 0,0 mm 2,1 km/h (1 Bft) S 184 0 min 0,000 mm 0,0 UV-I 0 W/m 12,8 C 3,2 km/h (1 Bft)
05.07.2016 21:52 17,3 C 17,3 C 75 % 1016,3 hPa 0,0 mm 0,7 km/h (0 Bft) S 185 0 min 0,000 mm 0,0 UV-I 0 W/m 12,8 C 1,6 km/h (1 Bft)
05.07.2016 21:53 17,3 C 17,3 C 76 % 1016,3 hPa 0,0 mm 2,8 km/h (1 Bft) W-SW 248 0 min 0,000 mm 0,0 UV-I 0 W/m 13,0 C 4,8 km/h (1 Bft)
05.07.2016 21:54 17,3 C 17,3 C 76 % 1016,3 hPa 0,0 mm 1,3 km/h (1 Bft) SW 229 0 min 0,000 mm 0,0 UV-I 0 W/m 13,0 C 4,8 km/h (1 Bft)
05.07.2016 21:55 17,3 C 17,3 C 76 % 1016,3 hPa 0,0 mm 1,1 km/h (1 Bft) W-SW 244 0 min 0,000 mm 0,0 UV-I 0 W/m 13,0 C 3,2 km/h (1 Bft)
05.07.2016 21:56 17,2 C 17,3 C 76 % 1016,3 hPa 0,0 mm 1,5 km/h (1 Bft) S 189 0 min 0,000 mm 0,0 UV-I 0 W/m 12,9 C 3,2 km/h (1 Bft)
05.07.2016 21:57 17,2 C 17,2 C 76 % 1016,3 hPa 0,0 mm 3,6 km/h (1 Bft) W-SW 242 0 min 0,000 mm 0,0 UV-I 0 W/m 12,9 C 6,4 km/h (2 Bft)
05.07.2016 21:58 17,1 C 17,2 C 76 % 1016,3 hPa 0,0 mm 1,3 km/h (1 Bft) W-SW 242 0 min 0,000 mm 0,0 UV-I 0 W/m 12,8 C 3,2 km/h (1 Bft)
05.07.2016 21:59 17,1 C 17,2 C 76 % 1016,3 hPa 0,0 mm 1,8 km/h (1 Bft) SW 221 0 min 0,000 mm 0,0 UV-I 0 W/m 12,8 C 3,2 km/h (1 Bft)
05.07.2016 22:00 17,1 C 17,1 C 76 % 1016,3 hPa 0,0 mm 2,4 km/h (1 Bft) SW 232 0 min 0,000 mm 0,0 UV-I 0 W/m 12,8 C 4,8 km/h (1 Bft)
05.07.2016 22:01 17,1 C 17,1 C 76 % 1016,3 hPa 0,0 mm 2,5 km/h (1 Bft) SW 230 0 min 0,025 mm 0,0 UV-I 0 W/m 12,8 C 4,8 km/h (1 Bft)
05.07.2016 22:02 17,1 C 17,1 C 76 % 1016,3 hPa 0,0 mm 1,5 km/h (1 Bft) SW 229 0 min 0,000 mm 0,0 UV-I 0 W/m 12,8 C 3,2 km/h (1 Bft)
05.07.2016 22:03 17,1 C 17,1 C 76 % 1016,3 hPa 0,0 mm 1,3 km/h (1 Bft) S-SW 202 0 min 0,000 mm 0,0 UV-I 0 W/m 12,8 C 3,2 km/h (1 Bft)
05.07.2016 22:04 17,1 C 17,1 C 76 % 1016,2 hPa 0,0 mm 1,1 km/h (1 Bft) S-SW 201 0 min 0,000 mm 0,0 UV-I 0 W/m 12,8 C 3,2 km/h (1 Bft)
05.07.2016 22:05 17,0 C 17,1 C 76 % 1016,3 hPa 0,0 mm 0,9 km/h (0 Bft) S-SW 200 0 min 0,000 mm 0,0 UV-I 0 W/m 12,7 C 1,6 km/h (1 Bft)
05.07.2016 22:06 16,9 C 17,0 C 76 % 1016,4 hPa 0,0 mm 2,8 km/h (1 Bft) W-SW 248 0 min 0,000 mm 0,0 UV-I 0 W/m 12,6 C 3,2 km/h (1 Bft)
05.07.2016 22:07 16,9 C 16,9 C 77 % 1016,4 hPa 0,0 mm 2,5 km/h (1 Bft) W-SW 247 0 min 0,000 mm 0,0 UV-I 0 W/m 12,8 C 4,8 km/h (1 Bft)
05.07.2016 22:08 16,8 C 16,9 C 77 % 1016,4 hPa 0,0 mm 1,3 km/h (1 Bft) W-SW 247 0 min 0,000 mm 0,0 UV-I 0 W/m 12,7 C 3,2 km/h (1 Bft)
05.07.2016 22:09 16,8 C 16,9 C 77 % 1016,4 hPa 0,0 mm 3,0 km/h (1 Bft) W 274 0 min 0,000 mm 0,0 UV-I 0 W/m 12,7 C 6,4 km/h (2 Bft)
05.07.2016 22:10 16,8 C 16,9 C 77 % 1016,5 hPa 0,0 mm 2,5 km/h (1 Bft) W 265 0 min 0,000 mm 0,0 UV-I 0 W/m 12,7 C 6,4 km/h (2 Bft)
05.07.2016 22:11 16,8 C 16,9 C 77 % 1016,5 hPa 0,0 mm 2,1 km/h (1 Bft) W-SW 252 0 min 0,000 mm 0,0 UV-I 0 W/m 12,7 C 6,4 km/h (2 Bft)
05.07.2016 22:12 16,8 C 16,9 C 77 % 1016,5 hPa 0,0 mm 1,1 km/h (1 Bft) W-SW 252 0 min 0,000 mm 0,0 UV-I 0 W/m 12,7 C 3,2 km/h (1 Bft)
05.07.2016 22:13 16,8 C 16,8 C 77 % 1016,5 hPa 0,0 mm 2,4 km/h (1 Bft) SW 236 0 min 0,000 mm 0,0 UV-I 0 W/m 12,7 C 6,4 km/h (2 Bft)
05.07.2016 22:14 16,8 C 16,8 C 77 % 1016,5 hPa 0,0 mm 1,9 km/h (1 Bft) W-SW 239 0 min 0,000 mm 0,0 UV-I 0 W/m 12,7 C 3,2 km/h (1 Bft)
05.07.2016 22:15 16,8 C 16,8 C 77 % 1016,4 hPa 0,0 mm 0,6 km/h (0 Bft) W-SW 239 0 min 0,000 mm 0,0 UV-I 0 W/m 12,7 C 1,6 km/h (1 Bft)
05.07.2016 22:16 16,8 C 16,8 C 77 % 1016,4 hPa 0,0 mm 3,1 km/h (1 Bft) S-SW 213 0 min 0,000 mm 0,0 UV-I 0 W/m 12,7 C 4,8 km/h (1 Bft)
05.07.2016 22:17 16,7 C 16,8 C 77 % 1016,4 hPa 0,0 mm 2,3 km/h (1 Bft) SW 217 0 min 0,000 mm 0,0 UV-I 0 W/m 12,6 C 3,2 km/h (1 Bft)
05.07.2016 22:18 16,7 C 16,7 C 77 % 1016,5 hPa 0,0 mm 2,0 km/h (1 Bft) SW 232 0 min 0,000 mm 0,0 UV-I 0 W/m 12,6 C 3,2 km/h (1 Bft)
05.07.2016 22:19 16,7 C 16,8 C 77 % 1016,5 hPa 0,0 mm 2,5 km/h (1 Bft) W 269 0 min 0,000 mm 0,0 UV-I 0 W/m 12,6 C 3,2 km/h (1 Bft)
05.07.2016 22:20 16,7 C 16,7 C 77 % 1016,5 hPa 0,0 mm 1,1 km/h (1 Bft) W 269 0 min 0,000 mm 0,0 UV-I 0 W/m 12,6 C 1,6 km/h (1 Bft)
05.07.2016 22:21 16,7 C 16,7 C 77 % 1016,4 hPa 0,0 mm 1,2 km/h (1 Bft) W 269 0 min 0,000 mm 0,0 UV-I 0 W/m 12,6 C 3,2 km/h (1 Bft)
05.07.2016 22:22 16,7 C 16,7 C 77 % 1016,5 hPa 0,0 mm 2,8 km/h (1 Bft) SW 216 0 min 0,000 mm 0,0 UV-I 0 W/m 12,6 C 4,8 km/h (1 Bft)
05.07.2016 22:23 16,7 C 16,7 C 77 % 1016,5 hPa 0,0 mm 0,7 km/h (0 Bft) SW 216 0 min 0,000 mm 0,0 UV-I 0 W/m 12,6 C 1,6 km/h (1 Bft)
05.07.2016 22:24 16,6 C 16,7 C 78 % 1016,5 hPa 0,0 mm 1,5 km/h (1 Bft) W-NW 287 0 min 0,000 mm 0,0 UV-I 0 W/m 12,7 C 3,2 km/h (1 Bft)
05.07.2016 22:25 16,6 C 16,6 C 78 % 1016,6 hPa 0,0 mm 2,9 km/h (1 Bft) W 271 0 min 0,000 mm 0,0 UV-I 0 W/m 12,7 C 4,8 km/h (1 Bft)
05.07.2016 22:26 16,5 C 16,6 C 78 % 1016,6 hPa 0,0 mm 3,4 km/h (1 Bft) SW 219 0 min 0,000 mm 0,0 UV-I 0 W/m 12,6 C 6,4 km/h (2 Bft)
05.07.2016 22:27 16,5 C 16,6 C 78 % 1016,5 hPa 0,0 mm 4,2 km/h (1 Bft) W-SW 255 0 min 0,000 mm 0,0 UV-I 0 W/m 12,6 C 6,4 km/h (2 Bft)
05.07.2016 22:28 16,5 C 16,6 C 78 % 1016,5 hPa 0,0 mm 2,2 km/h (1 Bft) W-SW 241 0 min 0,000 mm 0,0 UV-I 0 W/m 12,6 C 4,8 km/h (1 Bft)
05.07.2016 22:29 16,6 C 16,6 C 78 % 1016,6 hPa 0,0 mm 3,8 km/h (1 Bft) W 272 0 min 0,000 mm 0,0 UV-I 0 W/m 12,7 C 4,8 km/h (1 Bft)
05.07.2016 22:30 16,6 C 16,6 C 78 % 1016,6 hPa 0,0 mm 2,4 km/h (1 Bft) W 265 0 min 0,000 mm 0,0 UV-I 0 W/m 12,7 C 4,8 km/h (1 Bft)
05.07.2016 22:31 16,6 C 16,7 C 79 % 1016,6 hPa 0,0 mm 2,0 km/h (1 Bft) W-SW 253 0 min 0,000 mm 0,0 UV-I 0 W/m 12,9 C 4,8 km/h (1 Bft)
05.07.2016 22:32 16,6 C 16,6 C 77 % 1016,6 hPa 0,0 mm 3,2 km/h (1 Bft) W-SW 245 0 min 0,000 mm 0,0 UV-I 0 W/m 12,5 C 6,4 km/h (2 Bft)
05.07.2016 22:33 16,7 C 16,7 C 77 % 1016,7 hPa 0,0 mm 1,7 km/h (1 Bft) W-SW 245 0 min 0,000 mm 0,0 UV-I 0 W/m 12,6 C 3,2 km/h (1 Bft)
05.07.2016 22:34 16,7 C 16,7 C 77 % 1016,7 hPa 0,0 mm 2,3 km/h (1 Bft) SW 221 0 min 0,000 mm 0,0 UV-I 0 W/m 12,6 C 4,8 km/h (1 Bft)
05.07.2016 22:35 16,7 C 16,7 C 77 % 1016,6 hPa 0,0 mm 1,3 km/h (1 Bft) SW 222 0 min 0,000 mm 0,0 UV-I 0 W/m 12,6 C 3,2 km/h (1 Bft)
05.07.2016 22:36 16,7 C 16,7 C 77 % 1016,7 hPa 0,0 mm 5,3 km/h (1 Bft) W-SW 248 0 min 0,000 mm 0,0 UV-I 0 W/m 12,6 C 6,4 km/h (2 Bft)
05.07.2016 22:37 16,7 C 16,7 C 77 % 1016,7 hPa 0,0 mm 4,2 km/h (1 Bft) W 265 0 min 0,000 mm 0,0 UV-I 0 W/m 12,6 C 6,4 km/h (2 Bft)
05.07.2016 22:38 16,7 C 16,7 C 78 % 1016,7 hPa 0,0 mm 4,8 km/h (1 Bft) W-NW 288 0 min 0,000 mm 0,0 UV-I 0 W/m 12,8 C 6,4 km/h (2 Bft)
05.07.2016 22:39 16,7 C 16,7 C 77 % 1016,7 hPa 0,0 mm 3,8 km/h (1 Bft) W-SW 244 0 min 0,000 mm 0,0 UV-I 0 W/m 12,6 C 6,4 km/h (2 Bft)
05.07.2016 22:40 16,7 C 16,7 C 77 % 1016,8 hPa 0,0 mm 5,0 km/h (1 Bft) W-SW 246 0 min 0,000 mm 0,0 UV-I 0 W/m 12,6 C 8,0 km/h (2 Bft)
05.07.2016 22:41 16,7 C 16,7 C 77 % 1016,8 hPa 0,0 mm 5,6 km/h (1 Bft) W-SW 244 0 min 0,000 mm 0,0 UV-I 0 W/m 12,6 C 8,0 km/h (2 Bft)
05.07.2016 22:42 16,7 C 16,7 C 77 % 1016,8 hPa 0,0 mm 3,0 km/h (1 Bft) W-SW 243 0 min 0,000 mm 0,0 UV-I 0 W/m 12,6 C 4,8 km/h (1 Bft)
05.07.2016 22:43 16,7 C 16,7 C 78 % 1016,8 hPa 0,0 mm 1,7 km/h (1 Bft) SW 227 0 min 0,000 mm 0,0 UV-I 0 W/m 12,8 C 3,2 km/h (1 Bft)
05.07.2016 22:44 16,7 C 16,7 C 77 % 1016,8 hPa 0,0 mm 2,6 km/h (1 Bft) SW 233 0 min 0,000 mm 0,0 UV-I 0 W/m 12,6 C 3,2 km/h (1 Bft)
05.07.2016 22:45 16,7 C 16,7 C 77 % 1016,8 hPa 0,0 mm 2,3 km/h (1 Bft) W-NW 293 0 min 0,000 mm 0,0 UV-I 0 W/m 12,6 C 4,8 km/h (1 Bft)
05.07.2016 22:46 16,7 C 16,7 C 77 % 1016,8 hPa 0,0 mm 1,9 km/h (1 Bft) W 269 0 min 0,000 mm 0,0 UV-I 0 W/m 12,6 C 3,2 km/h (1 Bft)
05.07.2016 22:47 16,7 C 16,7 C 78 % 1016,8 hPa 0,0 mm 0,9 km/h (0 Bft) W 269 0 min 0,000 mm 0,0 UV-I 0 W/m 12,8 C 1,6 km/h (1 Bft)
05.07.2016 22:48 16,8 C 16,8 C 77 % 1016,8 hPa 0,0 mm 1,0 km/h (0 Bft) W 269 0 min 0,000 mm 0,0 UV-I 0 W/m 12,7 C 3,2 km/h (1 Bft)
05.07.2016 22:49 16,8 C 16,8 C 77 % 1016,7 hPa 0,0 mm 1,0 km/h (0 Bft) W 269 0 min 0,000 mm 0,0 UV-I 0 W/m 12,7 C 1,6 km/h (1 Bft)
05.07.2016 22:50 16,8 C 16,8 C 77 % 1016,8 hPa 0,0 mm 1,7 km/h (1 Bft) W 265 0 min 0,000 mm 0,0 UV-I 0 W/m 12,7 C 3,2 km/h (1 Bft)
05.07.2016 22:51 16,8 C 16,8 C 77 % 1016,8 hPa 0,0 mm 0,9 km/h (0 Bft) W 265 0 min 0,000 mm 0,0 UV-I 0 W/m 12,7 C 1,6 km/h (1 Bft)
05.07.2016 22:52 16,9 C 16,9 C 77 % 1016,8 hPa 0,0 mm 0,8 km/h (0 Bft) W 265 0 min 0,000 mm 0,0 UV-I 0 W/m 12,8 C 1,6 km/h (1 Bft)
05.07.2016 22:53 16,9 C 16,9 C 77 % 1016,8 hPa 0,0 mm 1,0 km/h (0 Bft) W 265 0 min 0,000 mm 0,0 UV-I 0 W/m 12,8 C 1,6 km/h (1 Bft)
05.07.2016 22:54 16,9 C 16,9 C 78 % 1016,8 hPa 0,0 mm 1,1 km/h (1 Bft) W 265 0 min 0,000 mm 0,0 UV-I 0 W/m 13,0 C 3,2 km/h (1 Bft)
05.07.2016 22:55 16,8 C 16,9 C 78 % 1016,8 hPa 0,0 mm 0,4 km/h (0 Bft) W 265 0 min 0,000 mm 0,0 UV-I 0 W/m 12,9 C 1,6 km/h (1 Bft)
05.07.2016 22:56 16,8 C 16,8 C 77 % 1016,8 hPa 0,0 mm 1,3 km/h (1 Bft) W 265 0 min 0,000 mm 0,0 UV-I 0 W/m 12,7 C 1,6 km/h (1 Bft)
05.07.2016 22:57 16,8 C 16,8 C 78 % 1016,8 hPa 0,0 mm 1,7 km/h (1 Bft) W 265 0 min 0,000 mm 0,0 UV-I 0 W/m 12,9 C 3,2 km/h (1 Bft)
05.07.2016 22:58 16,8 C 16,8 C 77 % 1016,8 hPa 0,0 mm 2,1 km/h (1 Bft) W 265 0 min 0,000 mm 0,0 UV-I 0 W/m 12,7 C 3,2 km/h (1 Bft)
05.07.2016 22:59 16,8 C 16,8 C 78 % 1016,9 hPa 0,0 mm 3,2 km/h (1 Bft) W-NW 283 0 min 0,000 mm 0,0 UV-I 0 W/m 12,9 C 4,8 km/h (1 Bft)
05.07.2016 23:00 16,8 C 16,8 C 78 % 1016,9 hPa 0,0 mm 5,7 km/h (1 Bft) W 273 0 min 0,000 mm 0,0 UV-I 0 W/m 12,9 C 9,7 km/h (2 Bft)
05.07.2016 23:01 16,8 C 16,8 C 76 % 1016,9 hPa 0,0 mm 4,6 km/h (1 Bft) W 277 0 min 0,026 mm 0,0 UV-I 0 W/m 12,5 C 6,4 km/h (2 Bft)
05.07.2016 23:02 16,8 C 16,8 C 76 % 1017,0 hPa 0,0 mm 3,9 km/h (1 Bft) W 280 0 min 0,000 mm 0,0 UV-I 0 W/m 12,5 C 6,4 km/h (2 Bft)
05.07.2016 23:03 16,9 C 16,9 C 75 % 1016,9 hPa 0,0 mm 2,8 km/h (1 Bft) W 275 0 min 0,000 mm 0,0 UV-I 0 W/m 12,4 C 4,8 km/h (1 Bft)
05.07.2016 23:04 16,9 C 16,9 C 75 % 1017,0 hPa 0,0 mm 2,3 km/h (1 Bft) W 263 0 min 0,000 mm 0,0 UV-I 0 W/m 12,4 C 3,2 km/h (1 Bft)
05.07.2016 23:05 16,9 C 16,9 C 75 % 1017,0 hPa 0,0 mm 4,8 km/h (1 Bft) W-SW 252 0 min 0,000 mm 0,0 UV-I 0 W/m 12,4 C 6,4 km/h (2 Bft)
05.07.2016 23:06 16,9 C 16,9 C 75 % 1017,0 hPa 0,0 mm 3,3 km/h (1 Bft) W-SW 255 0 min 0,000 mm 0,0 UV-I 0 W/m 12,4 C 4,8 km/h (1 Bft)
05.07.2016 23:07 16,9 C 16,9 C 75 % 1017,0 hPa 0,0 mm 4,6 km/h (1 Bft) W-SW 251 0 min 0,000 mm 0,0 UV-I 0 W/m 12,4 C 6,4 km/h (2 Bft)
05.07.2016 23:08 16,9 C 16,9 C 75 % 1017,0 hPa 0,0 mm 4,2 km/h (1 Bft) W-NW 287 0 min 0,000 mm 0,0 UV-I 0 W/m 12,4 C 6,4 km/h (2 Bft)
05.07.2016 23:09 16,9 C 16,9 C 76 % 1017,0 hPa 0,0 mm 5,3 km/h (1 Bft) W 269 0 min 0,000 mm 0,0 UV-I 0 W/m 12,6 C 6,4 km/h (2 Bft)
05.07.2016 23:10 16,9 C 16,9 C 74 % 1017,1 hPa 0,0 mm 6,8 km/h (2 Bft) W 261 0 min 0,000 mm 0,0 UV-I 0 W/m 12,2 C 9,7 km/h (2 Bft)
05.07.2016 23:11 16,9 C 16,9 C 75 % 1017,1 hPa 0,0 mm 8,4 km/h (2 Bft) W-SW 255 0 min 0,000 mm 0,0 UV-I 0 W/m 12,4 C 11,3 km/h (2 Bft)
05.07.2016 23:12 16,9 C 16,9 C 74 % 1017,1 hPa 0,0 mm 7,0 km/h (2 Bft) W-SW 246 0 min 0,000 mm 0,0 UV-I 0 W/m 12,2 C 9,7 km/h (2 Bft)
05.07.2016 23:13 16,9 C 16,9 C 74 % 1017,2 hPa 0,0 mm 8,0 km/h (2 Bft) W 273 0 min 0,000 mm 0,0 UV-I 0 W/m 12,2 C 11,3 km/h (2 Bft)
05.07.2016 23:14 16,9 C 16,9 C 74 % 1017,2 hPa 0,0 mm 5,7 km/h (1 Bft) S-SW 208 0 min 0,000 mm 0,0 UV-I 0 W/m 12,2 C 9,7 km/h (2 Bft)
05.07.2016 23:15 16,8 C 16,9 C 74 % 1017,2 hPa 0,0 mm 5,2 km/h (1 Bft) W-SW 253 0 min 0,000 mm 0,0 UV-I 0 W/m 12,1 C 11,3 km/h (2 Bft)
05.07.2016 23:16 16,8 C 16,8 C 74 % 1017,1 hPa 0,0 mm 2,5 km/h (1 Bft) W-SW 254 0 min 0,000 mm 0,0 UV-I 0 W/m 12,1 C 4,8 km/h (1 Bft)
05.07.2016 23:17 16,9 C 16,9 C 73 % 1017,1 hPa 0,0 mm 4,3 km/h (1 Bft) W-SW 248 0 min 0,000 mm 0,0 UV-I 0 W/m 12,0 C 9,7 km/h (2 Bft)
05.07.2016 23:18 16,9 C 16,9 C 72 % 1017,1 hPa 0,0 mm 5,1 km/h (1 Bft) W-NW 292 0 min 0,000 mm 0,0 UV-I 0 W/m 11,8 C 9,7 km/h (2 Bft)
05.07.2016 23:19 16,9 C 16,9 C 72 % 1017,2 hPa 0,0 mm 5,8 km/h (2 Bft) W-NW 286 0 min 0,000 mm 0,0 UV-I 0 W/m 11,8 C 9,7 km/h (2 Bft)
05.07.2016 23:20 16,9 C 16,9 C 72 % 1017,2 hPa 0,0 mm 4,5 km/h (1 Bft) W 271 0 min 0,000 mm 0,0 UV-I 0 W/m 11,8 C 6,4 km/h (2 Bft)
05.07.2016 23:21 16,9 C 16,9 C 72 % 1017,2 hPa 0,0 mm 3,4 km/h (1 Bft) W-SW 253 0 min 0,000 mm 0,0 UV-I 0 W/m 11,8 C 4,8 km/h (1 Bft)
05.07.2016 23:22 16,9 C 16,9 C 73 % 1017,2 hPa 0,0 mm 2,5 km/h (1 Bft) W-SW 252 0 min 0,000 mm 0,0 UV-I 0 W/m 12,0 C 4,8 km/h (1 Bft)
05.07.2016 23:23 16,9 C 16,9 C 71 % 1017,2 hPa 0,0 mm 1,8 km/h (1 Bft) W-SW 254 0 min 0,000 mm 0,0 UV-I 0 W/m 11,6 C 3,2 km/h (1 Bft)
05.07.2016 23:24 16,9 C 16,9 C 71 % 1017,2 hPa 0,0 mm 3,0 km/h (1 Bft) W 278 0 min 0,000 mm 0,0 UV-I 0 W/m 11,6 C 4,8 km/h (1 Bft)
05.07.2016 23:25 17,0 C 17,0 C 71 % 1017,2 hPa 0,0 mm 1,5 km/h (1 Bft) W-SW 252 0 min 0,000 mm 0,0 UV-I 0 W/m 11,7 C 3,2 km/h (1 Bft)
05.07.2016 23:26 16,9 C 17,0 C 72 % 1017,2 hPa 0,0 mm 2,1 km/h (1 Bft) W-SW 247 0 min 0,000 mm 0,0 UV-I 0 W/m 11,8 C 3,2 km/h (1 Bft)
05.07.2016 23:27 16,9 C 16,9 C 73 % 1017,2 hPa 0,0 mm 3,2 km/h (1 Bft) W-SW 252 0 min 0,000 mm 0,0 UV-I 0 W/m 12,0 C 4,8 km/h (1 Bft)
05.07.2016 23:28 16,9 C 16,9 C 72 % 1017,2 hPa 0,0 mm 3,7 km/h (1 Bft) W-SW 244 0 min 0,000 mm 0,0 UV-I 0 W/m 11,8 C 4,8 km/h (1 Bft)
05.07.2016 23:29 16,8 C 16,9 C 72 % 1017,2 hPa 0,0 mm 1,8 km/h (1 Bft) W-SW 257 0 min 0,000 mm 0,0 UV-I 0 W/m 11,7 C 3,2 km/h (1 Bft)
05.07.2016 23:30 16,8 C 16,8 C 73 % 1017,1 hPa 0,0 mm 1,5 km/h (1 Bft) W-SW 257 0 min 0,000 mm 0,0 UV-I 0 W/m 11,9 C 3,2 km/h (1 Bft)
05.07.2016 23:31 16,8 C 16,8 C 73 % 1017,2 hPa 0,0 mm 3,2 km/h (1 Bft) W 260 0 min 0,000 mm 0,0 UV-I 0 W/m 11,9 C 4,8 km/h (1 Bft)
05.07.2016 23:32 16,8 C 16,8 C 74 % 1017,2 hPa 0,0 mm 3,2 km/h (1 Bft) W 273 0 min 0,000 mm 0,0 UV-I 0 W/m 12,1 C 4,8 km/h (1 Bft)
05.07.2016 23:33 16,7 C 16,8 C 74 % 1017,2 hPa 0,0 mm 1,1 km/h (1 Bft) W 273 0 min 0,000 mm 0,0 UV-I 0 W/m 12,0 C 3,2 km/h (1 Bft)
05.07.2016 23:34 16,7 C 16,7 C 73 % 1017,2 hPa 0,0 mm 0,4 km/h (0 Bft) W 273 0 min 0,000 mm 0,0 UV-I 0 W/m 11,8 C 1,6 km/h (1 Bft)
05.07.2016 23:35 16,7 C 16,7 C 73 % 1017,2 hPa 0,0 mm 2,1 km/h (1 Bft) W 273 0 min 0,000 mm 0,0 UV-I 0 W/m 11,8 C 3,2 km/h (1 Bft)
05.07.2016 23:36 16,7 C 16,7 C 73 % 1017,2 hPa 0,0 mm 1,2 km/h (1 Bft) W 273 0 min 0,000 mm 0,0 UV-I 0 W/m 11,8 C 3,2 km/h (1 Bft)
05.07.2016 23:37 16,7 C 16,7 C 72 % 1017,2 hPa 0,0 mm 0,5 km/h (0 Bft) W 273 0 min 0,000 mm 0,0 UV-I 0 W/m 11,6 C 1,6 km/h (1 Bft)
05.07.2016 23:38 16,7 C 16,7 C 74 % 1017,2 hPa 0,0 mm 0,4 km/h (0 Bft) W 273 0 min 0,000 mm 0,0 UV-I 0 W/m 12,0 C 1,6 km/h (1 Bft)
05.07.2016 23:39 16,7 C 16,7 C 73 % 1017,2 hPa 0,0 mm 0,7 km/h (0 Bft) W 273 0 min 0,000 mm 0,0 UV-I 0 W/m 11,8 C 1,6 km/h (1 Bft)
05.07.2016 23:40 16,7 C 16,7 C 73 % 1017,2 hPa 0,0 mm 0,8 km/h (0 Bft) W 273 0 min 0,000 mm 0,0 UV-I 0 W/m 11,8 C 1,6 km/h (1 Bft)
05.07.2016 23:41 16,6 C 16,7 C 73 % 1017,2 hPa 0,0 mm 1,2 km/h (1 Bft) W 273 0 min 0,000 mm 0,0 UV-I 0 W/m 11,7 C 1,6 km/h (1 Bft)
05.07.2016 23:42 16,6 C 16,6 C 73 % 1017,2 hPa 0,0 mm 1,6 km/h (1 Bft) SW 217 0 min 0,000 mm 0,0 UV-I 0 W/m 11,7 C 3,2 km/h (1 Bft)
05.07.2016 23:43 16,6 C 16,6 C 73 % 1017,1 hPa 0,0 mm 1,2 km/h (1 Bft) SW 217 0 min 0,000 mm 0,0 UV-I 0 W/m 11,7 C 3,2 km/h (1 Bft)
05.07.2016 23:44 16,6 C 16,6 C 75 % 1017,1 hPa 0,0 mm 1,1 km/h (1 Bft) SW 217 0 min 0,000 mm 0,0 UV-I 0 W/m 12,1 C 1,6 km/h (1 Bft)
05.07.2016 23:45 16,6 C 16,6 C 73 % 1017,2 hPa 0,0 mm 1,3 km/h (1 Bft) SW 217 0 min 0,000 mm 0,0 UV-I 0 W/m 11,7 C 3,2 km/h (1 Bft)
05.07.2016 23:46 16,6 C 16,6 C 73 % 1017,2 hPa 0,0 mm 2,0 km/h (1 Bft) S 190 0 min 0,000 mm 0,0 UV-I 0 W/m 11,7 C 3,2 km/h (1 Bft)
05.07.2016 23:47 16,6 C 16,6 C 75 % 1017,3 hPa 0,0 mm 3,4 km/h (1 Bft) S-SW 192 0 min 0,000 mm 0,0 UV-I 0 W/m 12,1 C 4,8 km/h (1 Bft)
05.07.2016 23:48 16,6 C 16,6 C 73 % 1017,2 hPa 0,0 mm 1,5 km/h (1 Bft) S-SW 192 0 min 0,000 mm 0,0 UV-I 0 W/m 11,7 C 1,6 km/h (1 Bft)
05.07.2016 23:49 16,6 C 16,6 C 74 % 1017,2 hPa 0,0 mm 1,2 km/h (1 Bft) S-SW 192 0 min 0,000 mm 0,0 UV-I 0 W/m 11,9 C 1,6 km/h (1 Bft)
05.07.2016 23:50 16,6 C 16,6 C 73 % 1017,2 hPa 0,0 mm 1,4 km/h (1 Bft) S-SW 192 0 min 0,000 mm 0,0 UV-I 0 W/m 11,7 C 3,2 km/h (1 Bft)
05.07.2016 23:51 16,6 C 16,6 C 73 % 1017,2 hPa 0,0 mm 1,8 km/h (1 Bft) S 188 0 min 0,000 mm 0,0 UV-I 0 W/m 11,7 C 3,2 km/h (1 Bft)
05.07.2016 23:52 16,6 C 16,6 C 74 % 1017,2 hPa 0,0 mm 1,5 km/h (1 Bft) S 188 0 min 0,000 mm 0,0 UV-I 0 W/m 11,9 C 3,2 km/h (1 Bft)
05.07.2016 23:53 16,6 C 16,6 C 74 % 1017,2 hPa 0,0 mm 1,3 km/h (1 Bft) S 188 0 min 0,000 mm 0,0 UV-I 0 W/m 11,9 C 3,2 km/h (1 Bft)
05.07.2016 23:54 16,6 C 16,6 C 75 % 1017,3 hPa 0,0 mm 1,8 km/h (1 Bft) S-SW 192 0 min 0,000 mm 0,0 UV-I 0 W/m 12,1 C 3,2 km/h (1 Bft)
05.07.2016 23:55 16,6 C 16,6 C 75 % 1017,2 hPa 0,0 mm 0,4 km/h (0 Bft) S-SW 192 0 min 0,000 mm 0,0 UV-I 0 W/m 12,1 C 1,6 km/h (1 Bft)
05.07.2016 23:56 16,5 C 16,6 C 75 % 1017,3 hPa 0,0 mm 0,4 km/h (0 Bft) S-SW 192 0 min 0,000 mm 0,0 UV-I 0 W/m 12,1 C 1,6 km/h (1 Bft)
05.07.2016 23:57 16,5 C 16,5 C 74 % 1017,3 hPa 0,0 mm 1,5 km/h (1 Bft) S-SW 192 0 min 0,000 mm 0,0 UV-I 0 W/m 11,8 C 3,2 km/h (1 Bft)
05.07.2016 23:58 16,5 C 16,5 C 74 % 1017,2 hPa 0,0 mm 2,1 km/h (1 Bft) S 190 0 min 0,000 mm 0,0 UV-I 0 W/m 11,8 C 3,2 km/h (1 Bft)
05.07.2016 23:59 16,6 C 16,6 C 74 % 1017,2 hPa 0,0 mm 2,1 km/h (1 Bft) S 190 0 min 0,000 mm 0,0 UV-I 0 W/m 11,9 C 3,2 km/h (1 Bft)
_ Min-Zeit 05:17 05:26 19:49 17:56 - 08:36 - - - - - - 20:20 08:36
Minimum _ 11,1 C 11,2 C 46 % 1013,8 hPa - 0,0 km/h (0 Bft) - - - - - - 9,6 C 0,0 km/h (0 Bft)
_ Max-Zeit 14:20 14:20 05:32 00:02 23:59 15:19 - - 21:04 15:00 13:40 12:57 12:36 15:19
Maximum _ 24,3 C 24,3 C 96 % 1017,7 hPa 0,0 mm 23,4 km/h
W (4 Bft)
- - 1 min 0,559 mm 8,0 UV-I 969 W/m 17,1 C 35,4 km/h
N-NW (5 Bft)
Durchschnitt _ 18,2 C 18,2 C 73 % 1015,7 hPa #0,0 mm 5,2 km/h (1 Bft) W - #8:20 h #4,242 mm 3,5 UV-I 242 W/m 12,8 C 8,4 km/h (2 Bft)